<?xml version="1.0" encoding="UTF-8" standalone="no" ?><gpx xmlns="http://www.topografix.com/GPX/1/1" xmlns:gpxx="http://www.garmin.com/xmlschemas/GpxExtensions/v3" xmlns:wptx1="http://www.garmin.com/xmlschemas/WaypointExtension/v1" xmlns:gpxtpx="http://www.garmin.com/xmlschemas/TrackPointExtension/v1" creator="Dakota 20" version="1.1" xmlns:xsi="http://www.w3.org/2001/XMLSchema-instance" xsi:schemaLocation="http://www.topografix.com/GPX/1/1 http://www.topografix.com/GPX/1/1/gpx.xsd http://www.garmin.com/xmlschemas/GpxExtensions/v3 http://www8.garmin.com/xmlschemas/GpxExtensionsv3.xsd http://www.garmin.com/xmlschemas/WaypointExtension/v1 http://www8.garmin.com/xmlschemas/WaypointExtensionv1.xsd http://www.garmin.com/xmlschemas/TrackPointExtension/v1 http://www.garmin.com/xmlschemas/TrackPointExtensionv1.xsd"><metadata><link href="http://www.garmin.com"><text>Garmin International</text></link><time>2014-05-03T15:05:07Z</time></metadata><trk><name>Auto 03-MAI-14 12:46:49</name><extensions><gpxx:TrackExtension><gpxx:DisplayColor>Red</gpxx:DisplayColor></gpxx:TrackExtension></extensions><trkseg><trkpt lat="49.6448561177" lon="12.4081377033"><ele>548.09</ele><time>2014-05-03T10:46:49Z</time></trkpt><trkpt lat="49.6448581293" lon="12.4081410561"><ele>548.09</ele><time>2014-05-03T10:46:50Z</time></trkpt><trkpt lat="49.6448613983" lon="12.4081459176"><ele>548.09</ele><time>2014-05-03T10:46:51Z</time></trkpt><trkpt lat="49.6448659245" lon="12.4081475940"><ele>548.09</ele><time>2014-05-03T10:46:52Z</time></trkpt><trkpt lat="49.6448690258" lon="12.4081484322"><ele>548.09</ele><time>2014-05-03T10:46:53Z</time></trkpt><trkpt lat="49.6448710375" lon="12.4081490189"><ele>547.61</ele><time>2014-05-03T10:46:54Z</time></trkpt><trkpt lat="49.6448704507" lon="12.4081490189"><ele>548.09</ele><time>2014-05-03T10:46:55Z</time></trkpt><trkpt lat="49.6448672656" lon="12.4081580713"><ele>548.09</ele><time>2014-05-03T10:47:03Z</time></trkpt><trkpt lat="49.6448693611" lon="12.4081577361"><ele>548.09</ele><time>2014-05-03T10:47:04Z</time></trkpt><trkpt lat="49.6448665112" lon="12.4081625976"><ele>548.09</ele><time>2014-05-03T10:47:05Z</time></trkpt><trkpt lat="49.6448651701" lon="12.4081663694"><ele>548.09</ele><time>2014-05-03T10:47:07Z</time></trkpt><trkpt lat="49.6448639128" lon="12.4081687164"><ele>548.09</ele><time>2014-05-03T10:47:08Z</time></trkpt><trkpt lat="49.6448619012" lon="12.4081717338"><ele>548.09</ele><time>2014-05-03T10:47:09Z</time></trkpt><trkpt lat="49.6448573750" lon="12.4081724044"><ele>548.09</ele><time>2014-05-03T10:47:10Z</time></trkpt><trkpt lat="49.6448517591" lon="12.4081753381"><ele>548.09</ele><time>2014-05-03T10:47:11Z</time></trkpt><trkpt lat="49.6448467299" lon="12.4081754219"><ele>548.09</ele><time>2014-05-03T10:47:12Z</time></trkpt><trkpt lat="49.6448413655" lon="12.4081764277"><ele>548.09</ele><time>2014-05-03T10:47:13Z</time></trkpt><trkpt lat="49.6448389348" lon="12.4081745837"><ele>547.61</ele><time>2014-05-03T10:47:14Z</time></trkpt><trkpt lat="49.6448384319" lon="12.4081741646"><ele>547.61</ele><time>2014-05-03T10:47:15Z</time></trkpt><trkpt lat="49.6448386833" lon="12.4081721529"><ele>548.09</ele><time>2014-05-03T10:47:16Z</time></trkpt><trkpt lat="49.6448339056" lon="12.4081499409"><ele>548.09</ele><time>2014-05-03T10:47:26Z</time></trkpt><trkpt lat="49.6448370907" lon="12.4081418943"><ele>547.61</ele><time>2014-05-03T10:47:27Z</time></trkpt><trkpt lat="49.6448432934" lon="12.4081357755"><ele>548.09</ele><time>2014-05-03T10:47:28Z</time></trkpt><trkpt lat="49.6448521782" lon="12.4081311654"><ele>547.61</ele><time>2014-05-03T10:47:29Z</time></trkpt><trkpt lat="49.6448612306" lon="12.4081260525"><ele>547.61</ele><time>2014-05-03T10:47:30Z</time></trkpt><trkpt lat="49.6448692773" lon="12.4081208557"><ele>548.09</ele><time>2014-05-03T10:47:31Z</time></trkpt><trkpt lat="49.6448771562" lon="12.4081137311"><ele>547.61</ele><time>2014-05-03T10:47:32Z</time></trkpt><trkpt lat="49.6448844485" lon="12.4081046786"><ele>547.61</ele><time>2014-05-03T10:47:33Z</time></trkpt><trkpt lat="49.6448910702" lon="12.4080954585"><ele>548.09</ele><time>2014-05-03T10:47:34Z</time></trkpt><trkpt lat="49.6448985301" lon="12.4080843944"><ele>547.61</ele><time>2014-05-03T10:47:35Z</time></trkpt><trkpt lat="49.6449067444" lon="12.4080730788"><ele>547.61</ele><time>2014-05-03T10:47:36Z</time></trkpt><trkpt lat="49.6449152101" lon="12.4080605898"><ele>547.61</ele><time>2014-05-03T10:47:37Z</time></trkpt><trkpt lat="49.6449240111" lon="12.4080486037"><ele>548.09</ele><time>2014-05-03T10:47:38Z</time></trkpt><trkpt lat="49.6449328121" lon="12.4080374558"><ele>547.61</ele><time>2014-05-03T10:47:39Z</time></trkpt><trkpt lat="49.6449406911" lon="12.4080272298"><ele>548.09</ele><time>2014-05-03T10:47:40Z</time></trkpt><trkpt lat="49.6449495759" lon="12.4080170039"><ele>548.09</ele><time>2014-05-03T10:47:41Z</time></trkpt><trkpt lat="49.6449588798" lon="12.4080088735"><ele>548.09</ele><time>2014-05-03T10:47:42Z</time></trkpt><trkpt lat="49.6449678484" lon="12.4080010783"><ele>548.09</ele><time>2014-05-03T10:47:43Z</time></trkpt><trkpt lat="49.6449753921" lon="12.4079946242"><ele>547.61</ele><time>2014-05-03T10:47:44Z</time></trkpt><trkpt lat="49.6449831873" lon="12.4079885893"><ele>547.61</ele><time>2014-05-03T10:47:45Z</time></trkpt><trkpt lat="49.6449906472" lon="12.4079844821"><ele>548.09</ele><time>2014-05-03T10:47:46Z</time></trkpt><trkpt lat="49.6449981071" lon="12.4079809617"><ele>547.61</ele><time>2014-05-03T10:47:47Z</time></trkpt><trkpt lat="49.6450033039" lon="12.4079764355"><ele>547.61</ele><time>2014-05-03T10:47:48Z</time></trkpt><trkpt lat="49.6450064052" lon="12.4079711549"><ele>548.09</ele><time>2014-05-03T10:47:49Z</time></trkpt><trkpt lat="49.6450083330" lon="12.4079669639"><ele>548.09</ele><time>2014-05-03T10:47:50Z</time></trkpt><trkpt lat="49.6450105123" lon="12.4079636112"><ele>548.09</ele><time>2014-05-03T10:47:51Z</time></trkpt><trkpt lat="49.6450111829" lon="12.4079613481"><ele>547.61</ele><time>2014-05-03T10:47:52Z</time></trkpt><trkpt lat="49.6450112667" lon="12.4079610966"><ele>547.61</ele><time>2014-05-03T10:47:53Z</time></trkpt><trkpt lat="49.6450106800" lon="12.4079610966"><ele>547.61</ele><time>2014-05-03T10:47:54Z</time></trkpt><trkpt lat="49.6450111829" lon="12.4079611804"><ele>547.61</ele><time>2014-05-03T10:47:55Z</time></trkpt><trkpt lat="49.6450121887" lon="12.4079600070"><ele>548.09</ele><time>2014-05-03T10:47:56Z</time></trkpt><trkpt lat="49.6450133622" lon="12.4079586659"><ele>547.61</ele><time>2014-05-03T10:47:57Z</time></trkpt><trkpt lat="49.6450143680" lon="12.4079566542"><ele>547.61</ele><time>2014-05-03T10:47:58Z</time></trkpt><trkpt lat="49.6450119372" lon="12.4079585820"><ele>547.61</ele><time>2014-05-03T10:47:59Z</time></trkpt><trkpt lat="49.6450100932" lon="12.4079593364"><ele>548.09</ele><time>2014-05-03T10:48:00Z</time></trkpt><trkpt lat="49.6450079978" lon="12.4079606775"><ele>547.61</ele><time>2014-05-03T10:48:01Z</time></trkpt><trkpt lat="49.6450061537" lon="12.4079620186"><ele>547.61</ele><time>2014-05-03T10:48:02Z</time></trkpt><trkpt lat="49.6450047288" lon="12.4079626054"><ele>548.09</ele><time>2014-05-03T10:48:03Z</time></trkpt><trkpt lat="49.6450072434" lon="12.4079641141"><ele>547.61</ele><time>2014-05-03T10:48:04Z</time></trkpt><trkpt lat="49.6450104285" lon="12.4079663772"><ele>547.61</ele><time>2014-05-03T10:48:05Z</time></trkpt><trkpt lat="49.6450156253" lon="12.4079669639"><ele>547.61</ele><time>2014-05-03T10:48:06Z</time></trkpt><trkpt lat="49.6450216603" lon="12.4079669639"><ele>547.61</ele><time>2014-05-03T10:48:07Z</time></trkpt><trkpt lat="49.6450289525" lon="12.4079669639"><ele>547.61</ele><time>2014-05-03T10:48:08Z</time></trkpt><trkpt lat="49.6450364124" lon="12.4079671316"><ele>547.61</ele><time>2014-05-03T10:48:09Z</time></trkpt><trkpt lat="49.6450439561" lon="12.4079669639"><ele>547.61</ele><time>2014-05-03T10:48:10Z</time></trkpt><trkpt lat="49.6450494044" lon="12.4079674669"><ele>548.09</ele><time>2014-05-03T10:48:11Z</time></trkpt><trkpt lat="49.6450545173" lon="12.4079696462"><ele>547.61</ele><time>2014-05-03T10:48:12Z</time></trkpt><trkpt lat="49.6450594626" lon="12.4079748429"><ele>547.61</ele><time>2014-05-03T10:48:13Z</time></trkpt><trkpt lat="49.6450634860" lon="12.4079806264"><ele>547.61</ele><time>2014-05-03T10:48:14Z</time></trkpt><trkpt lat="49.6450663358" lon="12.4079857394"><ele>548.09</ele><time>2014-05-03T10:48:15Z</time></trkpt><trkpt lat="49.6450693533" lon="12.4079907686"><ele>547.61</ele><time>2014-05-03T10:48:16Z</time></trkpt><trkpt lat="49.6450700238" lon="12.4079973064"><ele>547.61</ele><time>2014-05-03T10:48:17Z</time></trkpt><trkpt lat="49.6450688504" lon="12.4080042634"><ele>548.09</ele><time>2014-05-03T10:48:18Z</time></trkpt><trkpt lat="49.6450671740" lon="12.4080095440"><ele>547.61</ele><time>2014-05-03T10:48:19Z</time></trkpt><trkpt lat="49.6450633183" lon="12.4080147408"><ele>547.61</ele><time>2014-05-03T10:48:20Z</time></trkpt><trkpt lat="49.6450587921" lon="12.4080185965"><ele>547.61</ele><time>2014-05-03T10:48:21Z</time></trkpt><trkpt lat="49.6450533438" lon="12.4080222007"><ele>548.09</ele><time>2014-05-03T10:48:22Z</time></trkpt><trkpt lat="49.6450473927" lon="12.4080242962"><ele>548.09</ele><time>2014-05-03T10:48:23Z</time></trkpt><trkpt lat="49.6450402681" lon="12.4080227036"><ele>547.61</ele><time>2014-05-03T10:48:24Z</time></trkpt><trkpt lat="49.6450333111" lon="12.4080225360"><ele>548.09</ele><time>2014-05-03T10:48:25Z</time></trkpt><trkpt lat="49.6450265218" lon="12.4080223683"><ele>548.09</ele><time>2014-05-03T10:48:26Z</time></trkpt><trkpt lat="49.6450196486" lon="12.4080230389"><ele>547.61</ele><time>2014-05-03T10:48:27Z</time></trkpt><trkpt lat="49.6450146195" lon="12.4080220331"><ele>548.09</ele><time>2014-05-03T10:48:28Z</time></trkpt><trkpt lat="49.6450101770" lon="12.4080198538"><ele>548.09</ele><time>2014-05-03T10:48:29Z</time></trkpt><trkpt lat="49.6450085007" lon="12.4080195185"><ele>548.09</ele><time>2014-05-03T10:48:30Z</time></trkpt><trkpt lat="49.6450057346" lon="12.4080173392"><ele>548.09</ele><time>2014-05-03T10:48:31Z</time></trkpt><trkpt lat="49.6450038906" lon="12.4080159143"><ele>547.61</ele><time>2014-05-03T10:48:32Z</time></trkpt><trkpt lat="49.6450025495" lon="12.4080153275"><ele>548.09</ele><time>2014-05-03T10:48:33Z</time></trkpt><trkpt lat="49.6450000349" lon="12.4080144055"><ele>547.61</ele><time>2014-05-03T10:48:34Z</time></trkpt><trkpt lat="49.6449975204" lon="12.4080153275"><ele>548.09</ele><time>2014-05-03T10:48:38Z</time></trkpt><trkpt lat="49.6449949220" lon="12.4080158304"><ele>548.09</ele><time>2014-05-03T10:48:39Z</time></trkpt><trkpt lat="49.6449921560" lon="12.4080151599"><ele>548.09</ele><time>2014-05-03T10:48:40Z</time></trkpt><trkpt lat="49.6449872106" lon="12.4080160819"><ele>548.09</ele><time>2014-05-03T10:48:42Z</time></trkpt><trkpt lat="49.6449853666" lon="12.4080159981"><ele>547.61</ele><time>2014-05-03T10:48:43Z</time></trkpt><trkpt lat="49.6449828520" lon="12.4080160819"><ele>548.09</ele><time>2014-05-03T10:48:44Z</time></trkpt><trkpt lat="49.6449838579" lon="12.4080195185"><ele>548.09</ele><time>2014-05-03T10:48:45Z</time></trkpt><trkpt lat="49.6449851152" lon="12.4080231227"><ele>548.09</ele><time>2014-05-03T10:48:46Z</time></trkpt><trkpt lat="49.6449840255" lon="12.4080268107"><ele>548.09</ele><time>2014-05-03T10:48:47Z</time></trkpt><trkpt lat="49.6449790802" lon="12.4080299120"><ele>548.09</ele><time>2014-05-03T10:48:48Z</time></trkpt><trkpt lat="49.6449743863" lon="12.4080343544"><ele>548.09</ele><time>2014-05-03T10:48:49Z</time></trkpt><trkpt lat="49.6449641604" lon="12.4080464244"><ele>548.09</ele><time>2014-05-03T10:48:51Z</time></trkpt><trkpt lat="49.6449609753" lon="12.4080573209"><ele>548.09</ele><time>2014-05-03T10:48:52Z</time></trkpt><trkpt lat="49.6449587122" lon="12.4080675468"><ele>548.09</ele><time>2014-05-03T10:48:53Z</time></trkpt><trkpt lat="49.6449567005" lon="12.4080782756"><ele>548.09</ele><time>2014-05-03T10:48:54Z</time></trkpt><trkpt lat="49.6449541021" lon="12.4080897588"><ele>548.09</ele><time>2014-05-03T10:48:55Z</time></trkpt><trkpt lat="49.6449520066" lon="12.4081015773"><ele>548.09</ele><time>2014-05-03T10:48:56Z</time></trkpt><trkpt lat="49.6449513361" lon="12.4081132282"><ele>548.09</ele><time>2014-05-03T10:48:57Z</time></trkpt><trkpt lat="49.6449490730" lon="12.4081247952"><ele>548.09</ele><time>2014-05-03T10:48:58Z</time></trkpt><trkpt lat="49.6449458040" lon="12.4081366975"><ele>548.09</ele><time>2014-05-03T10:48:59Z</time></trkpt><trkpt lat="49.6449421160" lon="12.4081472587"><ele>548.09</ele><time>2014-05-03T10:49:00Z</time></trkpt><trkpt lat="49.6449368354" lon="12.4081527907"><ele>548.09</ele><time>2014-05-03T10:49:01Z</time></trkpt><trkpt lat="49.6449319739" lon="12.4081569817"><ele>548.09</ele><time>2014-05-03T10:49:02Z</time></trkpt><trkpt lat="49.6449270286" lon="12.4081619270"><ele>548.09</ele><time>2014-05-03T10:49:03Z</time></trkpt><trkpt lat="49.6449238434" lon="12.4081638549"><ele>548.09</ele><time>2014-05-03T10:49:04Z</time></trkpt><trkpt lat="49.6449208260" lon="12.4081647769"><ele>548.09</ele><time>2014-05-03T10:49:05Z</time></trkpt><trkpt lat="49.6449176408" lon="12.4081656151"><ele>548.09</ele><time>2014-05-03T10:49:06Z</time></trkpt><trkpt lat="49.6449143719" lon="12.4081662856"><ele>548.09</ele><time>2014-05-03T10:49:07Z</time></trkpt><trkpt lat="49.6449106000" lon="12.4081679620"><ele>548.09</ele><time>2014-05-03T10:49:08Z</time></trkpt><trkpt lat="49.6448819339" lon="12.4081950355"><ele>548.09</ele><time>2014-05-03T10:49:18Z</time></trkpt><trkpt lat="49.6448799223" lon="12.4081975501"><ele>547.61</ele><time>2014-05-03T10:49:19Z</time></trkpt><trkpt lat="49.6448731329" lon="12.4082008190"><ele>547.61</ele><time>2014-05-03T10:49:22Z</time></trkpt><trkpt lat="49.6448719595" lon="12.4082024954"><ele>547.61</ele><time>2014-05-03T10:49:23Z</time></trkpt><trkpt lat="49.6448700316" lon="12.4082100391"><ele>547.61</ele><time>2014-05-03T10:49:24Z</time></trkpt><trkpt lat="49.6448684391" lon="12.4082180858"><ele>548.09</ele><time>2014-05-03T10:49:25Z</time></trkpt><trkpt lat="49.6448672656" lon="12.4082254618"><ele>547.61</ele><time>2014-05-03T10:49:26Z</time></trkpt><trkpt lat="49.6448681876" lon="12.4082320835"><ele>548.09</ele><time>2014-05-03T10:49:27Z</time></trkpt><trkpt lat="49.6448661759" lon="12.4082352687"><ele>548.09</ele><time>2014-05-03T10:49:28Z</time></trkpt><trkpt lat="49.6448513400" lon="12.4082382862"><ele>548.09</ele><time>2014-05-03T10:49:29Z</time></trkpt><trkpt lat="49.6448408626" lon="12.4082465004"><ele>548.09</ele><time>2014-05-03T10:49:30Z</time></trkpt><trkpt lat="49.6448328998" lon="12.4082688801"><ele>548.09</ele><time>2014-05-03T10:49:31Z</time></trkpt><trkpt lat="49.6448337380" lon="12.4082731549"><ele>547.61</ele><time>2014-05-03T10:49:32Z</time></trkpt><trkpt lat="49.6448350791" lon="12.4082748313"><ele>547.61</ele><time>2014-05-03T10:49:33Z</time></trkpt><trkpt lat="49.6448360849" lon="12.4082722329"><ele>547.61</ele><time>2014-05-03T10:49:34Z</time></trkpt><trkpt lat="49.6448446345" lon="12.4082616717"><ele>547.61</ele><time>2014-05-03T10:49:35Z</time></trkpt><trkpt lat="49.6448559500" lon="12.4082466681"><ele>547.61</ele><time>2014-05-03T10:49:36Z</time></trkpt><trkpt lat="49.6448633261" lon="12.4082357716"><ele>547.61</ele><time>2014-05-03T10:49:37Z</time></trkpt><trkpt lat="49.6448715404" lon="12.4082235340"><ele>547.61</ele><time>2014-05-03T10:49:38Z</time></trkpt><trkpt lat="49.6448769886" lon="12.4082123023"><ele>547.61</ele><time>2014-05-03T10:49:39Z</time></trkpt><trkpt lat="49.6448727977" lon="12.4082030822"><ele>547.61</ele><time>2014-05-03T10:49:40Z</time></trkpt><trkpt lat="49.6448688582" lon="12.4081915151"><ele>547.61</ele><time>2014-05-03T10:49:41Z</time></trkpt><trkpt lat="49.6448691934" lon="12.4081904255"><ele>547.61</ele><time>2014-05-03T10:49:42Z</time></trkpt><trkpt lat="49.6448689420" lon="12.4081896711"><ele>547.61</ele><time>2014-05-03T10:49:43Z</time></trkpt><trkpt lat="49.6448599733" lon="12.4081822950"><ele>547.61</ele><time>2014-05-03T10:49:44Z</time></trkpt><trkpt lat="49.6448551118" lon="12.4081662856"><ele>547.61</ele><time>2014-05-03T10:49:45Z</time></trkpt><trkpt lat="49.6448551957" lon="12.4081652798"><ele>547.61</ele><time>2014-05-03T10:49:46Z</time></trkpt><trkpt lat="49.6448552795" lon="12.4081647769"><ele>547.61</ele><time>2014-05-03T10:49:47Z</time></trkpt><trkpt lat="49.6448589675" lon="12.4081492703"><ele>547.61</ele><time>2014-05-03T10:49:48Z</time></trkpt><trkpt lat="49.6448589675" lon="12.4081382062"><ele>547.61</ele><time>2014-05-03T10:49:49Z</time></trkpt><trkpt lat="49.6448578779" lon="12.4081236217"><ele>548.09</ele><time>2014-05-03T10:49:50Z</time></trkpt><trkpt lat="49.6448590513" lon="12.4081103783"><ele>547.61</ele><time>2014-05-03T10:49:51Z</time></trkpt><trkpt lat="49.6448582970" lon="12.4080993980"><ele>547.61</ele><time>2014-05-03T10:49:52Z</time></trkpt><trkpt lat="49.6448593866" lon="12.4080901779"><ele>547.61</ele><time>2014-05-03T10:49:53Z</time></trkpt><trkpt lat="49.6448565368" lon="12.4080857355"><ele>547.61</ele><time>2014-05-03T10:49:54Z</time></trkpt><trkpt lat="49.6448494121" lon="12.4080848135"><ele>547.61</ele><time>2014-05-03T10:49:55Z</time></trkpt><trkpt lat="49.6448415332" lon="12.4080843944"><ele>547.61</ele><time>2014-05-03T10:49:56Z</time></trkpt><trkpt lat="49.6448358335" lon="12.4080797844"><ele>547.61</ele><time>2014-05-03T10:49:57Z</time></trkpt><trkpt lat="49.6448287088" lon="12.4080757610"><ele>547.61</ele><time>2014-05-03T10:49:58Z</time></trkpt><trkpt lat="49.6448218357" lon="12.4080725759"><ele>547.61</ele><time>2014-05-03T10:49:59Z</time></trkpt><trkpt lat="49.6448152140" lon="12.4080701452"><ele>547.61</ele><time>2014-05-03T10:50:00Z</time></trkpt><trkpt lat="49.6448109392" lon="12.4080667924"><ele>547.61</ele><time>2014-05-03T10:50:01Z</time></trkpt><trkpt lat="49.6448083408" lon="12.4080641940"><ele>547.61</ele><time>2014-05-03T10:50:02Z</time></trkpt><trkpt lat="49.6448084246" lon="12.4080645293"><ele>547.61</ele><time>2014-05-03T10:50:03Z</time></trkpt><trkpt lat="49.6448086761" lon="12.4080649484"><ele>547.61</ele><time>2014-05-03T10:50:04Z</time></trkpt><trkpt lat="49.6448085923" lon="12.4080656189"><ele>547.61</ele><time>2014-05-03T10:50:05Z</time></trkpt><trkpt lat="49.6448088437" lon="12.4080664571"><ele>547.61</ele><time>2014-05-03T10:50:06Z</time></trkpt><trkpt lat="49.6448091790" lon="12.4080671277"><ele>547.61</ele><time>2014-05-03T10:50:07Z</time></trkpt><trkpt lat="49.6448094305" lon="12.4080678821"><ele>547.61</ele><time>2014-05-03T10:50:08Z</time></trkpt><trkpt lat="49.6448077541" lon="12.4080713186"><ele>547.61</ele><time>2014-05-03T10:50:09Z</time></trkpt><trkpt lat="49.6448083408" lon="12.4080718216"><ele>547.61</ele><time>2014-05-03T10:50:10Z</time></trkpt><trkpt lat="49.6448085085" lon="12.4080724083"><ele>547.61</ele><time>2014-05-03T10:50:11Z</time></trkpt><trkpt lat="49.6448087599" lon="12.4080725759"><ele>547.61</ele><time>2014-05-03T10:50:12Z</time></trkpt><trkpt lat="49.6448076703" lon="12.4080689717"><ele>547.61</ele><time>2014-05-03T10:50:13Z</time></trkpt><trkpt lat="49.6448053233" lon="12.4080653675"><ele>547.61</ele><time>2014-05-03T10:50:14Z</time></trkpt><trkpt lat="49.6448018029" lon="12.4080627691"><ele>547.61</ele><time>2014-05-03T10:50:15Z</time></trkpt><trkpt lat="49.6447978634" lon="12.4080622662"><ele>547.61</ele><time>2014-05-03T10:50:16Z</time></trkpt><trkpt lat="49.6447945107" lon="12.4080631044"><ele>547.61</ele><time>2014-05-03T10:50:17Z</time></trkpt><trkpt lat="49.6447913256" lon="12.4080646131"><ele>547.61</ele><time>2014-05-03T10:50:18Z</time></trkpt><trkpt lat="49.6447907388" lon="12.4080660380"><ele>547.61</ele><time>2014-05-03T10:50:19Z</time></trkpt><trkpt lat="49.6447861288" lon="12.4080721568"><ele>547.61</ele><time>2014-05-03T10:50:24Z</time></trkpt><trkpt lat="49.6447857097" lon="12.4080720730"><ele>547.61</ele><time>2014-05-03T10:50:25Z</time></trkpt><trkpt lat="49.6447814349" lon="12.4080722407"><ele>547.61</ele><time>2014-05-03T10:50:26Z</time></trkpt><trkpt lat="49.6447771601" lon="12.4080726597"><ele>547.61</ele><time>2014-05-03T10:50:27Z</time></trkpt><trkpt lat="49.6447724663" lon="12.4080729950"><ele>547.61</ele><time>2014-05-03T10:50:28Z</time></trkpt><trkpt lat="49.6447683591" lon="12.4080739170"><ele>547.61</ele><time>2014-05-03T10:50:29Z</time></trkpt><trkpt lat="49.6447639167" lon="12.4080748390"><ele>547.61</ele><time>2014-05-03T10:50:30Z</time></trkpt><trkpt lat="49.6447593067" lon="12.4080763478"><ele>547.61</ele><time>2014-05-03T10:50:31Z</time></trkpt><trkpt lat="49.6447551996" lon="12.4080791138"><ele>547.61</ele><time>2014-05-03T10:50:32Z</time></trkpt><trkpt lat="49.6447548643" lon="12.4080799520"><ele>548.09</ele><time>2014-05-03T10:50:33Z</time></trkpt><trkpt lat="49.6447546966" lon="12.4080791138"><ele>547.61</ele><time>2014-05-03T10:50:34Z</time></trkpt><trkpt lat="49.6447544452" lon="12.4080769345"><ele>548.09</ele><time>2014-05-03T10:50:35Z</time></trkpt><trkpt lat="49.6447541099" lon="12.4080750905"><ele>547.61</ele><time>2014-05-03T10:50:36Z</time></trkpt><trkpt lat="49.6447538584" lon="12.4080735818"><ele>547.61</ele><time>2014-05-03T10:50:37Z</time></trkpt><trkpt lat="49.6447512601" lon="12.4080718216"><ele>547.61</ele><time>2014-05-03T10:50:43Z</time></trkpt><trkpt lat="49.6447506733" lon="12.4080715701"><ele>547.61</ele><time>2014-05-03T10:50:44Z</time></trkpt><trkpt lat="49.6447547805" lon="12.4080667924"><ele>547.61</ele><time>2014-05-03T10:50:52Z</time></trkpt><trkpt lat="49.6447556186" lon="12.4080656189"><ele>547.61</ele><time>2014-05-03T10:50:53Z</time></trkpt><trkpt lat="49.6447563730" lon="12.4080643617"><ele>547.61</ele><time>2014-05-03T10:50:54Z</time></trkpt><trkpt lat="49.6447562892" lon="12.4080638587"><ele>547.61</ele><time>2014-05-03T10:50:55Z</time></trkpt><trkpt lat="49.6447569598" lon="12.4080627691"><ele>547.61</ele><time>2014-05-03T10:50:56Z</time></trkpt><trkpt lat="49.6447592229" lon="12.4080610927"><ele>547.61</ele><time>2014-05-03T10:50:57Z</time></trkpt><trkpt lat="49.6447600611" lon="12.4080603383"><ele>547.61</ele><time>2014-05-03T10:50:58Z</time></trkpt><trkpt lat="49.6447622404" lon="12.4080584943"><ele>547.61</ele><time>2014-05-03T10:51:01Z</time></trkpt><trkpt lat="49.6447641682" lon="12.4080641102"><ele>547.61</ele><time>2014-05-03T10:51:02Z</time></trkpt><trkpt lat="49.6447664313" lon="12.4080714863"><ele>547.61</ele><time>2014-05-03T10:51:03Z</time></trkpt><trkpt lat="49.6447681915" lon="12.4080794491"><ele>547.61</ele><time>2014-05-03T10:51:04Z</time></trkpt><trkpt lat="49.6447699517" lon="12.4080865737"><ele>547.61</ele><time>2014-05-03T10:51:05Z</time></trkpt><trkpt lat="49.6447724663" lon="12.4080934469"><ele>547.61</ele><time>2014-05-03T10:51:06Z</time></trkpt><trkpt lat="49.6447745617" lon="12.4081016611"><ele>547.61</ele><time>2014-05-03T10:51:07Z</time></trkpt><trkpt lat="49.6447774116" lon="12.4081077799"><ele>547.61</ele><time>2014-05-03T10:51:08Z</time></trkpt><trkpt lat="49.6447807644" lon="12.4081122223"><ele>547.61</ele><time>2014-05-03T10:51:09Z</time></trkpt><trkpt lat="49.6447847877" lon="12.4081162456"><ele>547.61</ele><time>2014-05-03T10:51:10Z</time></trkpt><trkpt lat="49.6447885595" lon="12.4081185926"><ele>548.09</ele><time>2014-05-03T10:51:11Z</time></trkpt><trkpt lat="49.6447900683" lon="12.4081172515"><ele>547.61</ele><time>2014-05-03T10:51:12Z</time></trkpt><trkpt lat="49.6447954327" lon="12.4081121385"><ele>547.61</ele><time>2014-05-03T10:51:15Z</time></trkpt><trkpt lat="49.6447975282" lon="12.4081105459"><ele>547.61</ele><time>2014-05-03T10:51:16Z</time></trkpt><trkpt lat="49.6447989531" lon="12.4081092048"><ele>548.09</ele><time>2014-05-03T10:51:17Z</time></trkpt><trkpt lat="49.6448032279" lon="12.4081083667"><ele>547.61</ele><time>2014-05-03T10:51:18Z</time></trkpt><trkpt lat="49.6448085085" lon="12.4081069417"><ele>547.61</ele><time>2014-05-03T10:51:19Z</time></trkpt><trkpt lat="49.6448101010" lon="12.4081051815"><ele>547.61</ele><time>2014-05-03T10:51:20Z</time></trkpt><trkpt lat="49.6448138729" lon="12.4081055168"><ele>547.61</ele><time>2014-05-03T10:51:21Z</time></trkpt><trkpt lat="49.6448160522" lon="12.4081077799"><ele>547.61</ele><time>2014-05-03T10:51:22Z</time></trkpt><trkpt lat="49.6448180638" lon="12.4081108812"><ele>547.61</ele><time>2014-05-03T10:51:23Z</time></trkpt><trkpt lat="49.6448197402" lon="12.4081129767"><ele>547.61</ele><time>2014-05-03T10:51:24Z</time></trkpt><trkpt lat="49.6448204946" lon="12.4081175867"><ele>547.61</ele><time>2014-05-03T10:51:25Z</time></trkpt><trkpt lat="49.6448227577" lon="12.4081213586"><ele>547.61</ele><time>2014-05-03T10:51:26Z</time></trkpt><trkpt lat="49.6448262781" lon="12.4081242923"><ele>547.61</ele><time>2014-05-03T10:51:27Z</time></trkpt><trkpt lat="49.6448295470" lon="12.4081247952"><ele>547.61</ele><time>2014-05-03T10:51:28Z</time></trkpt><trkpt lat="49.6448337380" lon="12.4081248790"><ele>547.61</ele><time>2014-05-03T10:51:29Z</time></trkpt><trkpt lat="49.6448380128" lon="12.4081231188"><ele>547.61</ele><time>2014-05-03T10:51:30Z</time></trkpt><trkpt lat="49.6448469814" lon="12.4081166647"><ele>547.61</ele><time>2014-05-03T10:51:31Z</time></trkpt><trkpt lat="49.6448542736" lon="12.4081119709"><ele>547.61</ele><time>2014-05-03T10:51:32Z</time></trkpt><trkpt lat="49.6448604763" lon="12.4081085343"><ele>547.61</ele><time>2014-05-03T10:51:33Z</time></trkpt><trkpt lat="49.6448666789" lon="12.4081037566"><ele>547.61</ele><time>2014-05-03T10:51:34Z</time></trkpt><trkpt lat="49.6448730491" lon="12.4080996495"><ele>547.61</ele><time>2014-05-03T10:51:35Z</time></trkpt><trkpt lat="49.6448784973" lon="12.4080968834"><ele>547.61</ele><time>2014-05-03T10:51:36Z</time></trkpt><trkpt lat="49.6448859572" lon="12.4080966320"><ele>547.61</ele><time>2014-05-03T10:51:37Z</time></trkpt><trkpt lat="49.6448935010" lon="12.4081019964"><ele>547.61</ele><time>2014-05-03T10:51:38Z</time></trkpt><trkpt lat="49.6448991168" lon="12.4081133120"><ele>547.61</ele><time>2014-05-03T10:51:39Z</time></trkpt><trkpt lat="49.6449009608" lon="12.4081301596"><ele>547.61</ele><time>2014-05-03T10:51:40Z</time></trkpt><trkpt lat="49.6449002065" lon="12.4081491865"><ele>547.61</ele><time>2014-05-03T10:51:41Z</time></trkpt><trkpt lat="49.6448978595" lon="12.4081678782"><ele>547.61</ele><time>2014-05-03T10:51:42Z</time></trkpt><trkpt lat="49.6448951773" lon="12.4081857316"><ele>547.61</ele><time>2014-05-03T10:51:43Z</time></trkpt><trkpt lat="49.6448920760" lon="12.4082019087"><ele>547.61</ele><time>2014-05-03T10:51:44Z</time></trkpt><trkpt lat="49.6448894776" lon="12.4082189240"><ele>547.61</ele><time>2014-05-03T10:51:45Z</time></trkpt><trkpt lat="49.6448867116" lon="12.4082371127"><ele>547.61</ele><time>2014-05-03T10:51:46Z</time></trkpt><trkpt lat="49.6448826883" lon="12.4082514457"><ele>547.61</ele><time>2014-05-03T10:51:47Z</time></trkpt><trkpt lat="49.6448768210" lon="12.4082643539"><ele>547.61</ele><time>2014-05-03T10:51:48Z</time></trkpt><trkpt lat="49.6448720433" lon="12.4082762562"><ele>547.61</ele><time>2014-05-03T10:51:49Z</time></trkpt><trkpt lat="49.6448677685" lon="12.4082858954"><ele>547.61</ele><time>2014-05-03T10:51:50Z</time></trkpt><trkpt lat="49.6448635776" lon="12.4082939420"><ele>547.61</ele><time>2014-05-03T10:51:51Z</time></trkpt><trkpt lat="49.6448592190" lon="12.4083017372"><ele>547.61</ele><time>2014-05-03T10:51:52Z</time></trkpt><trkpt lat="49.6448545251" lon="12.4083093647"><ele>547.61</ele><time>2014-05-03T10:51:53Z</time></trkpt><trkpt lat="49.6448507532" lon="12.4083167408"><ele>547.61</ele><time>2014-05-03T10:51:54Z</time></trkpt><trkpt lat="49.6448474843" lon="12.4083256256"><ele>547.61</ele><time>2014-05-03T10:51:55Z</time></trkpt><trkpt lat="49.6448444668" lon="12.4083338398"><ele>547.61</ele><time>2014-05-03T10:51:56Z</time></trkpt><trkpt lat="49.6448394377" lon="12.4083400425"><ele>547.61</ele><time>2014-05-03T10:51:57Z</time></trkpt><trkpt lat="49.6448347438" lon="12.4083460774"><ele>547.61</ele><time>2014-05-03T10:51:58Z</time></trkpt><trkpt lat="49.6448302176" lon="12.4083519448"><ele>547.61</ele><time>2014-05-03T10:51:59Z</time></trkpt><trkpt lat="49.6448257752" lon="12.4083574768"><ele>547.61</ele><time>2014-05-03T10:52:00Z</time></trkpt><trkpt lat="49.6448215004" lon="12.4083624221"><ele>547.61</ele><time>2014-05-03T10:52:01Z</time></trkpt><trkpt lat="49.6448168904" lon="12.4083660264"><ele>547.61</ele><time>2014-05-03T10:52:02Z</time></trkpt><trkpt lat="49.6448118612" lon="12.4083682057"><ele>547.61</ele><time>2014-05-03T10:52:03Z</time></trkpt><trkpt lat="49.6448068321" lon="12.4083694629"><ele>547.61</ele><time>2014-05-03T10:52:04Z</time></trkpt><trkpt lat="49.6448013000" lon="12.4083678704"><ele>547.61</ele><time>2014-05-03T10:52:05Z</time></trkpt><trkpt lat="49.6447981149" lon="12.4083680380"><ele>547.61</ele><time>2014-05-03T10:52:06Z</time></trkpt><trkpt lat="49.6447941754" lon="12.4083681218"><ele>547.61</ele><time>2014-05-03T10:52:07Z</time></trkpt><trkpt lat="49.6447878052" lon="12.4083677866"><ele>547.61</ele><time>2014-05-03T10:52:08Z</time></trkpt><trkpt lat="49.6447814349" lon="12.4083671160"><ele>547.61</ele><time>2014-05-03T10:52:09Z</time></trkpt><trkpt lat="49.6447760705" lon="12.4083678704"><ele>547.61</ele><time>2014-05-03T10:52:10Z</time></trkpt><trkpt lat="49.6447720472" lon="12.4083702173"><ele>547.61</ele><time>2014-05-03T10:52:11Z</time></trkpt><trkpt lat="49.6447686944" lon="12.4083750788"><ele>547.61</ele><time>2014-05-03T10:52:12Z</time></trkpt><trkpt lat="49.6447651740" lon="12.4083821196"><ele>547.61</ele><time>2014-05-03T10:52:13Z</time></trkpt><trkpt lat="49.6447628271" lon="12.4083904177"><ele>547.61</ele><time>2014-05-03T10:52:14Z</time></trkpt><trkpt lat="49.6447614022" lon="12.4083983805"><ele>547.61</ele><time>2014-05-03T10:52:15Z</time></trkpt><trkpt lat="49.6447597258" lon="12.4084047507"><ele>547.61</ele><time>2014-05-03T10:52:16Z</time></trkpt><trkpt lat="49.6447583009" lon="12.4084093608"><ele>547.13</ele><time>2014-05-03T10:52:17Z</time></trkpt><trkpt lat="49.6447567921" lon="12.4084130488"><ele>547.61</ele><time>2014-05-03T10:52:18Z</time></trkpt><trkpt lat="49.6447545290" lon="12.4084174912"><ele>547.61</ele><time>2014-05-03T10:52:19Z</time></trkpt><trkpt lat="49.6447520982" lon="12.4084220175"><ele>547.61</ele><time>2014-05-03T10:52:20Z</time></trkpt><trkpt lat="49.6447495837" lon="12.4084265437"><ele>547.61</ele><time>2014-05-03T10:52:21Z</time></trkpt><trkpt lat="49.6447474044" lon="12.4084321596"><ele>547.61</ele><time>2014-05-03T10:52:22Z</time></trkpt><trkpt lat="49.6447448898" lon="12.4084331654"><ele>547.61</ele><time>2014-05-03T10:52:23Z</time></trkpt><trkpt lat="49.6447420400" lon="12.4084338360"><ele>547.61</ele><time>2014-05-03T10:52:24Z</time></trkpt><trkpt lat="49.6447386872" lon="12.4084348418"><ele>547.13</ele><time>2014-05-03T10:52:25Z</time></trkpt><trkpt lat="49.6447349153" lon="12.4084360991"><ele>547.61</ele><time>2014-05-03T10:52:26Z</time></trkpt><trkpt lat="49.6447329037" lon="12.4084377754"><ele>547.13</ele><time>2014-05-03T10:52:27Z</time></trkpt><trkpt lat="49.6447324008" lon="12.4084397033"><ele>547.61</ele><time>2014-05-03T10:52:28Z</time></trkpt><trkpt lat="49.6447329037" lon="12.4084424693"><ele>547.61</ele><time>2014-05-03T10:52:29Z</time></trkpt><trkpt lat="49.6447318140" lon="12.4084454868"><ele>547.13</ele><time>2014-05-03T10:52:30Z</time></trkpt><trkpt lat="49.6447313949" lon="12.4084454030"><ele>547.13</ele><time>2014-05-03T10:52:31Z</time></trkpt><trkpt lat="49.6447267011" lon="12.4084481690"><ele>547.61</ele><time>2014-05-03T10:52:32Z</time></trkpt><trkpt lat="49.6447202470" lon="12.4084521923"><ele>547.61</ele><time>2014-05-03T10:52:33Z</time></trkpt><trkpt lat="49.6447137929" lon="12.4084557127"><ele>547.13</ele><time>2014-05-03T10:52:34Z</time></trkpt><trkpt lat="49.6447068360" lon="12.4084590655"><ele>547.13</ele><time>2014-05-03T10:52:35Z</time></trkpt><trkpt lat="49.6447000466" lon="12.4084602389"><ele>547.61</ele><time>2014-05-03T10:52:36Z</time></trkpt><trkpt lat="49.6446958557" lon="12.4084616639"><ele>547.61</ele><time>2014-05-03T10:52:37Z</time></trkpt><trkpt lat="49.6446923353" lon="12.4084667768"><ele>547.61</ele><time>2014-05-03T10:52:38Z</time></trkpt><trkpt lat="49.6446894016" lon="12.4084733985"><ele>547.61</ele><time>2014-05-03T10:52:39Z</time></trkpt><trkpt lat="49.6446853783" lon="12.4084802717"><ele>547.61</ele><time>2014-05-03T10:52:40Z</time></trkpt><trkpt lat="49.6446808521" lon="12.4084859714"><ele>547.61</ele><time>2014-05-03T10:52:41Z</time></trkpt><trkpt lat="49.6446764935" lon="12.4084888212"><ele>547.61</ele><time>2014-05-03T10:52:42Z</time></trkpt><trkpt lat="49.6446732245" lon="12.4084896594"><ele>547.61</ele><time>2014-05-03T10:52:43Z</time></trkpt><trkpt lat="49.6446712129" lon="12.4084861390"><ele>547.61</ele><time>2014-05-03T10:52:44Z</time></trkpt><trkpt lat="49.6446702071" lon="12.4084810261"><ele>547.61</ele><time>2014-05-03T10:52:45Z</time></trkpt><trkpt lat="49.6446727216" lon="12.4084773380"><ele>547.61</ele><time>2014-05-03T10:52:46Z</time></trkpt><trkpt lat="49.6446747333" lon="12.4084752426"><ele>547.61</ele><time>2014-05-03T10:52:47Z</time></trkpt><trkpt lat="49.6446764935" lon="12.4084738176"><ele>547.61</ele><time>2014-05-03T10:52:48Z</time></trkpt><trkpt lat="49.6446763258" lon="12.4084801041"><ele>547.61</ele><time>2014-05-03T10:52:49Z</time></trkpt><trkpt lat="49.6446770802" lon="12.4084848817"><ele>547.61</ele><time>2014-05-03T10:52:50Z</time></trkpt><trkpt lat="49.6446792595" lon="12.4084908329"><ele>547.61</ele><time>2014-05-03T10:52:51Z</time></trkpt><trkpt lat="49.6446818579" lon="12.4084985442"><ele>547.61</ele><time>2014-05-03T10:52:52Z</time></trkpt><trkpt lat="49.6446855459" lon="12.4085056689"><ele>547.61</ele><time>2014-05-03T10:52:53Z</time></trkpt><trkpt lat="49.6446885634" lon="12.4085107818"><ele>547.61</ele><time>2014-05-03T10:52:54Z</time></trkpt><trkpt lat="49.6446915809" lon="12.4085126258"><ele>547.61</ele><time>2014-05-03T10:52:55Z</time></trkpt><trkpt lat="49.6446951013" lon="12.4085140508"><ele>547.61</ele><time>2014-05-03T10:52:56Z</time></trkpt><trkpt lat="49.6446986217" lon="12.4085162301"><ele>547.61</ele><time>2014-05-03T10:52:57Z</time></trkpt><trkpt lat="49.6447015554" lon="12.4085188285"><ele>547.61</ele><time>2014-05-03T10:52:58Z</time></trkpt><trkpt lat="49.6447219234" lon="12.4084929284"><ele>547.61</ele><time>2014-05-03T10:52:59Z</time></trkpt><trkpt lat="49.6447307244" lon="12.4084849656"><ele>547.61</ele><time>2014-05-03T10:53:00Z</time></trkpt><trkpt lat="49.6447331551" lon="12.4084857199"><ele>547.61</ele><time>2014-05-03T10:53:01Z</time></trkpt><trkpt lat="49.6447339095" lon="12.4084821995"><ele>547.61</ele><time>2014-05-03T10:53:02Z</time></trkpt><trkpt lat="49.6447349153" lon="12.4084794335"><ele>547.61</ele><time>2014-05-03T10:53:03Z</time></trkpt><trkpt lat="49.6447366755" lon="12.4084754102"><ele>547.61</ele><time>2014-05-03T10:53:04Z</time></trkpt><trkpt lat="49.6447438840" lon="12.4084723927"><ele>547.61</ele><time>2014-05-03T10:53:05Z</time></trkpt><trkpt lat="49.6447514277" lon="12.4084703811"><ele>547.61</ele><time>2014-05-03T10:53:06Z</time></trkpt><trkpt lat="49.6447590552" lon="12.4084682018"><ele>547.61</ele><time>2014-05-03T10:53:07Z</time></trkpt><trkpt lat="49.6447753999" lon="12.4084495939"><ele>547.61</ele><time>2014-05-03T10:53:08Z</time></trkpt><trkpt lat="49.6447907388" lon="12.4084303994"><ele>547.61</ele><time>2014-05-03T10:53:09Z</time></trkpt><trkpt lat="49.6448049881" lon="12.4084140547"><ele>547.61</ele><time>2014-05-03T10:53:10Z</time></trkpt><trkpt lat="49.6448159683" lon="12.4084019847"><ele>547.61</ele><time>2014-05-03T10:53:11Z</time></trkpt><trkpt lat="49.6448236797" lon="12.4083903339"><ele>547.61</ele><time>2014-05-03T10:53:12Z</time></trkpt><trkpt lat="49.6448261943" lon="12.4083822872"><ele>547.61</ele><time>2014-05-03T10:53:13Z</time></trkpt><trkpt lat="49.6448434610" lon="12.4083298165"><ele>547.61</ele><time>2014-05-03T10:53:19Z</time></trkpt><trkpt lat="49.6448468138" lon="12.4083213508"><ele>547.61</ele><time>2014-05-03T10:53:20Z</time></trkpt><trkpt lat="49.6448490769" lon="12.4083152320"><ele>547.61</ele><time>2014-05-03T10:53:21Z</time></trkpt><trkpt lat="49.6448508371" lon="12.4083102867"><ele>547.61</ele><time>2014-05-03T10:53:22Z</time></trkpt><trkpt lat="49.6448535193" lon="12.4083036650"><ele>547.61</ele><time>2014-05-03T10:53:23Z</time></trkpt><trkpt lat="49.6448550280" lon="12.4082975462"><ele>547.61</ele><time>2014-05-03T10:53:24Z</time></trkpt><trkpt lat="49.6448569559" lon="12.4082929362"><ele>547.61</ele><time>2014-05-03T10:53:25Z</time></trkpt><trkpt lat="49.6448586322" lon="12.4082827941"><ele>547.61</ele><time>2014-05-03T10:53:26Z</time></trkpt><trkpt lat="49.6448603924" lon="12.4082738254"><ele>547.61</ele><time>2014-05-03T10:53:27Z</time></trkpt><trkpt lat="49.6448613983" lon="12.4082676228"><ele>547.61</ele><time>2014-05-03T10:53:28Z</time></trkpt><trkpt lat="49.6448630746" lon="12.4082643539"><ele>547.61</ele><time>2014-05-03T10:53:29Z</time></trkpt><trkpt lat="49.6448634099" lon="12.4082550500"><ele>547.61</ele><time>2014-05-03T10:53:30Z</time></trkpt><trkpt lat="49.6448629070" lon="12.4082455784"><ele>547.61</ele><time>2014-05-03T10:53:31Z</time></trkpt><trkpt lat="49.6448616497" lon="12.4082370289"><ele>547.61</ele><time>2014-05-03T10:53:32Z</time></trkpt><trkpt lat="49.6448590513" lon="12.4082321674"><ele>547.61</ele><time>2014-05-03T10:53:33Z</time></trkpt><trkpt lat="49.6448538546" lon="12.4082293175"><ele>547.61</ele><time>2014-05-03T10:53:34Z</time></trkpt><trkpt lat="49.6448470652" lon="12.4082279764"><ele>547.61</ele><time>2014-05-03T10:53:35Z</time></trkpt><trkpt lat="49.6448396053" lon="12.4082269706"><ele>547.61</ele><time>2014-05-03T10:53:36Z</time></trkpt><trkpt lat="49.6448316425" lon="12.4082254618"><ele>547.61</ele><time>2014-05-03T10:53:37Z</time></trkpt><trkpt lat="49.6448224224" lon="12.4082261324"><ele>547.61</ele><time>2014-05-03T10:53:38Z</time></trkpt><trkpt lat="49.6448121127" lon="12.4082269706"><ele>547.61</ele><time>2014-05-03T10:53:39Z</time></trkpt><trkpt lat="49.6448018029" lon="12.4082277250"><ele>547.61</ele><time>2014-05-03T10:53:40Z</time></trkpt><trkpt lat="49.6447914932" lon="12.4082284793"><ele>547.61</ele><time>2014-05-03T10:53:41Z</time></trkpt><trkpt lat="49.6447812673" lon="12.4082292337"><ele>547.61</ele><time>2014-05-03T10:53:42Z</time></trkpt><trkpt lat="49.6447709575" lon="12.4082299881"><ele>547.61</ele><time>2014-05-03T10:53:43Z</time></trkpt><trkpt lat="49.6447606478" lon="12.4082308263"><ele>547.61</ele><time>2014-05-03T10:53:44Z</time></trkpt><trkpt lat="49.6447504219" lon="12.4082315806"><ele>547.61</ele><time>2014-05-03T10:53:45Z</time></trkpt><trkpt lat="49.6447401121" lon="12.4082323350"><ele>547.61</ele><time>2014-05-03T10:53:46Z</time></trkpt><trkpt lat="49.6447298024" lon="12.4082330894"><ele>547.61</ele><time>2014-05-03T10:53:47Z</time></trkpt><trkpt lat="49.6447194926" lon="12.4082338437"><ele>547.61</ele><time>2014-05-03T10:53:48Z</time></trkpt><trkpt lat="49.6447091829" lon="12.4082346819"><ele>547.61</ele><time>2014-05-03T10:53:49Z</time></trkpt><trkpt lat="49.6446989570" lon="12.4082354363"><ele>547.61</ele><time>2014-05-03T10:53:50Z</time></trkpt><trkpt lat="49.6446886472" lon="12.4082361907"><ele>547.61</ele><time>2014-05-03T10:53:51Z</time></trkpt><trkpt lat="49.6446784213" lon="12.4082369450"><ele>547.61</ele><time>2014-05-03T10:53:52Z</time></trkpt><trkpt lat="49.6446827799" lon="12.4082304072"><ele>547.61</ele><time>2014-05-03T10:53:53Z</time></trkpt><trkpt lat="49.6446754038" lon="12.4082229473"><ele>547.61</ele><time>2014-05-03T10:53:54Z</time></trkpt><trkpt lat="49.6446660999" lon="12.4082203489"><ele>547.61</ele><time>2014-05-03T10:53:55Z</time></trkpt><trkpt lat="49.6446621604" lon="12.4082102906"><ele>547.61</ele><time>2014-05-03T10:53:56Z</time></trkpt><trkpt lat="49.6446618252" lon="12.4081954546"><ele>548.09</ele><time>2014-05-03T10:53:57Z</time></trkpt><trkpt lat="49.6446627472" lon="12.4081815407"><ele>547.61</ele><time>2014-05-03T10:53:58Z</time></trkpt><trkpt lat="49.6446651779" lon="12.4081665371"><ele>547.61</ele><time>2014-05-03T10:53:59Z</time></trkpt><trkpt lat="49.6446681116" lon="12.4081519525"><ele>547.61</ele><time>2014-05-03T10:54:00Z</time></trkpt><trkpt lat="49.6446712967" lon="12.4081384577"><ele>547.61</ele><time>2014-05-03T10:54:01Z</time></trkpt><trkpt lat="49.6446738951" lon="12.4081258010"><ele>547.61</ele><time>2014-05-03T10:54:02Z</time></trkpt><trkpt lat="49.6446762420" lon="12.4081133120"><ele>547.61</ele><time>2014-05-03T10:54:03Z</time></trkpt><trkpt lat="49.6446803492" lon="12.4080991466"><ele>547.61</ele><time>2014-05-03T10:54:04Z</time></trkpt><trkpt lat="49.6446811035" lon="12.4080862384"><ele>547.61</ele><time>2014-05-03T10:54:05Z</time></trkpt><trkpt lat="49.6446811873" lon="12.4080716539"><ele>547.61</ele><time>2014-05-03T10:54:06Z</time></trkpt><trkpt lat="49.6446803492" lon="12.4080585781"><ele>547.61</ele><time>2014-05-03T10:54:07Z</time></trkpt><trkpt lat="49.6446803492" lon="12.4080468435"><ele>547.61</ele><time>2014-05-03T10:54:08Z</time></trkpt><trkpt lat="49.6446806006" lon="12.4080361146"><ele>547.61</ele><time>2014-05-03T10:54:09Z</time></trkpt><trkpt lat="49.6446859650" lon="12.4080229551"><ele>547.61</ele><time>2014-05-03T10:54:10Z</time></trkpt><trkpt lat="49.6446903236" lon="12.4080098793"><ele>547.61</ele><time>2014-05-03T10:54:11Z</time></trkpt><trkpt lat="49.6446982026" lon="12.4079955462"><ele>547.61</ele><time>2014-05-03T10:54:12Z</time></trkpt><trkpt lat="49.6447026450" lon="12.4079812970"><ele>547.61</ele><time>2014-05-03T10:54:13Z</time></trkpt><trkpt lat="49.6447049920" lon="12.4079677183"><ele>547.61</ele><time>2014-05-03T10:54:14Z</time></trkpt><trkpt lat="49.6447094344" lon="12.4079540558"><ele>547.61</ele><time>2014-05-03T10:54:15Z</time></trkpt><trkpt lat="49.6447178163" lon="12.4079406448"><ele>547.61</ele><time>2014-05-03T10:54:16Z</time></trkpt><trkpt lat="49.6447251923" lon="12.4079289101"><ele>547.61</ele><time>2014-05-03T10:54:17Z</time></trkpt><trkpt lat="49.6447344124" lon="12.4079175945"><ele>547.61</ele><time>2014-05-03T10:54:18Z</time></trkpt><trkpt lat="49.6447446384" lon="12.4079055246"><ele>547.61</ele><time>2014-05-03T10:54:19Z</time></trkpt><trkpt lat="49.6447533555" lon="12.4078946281"><ele>547.61</ele><time>2014-05-03T10:54:20Z</time></trkpt><trkpt lat="49.6447617374" lon="12.4078844022"><ele>547.61</ele><time>2014-05-03T10:54:21Z</time></trkpt><trkpt lat="49.6447710413" lon="12.4078754336"><ele>547.61</ele><time>2014-05-03T10:54:22Z</time></trkpt><trkpt lat="49.6447815187" lon="12.4078669678"><ele>547.61</ele><time>2014-05-03T10:54:23Z</time></trkpt><trkpt lat="49.6447907388" lon="12.4078574125"><ele>547.61</ele><time>2014-05-03T10:54:24Z</time></trkpt><trkpt lat="49.6448002104" lon="12.4078491982"><ele>547.61</ele><time>2014-05-03T10:54:25Z</time></trkpt><trkpt lat="49.6448084246" lon="12.4078433309"><ele>547.61</ele><time>2014-05-03T10:54:26Z</time></trkpt><trkpt lat="49.6448149625" lon="12.4078403972"><ele>547.61</ele><time>2014-05-03T10:54:27Z</time></trkpt><trkpt lat="49.6448169742" lon="12.4078394752"><ele>547.61</ele><time>2014-05-03T10:54:28Z</time></trkpt><trkpt lat="49.6448160522" lon="12.4078448396"><ele>547.61</ele><time>2014-05-03T10:54:29Z</time></trkpt><trkpt lat="49.6448165551" lon="12.4078489468"><ele>547.61</ele><time>2014-05-03T10:54:30Z</time></trkpt><trkpt lat="49.6448182315" lon="12.4078532215"><ele>547.61</ele><time>2014-05-03T10:54:31Z</time></trkpt><trkpt lat="49.6448211651" lon="12.4078600109"><ele>547.61</ele><time>2014-05-03T10:54:33Z</time></trkpt><trkpt lat="49.6448235121" lon="12.4078641180"><ele>547.61</ele><time>2014-05-03T10:54:34Z</time></trkpt><trkpt lat="49.6448247693" lon="12.4078669678"><ele>547.61</ele><time>2014-05-03T10:54:35Z</time></trkpt><trkpt lat="49.6448285412" lon="12.4078704044"><ele>547.61</ele><time>2014-05-03T10:54:36Z</time></trkpt><trkpt lat="49.6448352467" lon="12.4078773614"><ele>547.61</ele><time>2014-05-03T10:54:37Z</time></trkpt><trkpt lat="49.6448421199" lon="12.4078843184"><ele>548.09</ele><time>2014-05-03T10:54:38Z</time></trkpt><trkpt lat="49.6448460594" lon="12.4078927841"><ele>547.61</ele><time>2014-05-03T10:54:39Z</time></trkpt><trkpt lat="49.6448532678" lon="12.4078983162"><ele>547.61</ele><time>2014-05-03T10:54:40Z</time></trkpt><trkpt lat="49.6448600572" lon="12.4079009984"><ele>547.61</ele><time>2014-05-03T10:54:41Z</time></trkpt><trkpt lat="49.6448635776" lon="12.4079035968"><ele>547.61</ele><time>2014-05-03T10:54:42Z</time></trkpt><trkpt lat="49.6448965184" lon="12.4079263955"><ele>547.61</ele><time>2014-05-03T10:54:50Z</time></trkpt><trkpt lat="49.6448968537" lon="12.4079299998"><ele>547.61</ele><time>2014-05-03T10:54:51Z</time></trkpt><trkpt lat="49.6448973566" lon="12.4079253059"><ele>548.09</ele><time>2014-05-03T10:54:52Z</time></trkpt><trkpt lat="49.6448984463" lon="12.4079196900"><ele>547.61</ele><time>2014-05-03T10:54:53Z</time></trkpt><trkpt lat="49.6448999550" lon="12.4079138227"><ele>547.61</ele><time>2014-05-03T10:54:54Z</time></trkpt><trkpt lat="49.6449001227" lon="12.4079100508"><ele>547.61</ele><time>2014-05-03T10:54:55Z</time></trkpt><trkpt lat="49.6449018829" lon="12.4079069495"><ele>547.61</ele><time>2014-05-03T10:54:56Z</time></trkpt><trkpt lat="49.6449060738" lon="12.4079027586"><ele>547.61</ele><time>2014-05-03T10:54:57Z</time></trkpt><trkpt lat="49.6449079178" lon="12.4078998249"><ele>547.61</ele><time>2014-05-03T10:54:58Z</time></trkpt><trkpt lat="49.6449117735" lon="12.4078971427"><ele>547.61</ele><time>2014-05-03T10:54:59Z</time></trkpt><trkpt lat="49.6449163835" lon="12.4078931194"><ele>547.61</ele><time>2014-05-03T10:55:00Z</time></trkpt><trkpt lat="49.6449193172" lon="12.4078880902"><ele>547.61</ele><time>2014-05-03T10:55:01Z</time></trkpt><trkpt lat="49.6449223347" lon="12.4078841507"><ele>547.61</ele><time>2014-05-03T10:55:02Z</time></trkpt><trkpt lat="49.6449230891" lon="12.4078807142"><ele>547.61</ele><time>2014-05-03T10:55:03Z</time></trkpt><trkpt lat="49.6449233405" lon="12.4078790378"><ele>547.61</ele><time>2014-05-03T10:55:04Z</time></trkpt><trkpt lat="49.6449230053" lon="12.4078776129"><ele>547.61</ele><time>2014-05-03T10:55:05Z</time></trkpt><trkpt lat="49.6449224185" lon="12.4078756850"><ele>548.09</ele><time>2014-05-03T10:55:06Z</time></trkpt><trkpt lat="49.6449222509" lon="12.4078746792"><ele>547.61</ele><time>2014-05-03T10:55:07Z</time></trkpt><trkpt lat="49.6449243464" lon="12.4078748468"><ele>547.61</ele><time>2014-05-03T10:55:08Z</time></trkpt><trkpt lat="49.6449255198" lon="12.4078762718"><ele>547.61</ele><time>2014-05-03T10:55:09Z</time></trkpt><trkpt lat="49.6449247655" lon="12.4078776967"><ele>548.09</ele><time>2014-05-03T10:55:10Z</time></trkpt><trkpt lat="49.6449247655" lon="12.4078785349"><ele>547.61</ele><time>2014-05-03T10:55:11Z</time></trkpt><trkpt lat="49.6449256875" lon="12.4078839831"><ele>547.61</ele><time>2014-05-03T10:55:12Z</time></trkpt><trkpt lat="49.6449267771" lon="12.4078897666"><ele>547.61</ele><time>2014-05-03T10:55:13Z</time></trkpt><trkpt lat="49.6449277829" lon="12.4078955501"><ele>548.09</ele><time>2014-05-03T10:55:14Z</time></trkpt><trkpt lat="49.6449288726" lon="12.4079013336"><ele>547.61</ele><time>2014-05-03T10:55:15Z</time></trkpt><trkpt lat="49.6449298784" lon="12.4079069495"><ele>547.61</ele><time>2014-05-03T10:55:16Z</time></trkpt><trkpt lat="49.6449308842" lon="12.4079127330"><ele>548.09</ele><time>2014-05-03T10:55:17Z</time></trkpt><trkpt lat="49.6449318901" lon="12.4079185165"><ele>547.61</ele><time>2014-05-03T10:55:18Z</time></trkpt><trkpt lat="49.6449329797" lon="12.4079243001"><ele>547.61</ele><time>2014-05-03T10:55:19Z</time></trkpt><trkpt lat="49.6449339855" lon="12.4079300836"><ele>547.61</ele><time>2014-05-03T10:55:20Z</time></trkpt><trkpt lat="49.6449350752" lon="12.4079358671"><ele>547.61</ele><time>2014-05-03T10:55:21Z</time></trkpt><trkpt lat="49.6449360810" lon="12.4079416506"><ele>547.61</ele><time>2014-05-03T10:55:22Z</time></trkpt><trkpt lat="49.6449370869" lon="12.4079475179"><ele>547.61</ele><time>2014-05-03T10:55:23Z</time></trkpt><trkpt lat="49.6449381765" lon="12.4079533014"><ele>547.61</ele><time>2014-05-03T10:55:24Z</time></trkpt><trkpt lat="49.6449391823" lon="12.4079590850"><ele>547.61</ele><time>2014-05-03T10:55:25Z</time></trkpt><trkpt lat="49.6449402720" lon="12.4079648685"><ele>547.61</ele><time>2014-05-03T10:55:26Z</time></trkpt><trkpt lat="49.6449412778" lon="12.4079706520"><ele>547.61</ele><time>2014-05-03T10:55:27Z</time></trkpt><trkpt lat="49.6449422836" lon="12.4079764355"><ele>547.61</ele><time>2014-05-03T10:55:28Z</time></trkpt><trkpt lat="49.6449433733" lon="12.4079822190"><ele>548.09</ele><time>2014-05-03T10:55:29Z</time></trkpt><trkpt lat="49.6449443791" lon="12.4079880025"><ele>548.09</ele><time>2014-05-03T10:55:30Z</time></trkpt><trkpt lat="49.6449454688" lon="12.4079937860"><ele>547.61</ele><time>2014-05-03T10:55:31Z</time></trkpt><trkpt lat="49.6449464746" lon="12.4079996534"><ele>547.61</ele><time>2014-05-03T10:55:32Z</time></trkpt><trkpt lat="49.6449474804" lon="12.4080054369"><ele>548.09</ele><time>2014-05-03T10:55:33Z</time></trkpt><trkpt lat="49.6449485701" lon="12.4080112204"><ele>547.61</ele><time>2014-05-03T10:55:34Z</time></trkpt><trkpt lat="49.6449495759" lon="12.4080170039"><ele>548.09</ele><time>2014-05-03T10:55:35Z</time></trkpt><trkpt lat="49.6449506655" lon="12.4080227874"><ele>547.61</ele><time>2014-05-03T10:55:36Z</time></trkpt><trkpt lat="49.6449516714" lon="12.4080285709"><ele>547.61</ele><time>2014-05-03T10:55:37Z</time></trkpt><trkpt lat="49.6449526772" lon="12.4080343544"><ele>547.61</ele><time>2014-05-03T10:55:38Z</time></trkpt><trkpt lat="49.6449537668" lon="12.4080401380"><ele>548.09</ele><time>2014-05-03T10:55:39Z</time></trkpt><trkpt lat="49.6449547727" lon="12.4080460053"><ele>548.09</ele><time>2014-05-03T10:55:40Z</time></trkpt><trkpt lat="49.6449558623" lon="12.4080517888"><ele>548.09</ele><time>2014-05-03T10:55:41Z</time></trkpt></trkseg><trkseg><trkpt lat="49.6450860333" lon="12.4079675507"><ele>547.13</ele><time>2014-05-03T11:20:44Z</time></trkpt><trkpt lat="49.6450833511" lon="12.4079709034"><ele>547.13</ele><time>2014-05-03T11:20:45Z</time></trkpt><trkpt lat="49.6450789925" lon="12.4079625215"><ele>547.13</ele><time>2014-05-03T11:20:46Z</time></trkpt><trkpt lat="49.6450820100" lon="12.4079730827"><ele>547.13</ele><time>2014-05-03T11:20:47Z</time></trkpt><trkpt lat="49.6450867876" lon="12.4079837278"><ele>547.13</ele><time>2014-05-03T11:20:48Z</time></trkpt><trkpt lat="49.6450887993" lon="12.4079959653"><ele>547.13</ele><time>2014-05-03T11:20:49Z</time></trkpt><trkpt lat="49.6450734604" lon="12.4080002401"><ele>547.61</ele><time>2014-05-03T11:20:50Z</time></trkpt><trkpt lat="49.6450054832" lon="12.4081026670"><ele>547.61</ele><time>2014-05-03T11:20:51Z</time></trkpt><trkpt lat="49.6449650824" lon="12.4081541318"><ele>548.09</ele><time>2014-05-03T11:20:52Z</time></trkpt><trkpt lat="49.6449197363" lon="12.4081228673"><ele>547.61</ele><time>2014-05-03T11:21:13Z</time></trkpt><trkpt lat="49.6449179761" lon="12.4081206042"><ele>547.61</ele><time>2014-05-03T11:21:14Z</time></trkpt><trkpt lat="49.6449258551" lon="12.4081703089"><ele>547.13</ele><time>2014-05-03T11:22:36Z</time></trkpt><trkpt lat="49.6449200716" lon="12.4081733264"><ele>547.13</ele><time>2014-05-03T11:22:37Z</time></trkpt><trkpt lat="49.6449152939" lon="12.4081760924"><ele>547.13</ele><time>2014-05-03T11:22:38Z</time></trkpt><trkpt lat="49.6449108515" lon="12.4081852287"><ele>547.13</ele><time>2014-05-03T11:22:40Z</time></trkpt><trkpt lat="49.6449085046" lon="12.4081906769"><ele>547.13</ele><time>2014-05-03T11:22:41Z</time></trkpt><trkpt lat="49.6448966023" lon="12.4082076084"><ele>546.65</ele><time>2014-05-03T11:22:47Z</time></trkpt><trkpt lat="49.6448947582" lon="12.4082143977"><ele>546.65</ele><time>2014-05-03T11:22:48Z</time></trkpt><trkpt lat="49.6448935848" lon="12.4082217738"><ele>546.65</ele><time>2014-05-03T11:22:54Z</time></trkpt><trkpt lat="49.6448950935" lon="12.4082209356"><ele>546.65</ele><time>2014-05-03T11:22:55Z</time></trkpt><trkpt lat="49.6448955126" lon="12.4082206842"><ele>546.65</ele><time>2014-05-03T11:22:56Z</time></trkpt><trkpt lat="49.6448962670" lon="12.4082220253"><ele>546.65</ele><time>2014-05-03T11:22:57Z</time></trkpt><trkpt lat="49.6448943391" lon="12.4082277250"><ele>546.65</ele><time>2014-05-03T11:22:58Z</time></trkpt><trkpt lat="49.6448905673" lon="12.4082342628"><ele>546.65</ele><time>2014-05-03T11:22:59Z</time></trkpt><trkpt lat="49.6448910702" lon="12.4082402978"><ele>546.65</ele><time>2014-05-03T11:23:00Z</time></trkpt><trkpt lat="49.6448909026" lon="12.4082528707"><ele>546.65</ele><time>2014-05-03T11:23:04Z</time></trkpt><trkpt lat="49.6448840294" lon="12.4082568940"><ele>546.65</ele><time>2014-05-03T11:23:05Z</time></trkpt><trkpt lat="49.6448775753" lon="12.4082635157"><ele>546.65</ele><time>2014-05-03T11:23:06Z</time></trkpt><trkpt lat="49.6448730491" lon="12.4082654435"><ele>546.17</ele><time>2014-05-03T11:23:07Z</time></trkpt><trkpt lat="49.6448728815" lon="12.4082656112"><ele>546.17</ele><time>2014-05-03T11:23:12Z</time></trkpt><trkpt lat="49.6448701154" lon="12.4082682095"><ele>546.17</ele><time>2014-05-03T11:23:13Z</time></trkpt><trkpt lat="49.6448708698" lon="12.4082673714"><ele>545.69</ele><time>2014-05-03T11:23:14Z</time></trkpt><trkpt lat="49.6448724624" lon="12.4082638510"><ele>546.17</ele><time>2014-05-03T11:23:15Z</time></trkpt><trkpt lat="49.6448644996" lon="12.4082634319"><ele>546.17</ele><time>2014-05-03T11:23:21Z</time></trkpt><trkpt lat="49.6448634937" lon="12.4082615878"><ele>546.17</ele><time>2014-05-03T11:23:22Z</time></trkpt><trkpt lat="49.6448599733" lon="12.4082666170"><ele>546.17</ele><time>2014-05-03T11:23:52Z</time></trkpt><trkpt lat="49.6448602248" lon="12.4082658626"><ele>546.17</ele><time>2014-05-03T11:23:53Z</time></trkpt><trkpt lat="49.6448621526" lon="12.4082620069"><ele>546.17</ele><time>2014-05-03T11:23:54Z</time></trkpt><trkpt lat="49.6448634099" lon="12.4082599115"><ele>546.17</ele><time>2014-05-03T11:23:55Z</time></trkpt><trkpt lat="49.6448636614" lon="12.4082578998"><ele>546.17</ele><time>2014-05-03T11:23:56Z</time></trkpt><trkpt lat="49.6448641643" lon="12.4082558043"><ele>546.17</ele><time>2014-05-03T11:23:57Z</time></trkpt><trkpt lat="49.6448636614" lon="12.4082558043"><ele>546.17</ele><time>2014-05-03T11:23:58Z</time></trkpt><trkpt lat="49.6448637452" lon="12.4082543794"><ele>546.65</ele><time>2014-05-03T11:24:03Z</time></trkpt><trkpt lat="49.6448636614" lon="12.4082544632"><ele>547.61</ele><time>2014-05-03T11:24:04Z</time></trkpt><trkpt lat="49.6448634937" lon="12.4082516972"><ele>546.17</ele><time>2014-05-03T11:24:09Z</time></trkpt><trkpt lat="49.6448636614" lon="12.4082506914"><ele>546.17</ele><time>2014-05-03T11:24:10Z</time></trkpt><trkpt lat="49.6448641643" lon="12.4082475901"><ele>545.69</ele><time>2014-05-03T11:24:13Z</time></trkpt><trkpt lat="49.6448648348" lon="12.4082473386"><ele>546.17</ele><time>2014-05-03T11:24:14Z</time></trkpt><trkpt lat="49.6448844485" lon="12.4082106259"><ele>545.69</ele><time>2014-05-03T11:26:05Z</time></trkpt><trkpt lat="49.6448780783" lon="12.4082030822"><ele>545.20</ele><time>2014-05-03T11:26:06Z</time></trkpt><trkpt lat="49.6448746417" lon="12.4081917666"><ele>545.20</ele><time>2014-05-03T11:26:07Z</time></trkpt><trkpt lat="49.6448733844" lon="12.4081766792"><ele>545.20</ele><time>2014-05-03T11:26:08Z</time></trkpt><trkpt lat="49.6448770724" lon="12.4081624299"><ele>545.20</ele><time>2014-05-03T11:26:09Z</time></trkpt><trkpt lat="49.6448821854" lon="12.4081522040"><ele>545.69</ele><time>2014-05-03T11:26:10Z</time></trkpt><trkpt lat="49.6448836941" lon="12.4081475101"><ele>545.69</ele><time>2014-05-03T11:26:11Z</time></trkpt><trkpt lat="49.6448790841" lon="12.4081408884"><ele>545.69</ele><time>2014-05-03T11:26:21Z</time></trkpt><trkpt lat="49.6448787488" lon="12.4081404693"><ele>545.69</ele><time>2014-05-03T11:26:22Z</time></trkpt><trkpt lat="49.6448789164" lon="12.4081395473"><ele>545.69</ele><time>2014-05-03T11:26:23Z</time></trkpt><trkpt lat="49.6448786650" lon="12.4081386253"><ele>545.69</ele><time>2014-05-03T11:26:24Z</time></trkpt><trkpt lat="49.6448772401" lon="12.4081163295"><ele>545.69</ele><time>2014-05-03T11:26:25Z</time></trkpt><trkpt lat="49.6448727977" lon="12.4080912676"><ele>545.69</ele><time>2014-05-03T11:26:26Z</time></trkpt><trkpt lat="49.6448623203" lon="12.4080665410"><ele>545.69</ele><time>2014-05-03T11:26:27Z</time></trkpt><trkpt lat="49.6448483225" lon="12.4080387969"><ele>545.20</ele><time>2014-05-03T11:26:28Z</time></trkpt><trkpt lat="49.6448353305" lon="12.4080044311"><ele>545.20</ele><time>2014-05-03T11:26:29Z</time></trkpt><trkpt lat="49.6448209975" lon="12.4079652876"><ele>544.72</ele><time>2014-05-03T11:26:30Z</time></trkpt><trkpt lat="49.6448067483" lon="12.4079249706"><ele>544.72</ele><time>2014-05-03T11:26:31Z</time></trkpt><trkpt lat="49.6447919123" lon="12.4078870006"><ele>544.24</ele><time>2014-05-03T11:26:32Z</time></trkpt><trkpt lat="49.6447782498" lon="12.4078484438"><ele>544.24</ele><time>2014-05-03T11:26:33Z</time></trkpt><trkpt lat="49.6447656769" lon="12.4078076240"><ele>544.24</ele><time>2014-05-03T11:26:34Z</time></trkpt><trkpt lat="49.6447510086" lon="12.4077683967"><ele>543.76</ele><time>2014-05-03T11:26:35Z</time></trkpt><trkpt lat="49.6447339095" lon="12.4077346176"><ele>543.76</ele><time>2014-05-03T11:26:36Z</time></trkpt><trkpt lat="49.6447156370" lon="12.4077004194"><ele>543.76</ele><time>2014-05-03T11:26:37Z</time></trkpt><trkpt lat="49.6446948498" lon="12.4076573364"><ele>543.76</ele><time>2014-05-03T11:26:38Z</time></trkpt><trkpt lat="49.6446735598" lon="12.4076100625"><ele>543.76</ele><time>2014-05-03T11:26:39Z</time></trkpt><trkpt lat="49.6446511801" lon="12.4075615313"><ele>543.76</ele><time>2014-05-03T11:26:40Z</time></trkpt><trkpt lat="49.6446272917" lon="12.4075123295"><ele>543.28</ele><time>2014-05-03T11:26:41Z</time></trkpt><trkpt lat="49.6446040738" lon="12.4074643850"><ele>543.76</ele><time>2014-05-03T11:26:42Z</time></trkpt><trkpt lat="49.6445807721" lon="12.4074148480"><ele>543.28</ele><time>2014-05-03T11:26:43Z</time></trkpt><trkpt lat="49.6445570514" lon="12.4073629640"><ele>543.28</ele><time>2014-05-03T11:26:44Z</time></trkpt><trkpt lat="49.6445322409" lon="12.4073097389"><ele>543.28</ele><time>2014-05-03T11:26:45Z</time></trkpt><trkpt lat="49.6445067599" lon="12.4072576873"><ele>542.80</ele><time>2014-05-03T11:26:46Z</time></trkpt><trkpt lat="49.6444814466" lon="12.4072021153"><ele>542.80</ele><time>2014-05-03T11:26:47Z</time></trkpt><trkpt lat="49.6444537863" lon="12.4071442802"><ele>542.80</ele><time>2014-05-03T11:26:48Z</time></trkpt><trkpt lat="49.6444247011" lon="12.4070852716"><ele>542.80</ele><time>2014-05-03T11:26:49Z</time></trkpt><trkpt lat="49.6443940233" lon="12.4070237484"><ele>542.32</ele><time>2014-05-03T11:26:50Z</time></trkpt><trkpt lat="49.6443655249" lon="12.4069587886"><ele>542.32</ele><time>2014-05-03T11:26:51Z</time></trkpt><trkpt lat="49.6443424746" lon="12.4068877101"><ele>541.84</ele><time>2014-05-03T11:26:52Z</time></trkpt><trkpt lat="49.6443257947" lon="12.4068111833"><ele>541.84</ele><time>2014-05-03T11:26:53Z</time></trkpt><trkpt lat="49.6443135571" lon="12.4067323096"><ele>541.84</ele><time>2014-05-03T11:26:54Z</time></trkpt><trkpt lat="49.6443050914" lon="12.4066549446"><ele>541.84</ele><time>2014-05-03T11:26:55Z</time></trkpt><trkpt lat="49.6443021577" lon="12.4065803457"><ele>541.84</ele><time>2014-05-03T11:26:56Z</time></trkpt><trkpt lat="49.6443009004" lon="12.4065070041"><ele>541.84</ele><time>2014-05-03T11:26:57Z</time></trkpt><trkpt lat="49.6443008166" lon="12.4064365122"><ele>542.32</ele><time>2014-05-03T11:26:58Z</time></trkpt><trkpt lat="49.6442986373" lon="12.4063704628"><ele>541.84</ele><time>2014-05-03T11:26:59Z</time></trkpt><trkpt lat="49.6442953683" lon="12.4063104484"><ele>542.32</ele><time>2014-05-03T11:27:00Z</time></trkpt><trkpt lat="49.6442905907" lon="12.4062526133"><ele>541.84</ele><time>2014-05-03T11:27:01Z</time></trkpt><trkpt lat="49.6442803647" lon="12.4061960354"><ele>541.84</ele><time>2014-05-03T11:27:02Z</time></trkpt><trkpt lat="49.6442729048" lon="12.4061361887"><ele>542.32</ele><time>2014-05-03T11:27:03Z</time></trkpt><trkpt lat="49.6442645229" lon="12.4060769286"><ele>542.32</ele><time>2014-05-03T11:27:04Z</time></trkpt><trkpt lat="49.6442521177" lon="12.4060221948"><ele>542.32</ele><time>2014-05-03T11:27:05Z</time></trkpt><trkpt lat="49.6442380361" lon="12.4059757590"><ele>542.80</ele><time>2014-05-03T11:27:06Z</time></trkpt><trkpt lat="49.6442249604" lon="12.4059396330"><ele>542.80</ele><time>2014-05-03T11:27:07Z</time></trkpt><trkpt lat="49.6442122199" lon="12.4059058540"><ele>542.80</ele><time>2014-05-03T11:27:08Z</time></trkpt><trkpt lat="49.6442014072" lon="12.4058742542"><ele>543.28</ele><time>2014-05-03T11:27:09Z</time></trkpt><trkpt lat="49.6441905946" lon="12.4058439117"><ele>543.28</ele><time>2014-05-03T11:27:10Z</time></trkpt><trkpt lat="49.6441757586" lon="12.4058134016"><ele>543.28</ele><time>2014-05-03T11:27:11Z</time></trkpt><trkpt lat="49.6441599168" lon="12.4057791196"><ele>542.80</ele><time>2014-05-03T11:27:12Z</time></trkpt><trkpt lat="49.6441433206" lon="12.4057445861"><ele>542.80</ele><time>2014-05-03T11:27:13Z</time></trkpt><trkpt lat="49.6441358607" lon="12.4057144113"><ele>542.80</ele><time>2014-05-03T11:27:14Z</time></trkpt><trkpt lat="49.6441379562" lon="12.4056859966"><ele>542.80</ele><time>2014-05-03T11:27:15Z</time></trkpt><trkpt lat="49.6441335138" lon="12.4056562409"><ele>542.80</ele><time>2014-05-03T11:27:16Z</time></trkpt><trkpt lat="49.6441219468" lon="12.4056184385"><ele>542.80</ele><time>2014-05-03T11:27:17Z</time></trkpt><trkpt lat="49.6441097092" lon="12.4055795465"><ele>542.80</ele><time>2014-05-03T11:27:18Z</time></trkpt><trkpt lat="49.6440979745" lon="12.4055431690"><ele>542.80</ele><time>2014-05-03T11:27:19Z</time></trkpt><trkpt lat="49.6440851502" lon="12.4055083841"><ele>543.28</ele><time>2014-05-03T11:27:20Z</time></trkpt><trkpt lat="49.6440781932" lon="12.4054772034"><ele>543.28</ele><time>2014-05-03T11:27:21Z</time></trkpt><trkpt lat="49.6440746728" lon="12.4054443464"><ele>543.28</ele><time>2014-05-03T11:27:22Z</time></trkpt><trkpt lat="49.6440726612" lon="12.4054115731"><ele>543.28</ele><time>2014-05-03T11:27:23Z</time></trkpt><trkpt lat="49.6440731641" lon="12.4053777941"><ele>543.28</ele><time>2014-05-03T11:27:24Z</time></trkpt><trkpt lat="49.6440730803" lon="12.4053440150"><ele>543.28</ele><time>2014-05-03T11:27:25Z</time></trkpt><trkpt lat="49.6440727450" lon="12.4053083919"><ele>543.28</ele><time>2014-05-03T11:27:26Z</time></trkpt><trkpt lat="49.6440734994" lon="12.4052715953"><ele>543.28</ele><time>2014-05-03T11:27:27Z</time></trkpt><trkpt lat="49.6440774389" lon="12.4052328710"><ele>543.28</ele><time>2014-05-03T11:27:28Z</time></trkpt><trkpt lat="49.6440805402" lon="12.4051929731"><ele>543.28</ele><time>2014-05-03T11:27:29Z</time></trkpt><trkpt lat="49.6440817975" lon="12.4051509798"><ele>543.28</ele><time>2014-05-03T11:27:30Z</time></trkpt><trkpt lat="49.6440833062" lon="12.4051080644"><ele>543.28</ele><time>2014-05-03T11:27:31Z</time></trkpt><trkpt lat="49.6440838091" lon="12.4050650652"><ele>543.28</ele><time>2014-05-03T11:27:32Z</time></trkpt><trkpt lat="49.6440854855" lon="12.4050208088"><ele>543.28</ele><time>2014-05-03T11:27:33Z</time></trkpt><trkpt lat="49.6440878324" lon="12.4049759656"><ele>543.28</ele><time>2014-05-03T11:27:34Z</time></trkpt><trkpt lat="49.6440878324" lon="12.4049279373"><ele>543.28</ele><time>2014-05-03T11:27:35Z</time></trkpt><trkpt lat="49.6440891735" lon="12.4048776459"><ele>543.28</ele><time>2014-05-03T11:27:36Z</time></trkpt><trkpt lat="49.6440919396" lon="12.4048276059"><ele>543.28</ele><time>2014-05-03T11:27:37Z</time></trkpt><trkpt lat="49.6440968011" lon="12.4047770631"><ele>543.28</ele><time>2014-05-03T11:27:38Z</time></trkpt><trkpt lat="49.6441009082" lon="12.4047266040"><ele>543.28</ele><time>2014-05-03T11:27:39Z</time></trkpt><trkpt lat="49.6441040933" lon="12.4046753906"><ele>543.28</ele><time>2014-05-03T11:27:40Z</time></trkpt><trkpt lat="49.6441066917" lon="12.4046227522"><ele>543.28</ele><time>2014-05-03T11:27:41Z</time></trkpt><trkpt lat="49.6441078652" lon="12.4045675155"><ele>543.28</ele><time>2014-05-03T11:27:42Z</time></trkpt><trkpt lat="49.6441097092" lon="12.4045093451"><ele>543.28</ele><time>2014-05-03T11:27:43Z</time></trkpt><trkpt lat="49.6441102121" lon="12.4044511747"><ele>543.28</ele><time>2014-05-03T11:27:44Z</time></trkpt><trkpt lat="49.6441100445" lon="12.4043933395"><ele>543.28</ele><time>2014-05-03T11:27:45Z</time></trkpt><trkpt lat="49.6441128943" lon="12.4043339957"><ele>543.28</ele><time>2014-05-03T11:27:46Z</time></trkpt><trkpt lat="49.6441152412" lon="12.4042728916"><ele>543.28</ele><time>2014-05-03T11:27:47Z</time></trkpt><trkpt lat="49.6441202704" lon="12.4042143021"><ele>543.28</ele><time>2014-05-03T11:27:48Z</time></trkpt><trkpt lat="49.6441262215" lon="12.4041568860"><ele>543.28</ele><time>2014-05-03T11:27:49Z</time></trkpt><trkpt lat="49.6441317536" lon="12.4040963687"><ele>543.28</ele><time>2014-05-03T11:27:50Z</time></trkpt><trkpt lat="49.6441356093" lon="12.4040364381"><ele>543.76</ele><time>2014-05-03T11:27:51Z</time></trkpt><trkpt lat="49.6441399679" lon="12.4039767589"><ele>543.76</ele><time>2014-05-03T11:27:52Z</time></trkpt><trkpt lat="49.6441452485" lon="12.4039157387"><ele>543.76</ele><time>2014-05-03T11:27:53Z</time></trkpt><trkpt lat="49.6441499423" lon="12.4038552213"><ele>543.76</ele><time>2014-05-03T11:27:54Z</time></trkpt><trkpt lat="49.6441544686" lon="12.4037943687"><ele>543.76</ele><time>2014-05-03T11:27:55Z</time></trkpt><trkpt lat="49.6441589110" lon="12.4037387129"><ele>544.24</ele><time>2014-05-03T11:27:56Z</time></trkpt><trkpt lat="49.6441606712" lon="12.4036846496"><ele>544.24</ele><time>2014-05-03T11:27:57Z</time></trkpt><trkpt lat="49.6441609226" lon="12.4036332686"><ele>544.24</ele><time>2014-05-03T11:27:58Z</time></trkpt><trkpt lat="49.6441631857" lon="12.4035821389"><ele>544.24</ele><time>2014-05-03T11:27:59Z</time></trkpt><trkpt lat="49.6441668738" lon="12.4035372958"><ele>544.24</ele><time>2014-05-03T11:28:00Z</time></trkpt><trkpt lat="49.6441689692" lon="12.4034937937"><ele>544.24</ele><time>2014-05-03T11:28:01Z</time></trkpt><trkpt lat="49.6441695560" lon="12.4034504592"><ele>544.72</ele><time>2014-05-03T11:28:02Z</time></trkpt><trkpt lat="49.6441685501" lon="12.4034077954"><ele>544.24</ele><time>2014-05-03T11:28:03Z</time></trkpt><trkpt lat="49.6441682149" lon="12.4033648800"><ele>544.24</ele><time>2014-05-03T11:28:04Z</time></trkpt><trkpt lat="49.6441674605" lon="12.4033204559"><ele>544.24</ele><time>2014-05-03T11:28:05Z</time></trkpt><trkpt lat="49.6441648621" lon="12.4032742716"><ele>544.72</ele><time>2014-05-03T11:28:06Z</time></trkpt><trkpt lat="49.6441633534" lon="12.4032279197"><ele>544.72</ele><time>2014-05-03T11:28:07Z</time></trkpt><trkpt lat="49.6441619284" lon="12.4031808972"><ele>544.72</ele><time>2014-05-03T11:28:08Z</time></trkpt><trkpt lat="49.6441607550" lon="12.4031367246"><ele>545.20</ele><time>2014-05-03T11:28:09Z</time></trkpt><trkpt lat="49.6441582404" lon="12.4030916300"><ele>545.20</ele><time>2014-05-03T11:28:10Z</time></trkpt><trkpt lat="49.6441554744" lon="12.4030456971"><ele>545.20</ele><time>2014-05-03T11:28:11Z</time></trkpt><trkpt lat="49.6441566478" lon="12.4030009378"><ele>545.69</ele><time>2014-05-03T11:28:12Z</time></trkpt><trkpt lat="49.6441576537" lon="12.4029581901"><ele>545.69</ele><time>2014-05-03T11:28:13Z</time></trkpt><trkpt lat="49.6441543847" lon="12.4029146042"><ele>545.69</ele><time>2014-05-03T11:28:14Z</time></trkpt><trkpt lat="49.6441507805" lon="12.4028734490"><ele>546.17</ele><time>2014-05-03T11:28:15Z</time></trkpt><trkpt lat="49.6441500261" lon="12.4028296955"><ele>546.17</ele><time>2014-05-03T11:28:16Z</time></trkpt><trkpt lat="49.6441500261" lon="12.4027855229"><ele>546.17</ele><time>2014-05-03T11:28:17Z</time></trkpt><trkpt lat="49.6441482659" lon="12.4027432781"><ele>546.17</ele><time>2014-05-03T11:28:18Z</time></trkpt><trkpt lat="49.6441458352" lon="12.4027010333"><ele>546.65</ele><time>2014-05-03T11:28:19Z</time></trkpt><trkpt lat="49.6441452485" lon="12.4026574474"><ele>546.65</ele><time>2014-05-03T11:28:20Z</time></trkpt><trkpt lat="49.6441475116" lon="12.4026139453"><ele>546.65</ele><time>2014-05-03T11:28:21Z</time></trkpt><trkpt lat="49.6441506129" lon="12.4025717843"><ele>547.13</ele><time>2014-05-03T11:28:22Z</time></trkpt><trkpt lat="49.6441536304" lon="12.4025261868"><ele>547.13</ele><time>2014-05-03T11:28:23Z</time></trkpt><trkpt lat="49.6441561449" lon="12.4024794996"><ele>547.13</ele><time>2014-05-03T11:28:24Z</time></trkpt><trkpt lat="49.6441558935" lon="12.4024362490"><ele>547.61</ele><time>2014-05-03T11:28:25Z</time></trkpt><trkpt lat="49.6441548876" lon="12.4023920763"><ele>547.61</ele><time>2014-05-03T11:28:26Z</time></trkpt><trkpt lat="49.6441573184" lon="12.4023482390"><ele>547.61</ele><time>2014-05-03T11:28:27Z</time></trkpt><trkpt lat="49.6441583242" lon="12.4023032282"><ele>548.09</ele><time>2014-05-03T11:28:28Z</time></trkpt><trkpt lat="49.6441591624" lon="12.4022565410"><ele>548.09</ele><time>2014-05-03T11:28:29Z</time></trkpt><trkpt lat="49.6441604197" lon="12.4022104405"><ele>548.57</ele><time>2014-05-03T11:28:30Z</time></trkpt><trkpt lat="49.6441608388" lon="12.4021649268"><ele>548.57</ele><time>2014-05-03T11:28:31Z</time></trkpt><trkpt lat="49.6441616770" lon="12.4021205865"><ele>548.57</ele><time>2014-05-03T11:28:32Z</time></trkpt><trkpt lat="49.6441625990" lon="12.4020750728"><ele>548.57</ele><time>2014-05-03T11:28:33Z</time></trkpt><trkpt lat="49.6441662032" lon="12.4020283855"><ele>548.57</ele><time>2014-05-03T11:28:34Z</time></trkpt><trkpt lat="49.6441672090" lon="12.4019833747"><ele>549.05</ele><time>2014-05-03T11:28:35Z</time></trkpt><trkpt lat="49.6441669576" lon="12.4019397888"><ele>549.05</ele><time>2014-05-03T11:28:36Z</time></trkpt><trkpt lat="49.6441673767" lon="12.4018966220"><ele>548.57</ele><time>2014-05-03T11:28:37Z</time></trkpt><trkpt lat="49.6441656165" lon="12.4018523656"><ele>549.05</ele><time>2014-05-03T11:28:38Z</time></trkpt><trkpt lat="49.6441646945" lon="12.4018068518"><ele>549.05</ele><time>2014-05-03T11:28:39Z</time></trkpt><trkpt lat="49.6441636048" lon="12.4017585721"><ele>549.05</ele><time>2014-05-03T11:28:40Z</time></trkpt><trkpt lat="49.6441623475" lon="12.4017088674"><ele>548.57</ele><time>2014-05-03T11:28:41Z</time></trkpt><trkpt lat="49.6441584919" lon="12.4016569834"><ele>549.05</ele><time>2014-05-03T11:28:42Z</time></trkpt><trkpt lat="49.6441526245" lon="12.4016062729"><ele>549.05</ele><time>2014-05-03T11:28:43Z</time></trkpt><trkpt lat="49.6441450808" lon="12.4015565682"><ele>549.05</ele><time>2014-05-03T11:28:44Z</time></trkpt><trkpt lat="49.6441377047" lon="12.4015061930"><ele>549.05</ele><time>2014-05-03T11:28:45Z</time></trkpt><trkpt lat="49.6441293228" lon="12.4014548957"><ele>549.05</ele><time>2014-05-03T11:28:46Z</time></trkpt><trkpt lat="49.6441192646" lon="12.4014010839"><ele>548.57</ele><time>2014-05-03T11:28:47Z</time></trkpt><trkpt lat="49.6441091225" lon="12.4013452604"><ele>548.57</ele><time>2014-05-03T11:28:48Z</time></trkpt><trkpt lat="49.6440996509" lon="12.4012915324"><ele>548.57</ele><time>2014-05-03T11:28:49Z</time></trkpt><trkpt lat="49.6440903470" lon="12.4012392294"><ele>548.57</ele><time>2014-05-03T11:28:50Z</time></trkpt><trkpt lat="49.6440810431" lon="12.4011880998"><ele>548.57</ele><time>2014-05-03T11:28:51Z</time></trkpt><trkpt lat="49.6440709010" lon="12.4011396524"><ele>548.57</ele><time>2014-05-03T11:28:52Z</time></trkpt><trkpt lat="49.6440597530" lon="12.4010887742"><ele>548.57</ele><time>2014-05-03T11:28:53Z</time></trkpt><trkpt lat="49.6440463420" lon="12.4010358006"><ele>548.57</ele><time>2014-05-03T11:28:54Z</time></trkpt><trkpt lat="49.6440336015" lon="12.4009780493"><ele>548.57</ele><time>2014-05-03T11:28:55Z</time></trkpt><trkpt lat="49.6440209448" lon="12.4009187892"><ele>548.09</ele><time>2014-05-03T11:28:56Z</time></trkpt><trkpt lat="49.6440093778" lon="12.4008563440"><ele>548.09</ele><time>2014-05-03T11:28:57Z</time></trkpt><trkpt lat="49.6439966373" lon="12.4007923063"><ele>548.09</ele><time>2014-05-03T11:28:58Z</time></trkpt><trkpt lat="49.6439838130" lon="12.4007279333"><ele>548.09</ele><time>2014-05-03T11:28:59Z</time></trkpt><trkpt lat="49.6439709049" lon="12.4006615486"><ele>547.61</ele><time>2014-05-03T11:29:00Z</time></trkpt><trkpt lat="49.6439607628" lon="12.4005912244"><ele>547.61</ele><time>2014-05-03T11:29:01Z</time></trkpt><trkpt lat="49.6439492796" lon="12.4005243368"><ele>547.61</ele><time>2014-05-03T11:29:02Z</time></trkpt><trkpt lat="49.6439344436" lon="12.4004602153"><ele>547.61</ele><time>2014-05-03T11:29:03Z</time></trkpt><trkpt lat="49.6439202782" lon="12.4003945012"><ele>547.13</ele><time>2014-05-03T11:29:04Z</time></trkpt><trkpt lat="49.6439057775" lon="12.4003221653"><ele>547.13</ele><time>2014-05-03T11:29:05Z</time></trkpt><trkpt lat="49.6438875049" lon="12.4002523441"><ele>547.13</ele><time>2014-05-03T11:29:06Z</time></trkpt><trkpt lat="49.6438654605" lon="12.4001853727"><ele>547.13</ele><time>2014-05-03T11:29:07Z</time></trkpt><trkpt lat="49.6438440029" lon="12.4001178145"><ele>547.13</ele><time>2014-05-03T11:29:08Z</time></trkpt><trkpt lat="49.6438233834" lon="12.4000521004"><ele>547.13</ele><time>2014-05-03T11:29:09Z</time></trkpt><trkpt lat="49.6437994111" lon="12.3999891523"><ele>546.65</ele><time>2014-05-03T11:29:10Z</time></trkpt><trkpt lat="49.6437755227" lon="12.3999284673"><ele>546.65</ele><time>2014-05-03T11:29:11Z</time></trkpt><trkpt lat="49.6437529754" lon="12.3998663574"><ele>547.13</ele><time>2014-05-03T11:29:12Z</time></trkpt><trkpt lat="49.6437273268" lon="12.3998079356"><ele>547.13</ele><time>2014-05-03T11:29:13Z</time></trkpt><trkpt lat="49.6437006723" lon="12.3997517768"><ele>547.13</ele><time>2014-05-03T11:29:14Z</time></trkpt><trkpt lat="49.6436747722" lon="12.3996964563"><ele>547.61</ele><time>2014-05-03T11:29:15Z</time></trkpt><trkpt lat="49.6436498780" lon="12.3996392917"><ele>547.61</ele><time>2014-05-03T11:29:16Z</time></trkpt><trkpt lat="49.6436247323" lon="12.3995852284"><ele>547.61</ele><time>2014-05-03T11:29:17Z</time></trkpt><trkpt lat="49.6435982455" lon="12.3995366134"><ele>547.61</ele><time>2014-05-03T11:29:18Z</time></trkpt><trkpt lat="49.6435746923" lon="12.3994854838"><ele>548.09</ele><time>2014-05-03T11:29:19Z</time></trkpt><trkpt lat="49.6435523964" lon="12.3994340189"><ele>548.09</ele><time>2014-05-03T11:29:20Z</time></trkpt><trkpt lat="49.6435288433" lon="12.3993855715"><ele>548.09</ele><time>2014-05-03T11:29:21Z</time></trkpt><trkpt lat="49.6435031109" lon="12.3993339390"><ele>548.57</ele><time>2014-05-03T11:29:22Z</time></trkpt><trkpt lat="49.6434786357" lon="12.3992826417"><ele>548.57</ele><time>2014-05-03T11:29:23Z</time></trkpt><trkpt lat="49.6434561722" lon="12.3992315121"><ele>548.57</ele><time>2014-05-03T11:29:24Z</time></trkpt><trkpt lat="49.6434335411" lon="12.3991808854"><ele>549.05</ele><time>2014-05-03T11:29:25Z</time></trkpt><trkpt lat="49.6434104070" lon="12.3991296720"><ele>549.05</ele><time>2014-05-03T11:29:26Z</time></trkpt><trkpt lat="49.6433923021" lon="12.3990794644"><ele>549.53</ele><time>2014-05-03T11:29:27Z</time></trkpt><trkpt lat="49.6433747839" lon="12.3990292568"><ele>549.53</ele><time>2014-05-03T11:29:28Z</time></trkpt><trkpt lat="49.6433527395" lon="12.3989800550"><ele>549.53</ele><time>2014-05-03T11:29:29Z</time></trkpt><trkpt lat="49.6433313657" lon="12.3989316076"><ele>550.01</ele><time>2014-05-03T11:29:30Z</time></trkpt><trkpt lat="49.6433116682" lon="12.3988839984"><ele>550.01</ele><time>2014-05-03T11:29:31Z</time></trkpt><trkpt lat="49.6432932280" lon="12.3988368921"><ele>550.01</ele><time>2014-05-03T11:29:32Z</time></trkpt><trkpt lat="49.6432716027" lon="12.3987840023"><ele>550.01</ele><time>2014-05-03T11:29:33Z</time></trkpt><trkpt lat="49.6432457864" lon="12.3987295199"><ele>550.49</ele><time>2014-05-03T11:29:34Z</time></trkpt><trkpt lat="49.6432206407" lon="12.3986750375"><ele>550.49</ele><time>2014-05-03T11:29:35Z</time></trkpt><trkpt lat="49.6431949921" lon="12.3986211419"><ele>550.97</ele><time>2014-05-03T11:29:36Z</time></trkpt><trkpt lat="49.6431683376" lon="12.3985678330"><ele>550.97</ele><time>2014-05-03T11:29:37Z</time></trkpt><trkpt lat="49.6431418508" lon="12.3985146917"><ele>550.97</ele><time>2014-05-03T11:29:38Z</time></trkpt><trkpt lat="49.6431172919" lon="12.3984635621"><ele>550.97</ele><time>2014-05-03T11:29:39Z</time></trkpt><trkpt lat="49.6430923976" lon="12.3984121811"><ele>551.45</ele><time>2014-05-03T11:29:40Z</time></trkpt><trkpt lat="49.6430657431" lon="12.3983627278"><ele>551.45</ele><time>2014-05-03T11:29:41Z</time></trkpt><trkpt lat="49.6430374123" lon="12.3983134422"><ele>551.45</ele><time>2014-05-03T11:29:42Z</time></trkpt><trkpt lat="49.6430113446" lon="12.3982642405"><ele>551.93</ele><time>2014-05-03T11:29:43Z</time></trkpt><trkpt lat="49.6429846063" lon="12.3982121050"><ele>551.93</ele><time>2014-05-03T11:29:44Z</time></trkpt><trkpt lat="49.6429549344" lon="12.3981605563"><ele>552.41</ele><time>2014-05-03T11:29:45Z</time></trkpt><trkpt lat="49.6429286990" lon="12.3981121089"><ele>552.41</ele><time>2014-05-03T11:29:46Z</time></trkpt><trkpt lat="49.6429033857" lon="12.3980628233"><ele>552.41</ele><time>2014-05-03T11:29:47Z</time></trkpt><trkpt lat="49.6428757254" lon="12.3980147112"><ele>552.90</ele><time>2014-05-03T11:29:48Z</time></trkpt><trkpt lat="49.6428509150" lon="12.3979695328"><ele>552.90</ele><time>2014-05-03T11:29:49Z</time></trkpt><trkpt lat="49.6428234223" lon="12.3979220074"><ele>553.38</ele><time>2014-05-03T11:29:50Z</time></trkpt><trkpt lat="49.6427922416" lon="12.3978722189"><ele>553.38</ele><time>2014-05-03T11:29:51Z</time></trkpt><trkpt lat="49.6427592169" lon="12.3978248611"><ele>553.38</ele><time>2014-05-03T11:29:52Z</time></trkpt><trkpt lat="49.6427258570" lon="12.3977763299"><ele>553.38</ele><time>2014-05-03T11:29:53Z</time></trkpt><trkpt lat="49.6426966041" lon="12.3977288883"><ele>553.86</ele><time>2014-05-03T11:29:54Z</time></trkpt><trkpt lat="49.6426681057" lon="12.3976821173"><ele>553.86</ele><time>2014-05-03T11:29:55Z</time></trkpt><trkpt lat="49.6426401939" lon="12.3976358492"><ele>553.38</ele><time>2014-05-03T11:29:56Z</time></trkpt><trkpt lat="49.6426118631" lon="12.3975890782"><ele>553.86</ele><time>2014-05-03T11:29:57Z</time></trkpt><trkpt lat="49.6425855439" lon="12.3975446541"><ele>553.86</ele><time>2014-05-03T11:29:58Z</time></trkpt><trkpt lat="49.6425599791" lon="12.3975020740"><ele>553.86</ele><time>2014-05-03T11:29:59Z</time></trkpt><trkpt lat="49.6425359230" lon="12.3974623438"><ele>553.86</ele><time>2014-05-03T11:30:00Z</time></trkpt><trkpt lat="49.6425131243" lon="12.3974265531"><ele>553.86</ele><time>2014-05-03T11:30:01Z</time></trkpt><trkpt lat="49.6424901579" lon="12.3973915167"><ele>553.86</ele><time>2014-05-03T11:30:02Z</time></trkpt><trkpt lat="49.6424655989" lon="12.3973553907"><ele>553.86</ele><time>2014-05-03T11:30:03Z</time></trkpt><trkpt lat="49.6424411237" lon="12.3973145708"><ele>553.86</ele><time>2014-05-03T11:30:04Z</time></trkpt><trkpt lat="49.6424148884" lon="12.3972709849"><ele>553.86</ele><time>2014-05-03T11:30:05Z</time></trkpt><trkpt lat="49.6423835400" lon="12.3972271476"><ele>553.86</ele><time>2014-05-03T11:30:06Z</time></trkpt><trkpt lat="49.6423489228" lon="12.3971818853"><ele>553.38</ele><time>2014-05-03T11:30:07Z</time></trkpt><trkpt lat="49.6423134673" lon="12.3971334379"><ele>553.38</ele><time>2014-05-03T11:30:08Z</time></trkpt><trkpt lat="49.6422788501" lon="12.3970810510"><ele>553.38</ele><time>2014-05-03T11:30:09Z</time></trkpt><trkpt lat="49.6422412992" lon="12.3970268201"><ele>552.90</ele><time>2014-05-03T11:30:10Z</time></trkpt><trkpt lat="49.6421994735" lon="12.3969700746"><ele>552.90</ele><time>2014-05-03T11:30:11Z</time></trkpt><trkpt lat="49.6421544626" lon="12.3969088029"><ele>552.41</ele><time>2014-05-03T11:30:12Z</time></trkpt><trkpt lat="49.6421078593" lon="12.3968465254"><ele>552.41</ele><time>2014-05-03T11:30:13Z</time></trkpt><trkpt lat="49.6420584060" lon="12.3967838287"><ele>551.45</ele><time>2014-05-03T11:30:14Z</time></trkpt><trkpt lat="49.6420066897" lon="12.3967182823"><ele>551.45</ele><time>2014-05-03T11:30:15Z</time></trkpt><trkpt lat="49.6419541351" lon="12.3966518976"><ele>550.97</ele><time>2014-05-03T11:30:16Z</time></trkpt><trkpt lat="49.6418981440" lon="12.3965881951"><ele>550.49</ele><time>2014-05-03T11:30:17Z</time></trkpt><trkpt lat="49.6418350283" lon="12.3965275940"><ele>550.01</ele><time>2014-05-03T11:30:18Z</time></trkpt><trkpt lat="49.6417677216" lon="12.3964747880"><ele>550.01</ele><time>2014-05-03T11:30:19Z</time></trkpt><trkpt lat="49.6417006664" lon="12.3964270111"><ele>549.53</ele><time>2014-05-03T11:30:20Z</time></trkpt><trkpt lat="49.6416383889" lon="12.3963802401"><ele>549.53</ele><time>2014-05-03T11:30:21Z</time></trkpt><trkpt lat="49.6415798832" lon="12.3963379953"><ele>549.53</ele><time>2014-05-03T11:30:22Z</time></trkpt><trkpt lat="49.6415204555" lon="12.3963006120"><ele>549.05</ele><time>2014-05-03T11:30:23Z</time></trkpt><trkpt lat="49.6414589323" lon="12.3962686770"><ele>549.05</ele><time>2014-05-03T11:30:24Z</time></trkpt><trkpt lat="49.6413972415" lon="12.3962456267"><ele>549.05</ele><time>2014-05-03T11:30:25Z</time></trkpt><trkpt lat="49.6413370594" lon="12.3962330539"><ele>549.05</ele><time>2014-05-03T11:30:26Z</time></trkpt><trkpt lat="49.6412779670" lon="12.3962267675"><ele>549.05</ele><time>2014-05-03T11:30:27Z</time></trkpt><trkpt lat="49.6412202157" lon="12.3962232471"><ele>549.05</ele><time>2014-05-03T11:30:28Z</time></trkpt><trkpt lat="49.6411695052" lon="12.3962116800"><ele>549.05</ele><time>2014-05-03T11:30:29Z</time></trkpt><trkpt lat="49.6411260031" lon="12.3961890489"><ele>549.05</ele><time>2014-05-03T11:30:30Z</time></trkpt><trkpt lat="49.6410851832" lon="12.3961693514"><ele>549.53</ele><time>2014-05-03T11:30:31Z</time></trkpt><trkpt lat="49.6410457045" lon="12.3961496539"><ele>549.05</ele><time>2014-05-03T11:30:32Z</time></trkpt><trkpt lat="49.6410043817" lon="12.3961380869"><ele>549.53</ele><time>2014-05-03T11:30:33Z</time></trkpt><trkpt lat="49.6409613825" lon="12.3961362429"><ele>549.53</ele><time>2014-05-03T11:30:34Z</time></trkpt><trkpt lat="49.6409172099" lon="12.3961351532"><ele>549.53</ele><time>2014-05-03T11:30:35Z</time></trkpt><trkpt lat="49.6408723667" lon="12.3961311299"><ele>550.01</ele><time>2014-05-03T11:30:36Z</time></trkpt><trkpt lat="49.6408311278" lon="12.3961284477"><ele>550.01</ele><time>2014-05-03T11:30:37Z</time></trkpt><trkpt lat="49.6407855302" lon="12.3961218260"><ele>550.01</ele><time>2014-05-03T11:30:38Z</time></trkpt><trkpt lat="49.6407368314" lon="12.3961118516"><ele>550.01</ele><time>2014-05-03T11:30:39Z</time></trkpt><trkpt lat="49.6406884678" lon="12.3961027153"><ele>550.01</ele><time>2014-05-03T11:30:40Z</time></trkpt><trkpt lat="49.6406379249" lon="12.3960955907"><ele>550.01</ele><time>2014-05-03T11:30:41Z</time></trkpt><trkpt lat="49.6405854542" lon="12.3960901424"><ele>550.49</ele><time>2014-05-03T11:30:42Z</time></trkpt><trkpt lat="49.6405356657" lon="12.3960902262"><ele>550.49</ele><time>2014-05-03T11:30:43Z</time></trkpt><trkpt lat="49.6404897328" lon="12.3960857838"><ele>550.49</ele><time>2014-05-03T11:30:44Z</time></trkpt><trkpt lat="49.6404433809" lon="12.3960794136"><ele>550.49</ele><time>2014-05-03T11:30:45Z</time></trkpt><trkpt lat="49.6403930057" lon="12.3960774019"><ele>550.49</ele><time>2014-05-03T11:30:46Z</time></trkpt><trkpt lat="49.6403402835" lon="12.3960746359"><ele>550.49</ele><time>2014-05-03T11:30:47Z</time></trkpt><trkpt lat="49.6402899083" lon="12.3960681818"><ele>550.49</ele><time>2014-05-03T11:30:48Z</time></trkpt><trkpt lat="49.6402365156" lon="12.3960592132"><ele>550.97</ele><time>2014-05-03T11:30:49Z</time></trkpt><trkpt lat="49.6401830390" lon="12.3960479815"><ele>550.97</ele><time>2014-05-03T11:30:50Z</time></trkpt><trkpt lat="49.6401312388" lon="12.3960334808"><ele>550.97</ele><time>2014-05-03T11:30:51Z</time></trkpt><trkpt lat="49.6400827076" lon="12.3960219137"><ele>551.45</ele><time>2014-05-03T11:30:52Z</time></trkpt><trkpt lat="49.6400324162" lon="12.3960143700"><ele>551.45</ele><time>2014-05-03T11:30:53Z</time></trkpt><trkpt lat="49.6399819572" lon="12.3960016295"><ele>551.45</ele><time>2014-05-03T11:30:54Z</time></trkpt><trkpt lat="49.6399286482" lon="12.3959885538"><ele>551.45</ele><time>2014-05-03T11:30:55Z</time></trkpt><trkpt lat="49.6398768481" lon="12.3959709518"><ele>551.45</ele><time>2014-05-03T11:30:56Z</time></trkpt><trkpt lat="49.6398268919" lon="12.3959491588"><ele>551.45</ele><time>2014-05-03T11:30:57Z</time></trkpt><trkpt lat="49.6397740021" lon="12.3959287908"><ele>551.45</ele><time>2014-05-03T11:30:58Z</time></trkpt><trkpt lat="49.6397211123" lon="12.3959064111"><ele>551.93</ele><time>2014-05-03T11:30:59Z</time></trkpt><trkpt lat="49.6396693122" lon="12.3958814330"><ele>551.93</ele><time>2014-05-03T11:31:00Z</time></trkpt><trkpt lat="49.6396201104" lon="12.3958572932"><ele>551.93</ele><time>2014-05-03T11:31:01Z</time></trkpt><trkpt lat="49.6395707410" lon="12.3958325665"><ele>552.41</ele><time>2014-05-03T11:31:02Z</time></trkpt><trkpt lat="49.6395225450" lon="12.3958054092"><ele>552.41</ele><time>2014-05-03T11:31:03Z</time></trkpt><trkpt lat="49.6394771989" lon="12.3957774136"><ele>552.90</ele><time>2014-05-03T11:31:04Z</time></trkpt><trkpt lat="49.6394346189" lon="12.3957494181"><ele>552.90</ele><time>2014-05-03T11:31:05Z</time></trkpt><trkpt lat="49.6393922064" lon="12.3957164772"><ele>552.90</ele><time>2014-05-03T11:31:06Z</time></trkpt><trkpt lat="49.6393487882" lon="12.3956798483"><ele>552.90</ele><time>2014-05-03T11:31:07Z</time></trkpt><trkpt lat="49.6393054537" lon="12.3956439737"><ele>552.90</ele><time>2014-05-03T11:31:08Z</time></trkpt><trkpt lat="49.6392632928" lon="12.3956085183"><ele>552.90</ele><time>2014-05-03T11:31:09Z</time></trkpt><trkpt lat="49.6392205451" lon="12.3955733981"><ele>553.38</ele><time>2014-05-03T11:31:10Z</time></trkpt><trkpt lat="49.6391776297" lon="12.3955359310"><ele>553.38</ele><time>2014-05-03T11:31:11Z</time></trkpt><trkpt lat="49.6391349658" lon="12.3954972066"><ele>553.38</ele><time>2014-05-03T11:31:12Z</time></trkpt><trkpt lat="49.6390937269" lon="12.3954563029"><ele>553.86</ele><time>2014-05-03T11:31:13Z</time></trkpt><trkpt lat="49.6390530746" lon="12.3954148963"><ele>553.86</ele><time>2014-05-03T11:31:14Z</time></trkpt><trkpt lat="49.6390088182" lon="12.3953729030"><ele>553.86</ele><time>2014-05-03T11:31:15Z</time></trkpt><trkpt lat="49.6389645617" lon="12.3953304067"><ele>553.86</ele><time>2014-05-03T11:31:16Z</time></trkpt><trkpt lat="49.6389265079" lon="12.3952890001"><ele>554.34</ele><time>2014-05-03T11:31:17Z</time></trkpt><trkpt lat="49.6388923936" lon="12.3952475935"><ele>554.34</ele><time>2014-05-03T11:31:18Z</time></trkpt><trkpt lat="49.6388639789" lon="12.3952036723"><ele>554.34</ele><time>2014-05-03T11:31:19Z</time></trkpt><trkpt lat="49.6388375759" lon="12.3951577395"><ele>554.82</ele><time>2014-05-03T11:31:20Z</time></trkpt><trkpt lat="49.6388072334" lon="12.3951139860"><ele>554.34</ele><time>2014-05-03T11:31:21Z</time></trkpt><trkpt lat="49.6387768071" lon="12.3950666282"><ele>554.34</ele><time>2014-05-03T11:31:22Z</time></trkpt><trkpt lat="49.6387486439" lon="12.3950201087"><ele>554.34</ele><time>2014-05-03T11:31:23Z</time></trkpt><trkpt lat="49.6387217380" lon="12.3949758522"><ele>554.82</ele><time>2014-05-03T11:31:24Z</time></trkpt><trkpt lat="49.6386973467" lon="12.3949333560"><ele>554.34</ele><time>2014-05-03T11:31:25Z</time></trkpt><trkpt lat="49.6386739612" lon="12.3948935419"><ele>554.82</ele><time>2014-05-03T11:31:26Z</time></trkpt><trkpt lat="49.6386520844" lon="12.3948538955"><ele>554.82</ele><time>2014-05-03T11:31:27Z</time></trkpt><trkpt lat="49.6386316326" lon="12.3948124889"><ele>554.82</ele><time>2014-05-03T11:31:28Z</time></trkpt><trkpt lat="49.6386131924" lon="12.3947679810"><ele>555.30</ele><time>2014-05-03T11:31:29Z</time></trkpt><trkpt lat="49.6385933273" lon="12.3947208747"><ele>555.30</ele><time>2014-05-03T11:31:30Z</time></trkpt><trkpt lat="49.6385749709" lon="12.3946712539"><ele>555.30</ele><time>2014-05-03T11:31:31Z</time></trkpt><trkpt lat="49.6385597996" lon="12.3946262430"><ele>555.30</ele><time>2014-05-03T11:31:32Z</time></trkpt><trkpt lat="49.6385450475" lon="12.3945808969"><ele>555.30</ele><time>2014-05-03T11:31:33Z</time></trkpt><trkpt lat="49.6385283675" lon="12.3945341259"><ele>555.78</ele><time>2014-05-03T11:31:34Z</time></trkpt><trkpt lat="49.6385169681" lon="12.3944906238"><ele>555.78</ele><time>2014-05-03T11:31:35Z</time></trkpt><trkpt lat="49.6385064907" lon="12.3944415059"><ele>555.78</ele><time>2014-05-03T11:31:36Z</time></trkpt><trkpt lat="49.6384883858" lon="12.3943813238"><ele>555.78</ele><time>2014-05-03T11:31:37Z</time></trkpt><trkpt lat="49.6384506673" lon="12.3943081498"><ele>555.78</ele><time>2014-05-03T11:31:38Z</time></trkpt><trkpt lat="49.6384152956" lon="12.3942327965"><ele>556.26</ele><time>2014-05-03T11:31:39Z</time></trkpt><trkpt lat="49.6383807622" lon="12.3941575270"><ele>556.26</ele><time>2014-05-03T11:31:40Z</time></trkpt><trkpt lat="49.6383501682" lon="12.3940845206"><ele>556.26</ele><time>2014-05-03T11:31:41Z</time></trkpt><trkpt lat="49.6383298002" lon="12.3940143641"><ele>556.26</ele><time>2014-05-03T11:31:42Z</time></trkpt><trkpt lat="49.6383031458" lon="12.3939380888"><ele>556.26</ele><time>2014-05-03T11:31:43Z</time></trkpt><trkpt lat="49.6382735576" lon="12.3938629869"><ele>556.26</ele><time>2014-05-03T11:31:44Z</time></trkpt><trkpt lat="49.6382514294" lon="12.3937892262"><ele>556.26</ele><time>2014-05-03T11:31:45Z</time></trkpt><trkpt lat="49.6382321510" lon="12.3937133700"><ele>556.74</ele><time>2014-05-03T11:31:46Z</time></trkpt><trkpt lat="49.6382100228" lon="12.3936392739"><ele>556.74</ele><time>2014-05-03T11:31:47Z</time></trkpt><trkpt lat="49.6381882299" lon="12.3935650941"><ele>556.74</ele><time>2014-05-03T11:31:48Z</time></trkpt><trkpt lat="49.6381647605" lon="12.3934865557"><ele>556.74</ele><time>2014-05-03T11:31:49Z</time></trkpt><trkpt lat="49.6381460689" lon="12.3934106156"><ele>556.74</ele><time>2014-05-03T11:31:50Z</time></trkpt><trkpt lat="49.6381268743" lon="12.3933329154"><ele>556.74</ele><time>2014-05-03T11:31:51Z</time></trkpt><trkpt lat="49.6381063387" lon="12.3932500184"><ele>556.74</ele><time>2014-05-03T11:31:52Z</time></trkpt><trkpt lat="49.6380860545" lon="12.3931677919"><ele>556.74</ele><time>2014-05-03T11:31:53Z</time></trkpt><trkpt lat="49.6380702965" lon="12.3930832185"><ele>556.74</ele><time>2014-05-03T11:31:54Z</time></trkpt><trkpt lat="49.6380561311" lon="12.3930045962"><ele>556.74</ele><time>2014-05-03T11:31:55Z</time></trkpt><trkpt lat="49.6380452346" lon="12.3929284886"><ele>557.22</ele><time>2014-05-03T11:31:56Z</time></trkpt><trkpt lat="49.6380334999" lon="12.3928531352"><ele>557.22</ele><time>2014-05-03T11:31:57Z</time></trkpt><trkpt lat="49.6380241122" lon="12.3927805480"><ele>557.22</ele><time>2014-05-03T11:31:58Z</time></trkpt><trkpt lat="49.6380155627" lon="12.3927074578"><ele>557.22</ele><time>2014-05-03T11:31:59Z</time></trkpt><trkpt lat="49.6380082704" lon="12.3926354572"><ele>557.22</ele><time>2014-05-03T11:32:00Z</time></trkpt><trkpt lat="49.6380010620" lon="12.3925642949"><ele>557.70</ele><time>2014-05-03T11:32:01Z</time></trkpt><trkpt lat="49.6379950270" lon="12.3924933001"><ele>557.70</ele><time>2014-05-03T11:32:02Z</time></trkpt><trkpt lat="49.6379896626" lon="12.3924227245"><ele>557.70</ele><time>2014-05-03T11:32:03Z</time></trkpt><trkpt lat="49.6379831247" lon="12.3923514783"><ele>557.70</ele><time>2014-05-03T11:32:04Z</time></trkpt><trkpt lat="49.6379789338" lon="12.3922801483"><ele>557.70</ele><time>2014-05-03T11:32:05Z</time></trkpt><trkpt lat="49.6379774250" lon="12.3922078125"><ele>557.70</ele><time>2014-05-03T11:32:06Z</time></trkpt><trkpt lat="49.6379760839" lon="12.3921330459"><ele>558.18</ele><time>2014-05-03T11:32:07Z</time></trkpt><trkpt lat="49.6379756648" lon="12.3920610454"><ele>558.18</ele><time>2014-05-03T11:32:08Z</time></trkpt><trkpt lat="49.6379776765" lon="12.3919914756"><ele>558.18</ele><time>2014-05-03T11:32:09Z</time></trkpt><trkpt lat="49.6379795205" lon="12.3919190560"><ele>558.18</ele><time>2014-05-03T11:32:10Z</time></trkpt><trkpt lat="49.6379821189" lon="12.3918447085"><ele>558.18</ele><time>2014-05-03T11:32:11Z</time></trkpt><trkpt lat="49.6379842982" lon="12.3917687684"><ele>558.66</ele><time>2014-05-03T11:32:12Z</time></trkpt><trkpt lat="49.6379885729" lon="12.3916953430"><ele>558.66</ele><time>2014-05-03T11:32:13Z</time></trkpt><trkpt lat="49.6379952785" lon="12.3916245159"><ele>558.66</ele><time>2014-05-03T11:32:14Z</time></trkpt><trkpt lat="49.6380026545" lon="12.3915574607"><ele>558.66</ele><time>2014-05-03T11:32:15Z</time></trkpt><trkpt lat="49.6380100306" lon="12.3914945964"><ele>558.66</ele><time>2014-05-03T11:32:16Z</time></trkpt><trkpt lat="49.6380169876" lon="12.3914368451"><ele>558.66</ele><time>2014-05-03T11:32:17Z</time></trkpt><trkpt lat="49.6380220167" lon="12.3913836200"><ele>559.14</ele><time>2014-05-03T11:32:18Z</time></trkpt><trkpt lat="49.6380278841" lon="12.3913351726"><ele>558.66</ele><time>2014-05-03T11:32:19Z</time></trkpt><trkpt lat="49.6380350087" lon="12.3912874795"><ele>559.14</ele><time>2014-05-03T11:32:20Z</time></trkpt><trkpt lat="49.6380413789" lon="12.3912373558"><ele>559.14</ele><time>2014-05-03T11:32:21Z</time></trkpt><trkpt lat="49.6380490903" lon="12.3911866453"><ele>559.14</ele><time>2014-05-03T11:32:22Z</time></trkpt><trkpt lat="49.6380594838" lon="12.3911376111"><ele>559.14</ele><time>2014-05-03T11:32:23Z</time></trkpt><trkpt lat="49.6380697936" lon="12.3910897505"><ele>559.14</ele><time>2014-05-03T11:32:24Z</time></trkpt><trkpt lat="49.6380794328" lon="12.3910468351"><ele>559.14</ele><time>2014-05-03T11:32:25Z</time></trkpt><trkpt lat="49.6380897425" lon="12.3910093680"><ele>559.62</ele><time>2014-05-03T11:32:26Z</time></trkpt><trkpt lat="49.6380957775" lon="12.3909829650"><ele>559.62</ele><time>2014-05-03T11:32:27Z</time></trkpt><trkpt lat="49.6380971186" lon="12.3909700569"><ele>559.62</ele><time>2014-05-03T11:32:28Z</time></trkpt><trkpt lat="49.6380951069" lon="12.3909699731"><ele>559.62</ele><time>2014-05-03T11:32:29Z</time></trkpt><trkpt lat="49.6380948555" lon="12.3909692187"><ele>559.62</ele><time>2014-05-03T11:32:30Z</time></trkpt><trkpt lat="49.6380952746" lon="12.3909674585"><ele>560.11</ele><time>2014-05-03T11:32:31Z</time></trkpt><trkpt lat="49.6380961128" lon="12.3909647763"><ele>560.11</ele><time>2014-05-03T11:32:32Z</time></trkpt><trkpt lat="49.6380991302" lon="12.3909521196"><ele>560.11</ele><time>2014-05-03T11:32:33Z</time></trkpt><trkpt lat="49.6381016448" lon="12.3909393791"><ele>559.62</ele><time>2014-05-03T11:32:34Z</time></trkpt><trkpt lat="49.6381087694" lon="12.3909272254"><ele>559.62</ele><time>2014-05-03T11:32:35Z</time></trkpt><trkpt lat="49.6381143853" lon="12.3909138981"><ele>559.62</ele><time>2014-05-03T11:32:36Z</time></trkpt><trkpt lat="49.6381164808" lon="12.3908993974"><ele>560.11</ele><time>2014-05-03T11:32:37Z</time></trkpt><trkpt lat="49.6381214261" lon="12.3908817116"><ele>560.11</ele><time>2014-05-03T11:32:38Z</time></trkpt><trkpt lat="49.6381267905" lon="12.3908531293"><ele>560.11</ele><time>2014-05-03T11:32:39Z</time></trkpt><trkpt lat="49.6381330770" lon="12.3908197694"><ele>560.11</ele><time>2014-05-03T11:32:40Z</time></trkpt><trkpt lat="49.6381407883" lon="12.3907853197"><ele>560.11</ele><time>2014-05-03T11:32:41Z</time></trkpt><trkpt lat="49.6381505113" lon="12.3907464277"><ele>560.11</ele><time>2014-05-03T11:32:42Z</time></trkpt><trkpt lat="49.6381644253" lon="12.3907086253"><ele>560.11</ele><time>2014-05-03T11:32:43Z</time></trkpt><trkpt lat="49.6381769143" lon="12.3906680569"><ele>560.11</ele><time>2014-05-03T11:32:44Z</time></trkpt><trkpt lat="49.6381883137" lon="12.3906241357"><ele>560.11</ele><time>2014-05-03T11:32:45Z</time></trkpt><trkpt lat="49.6382028982" lon="12.3905774485"><ele>560.11</ele><time>2014-05-03T11:32:46Z</time></trkpt><trkpt lat="49.6382188238" lon="12.3905286659"><ele>560.59</ele><time>2014-05-03T11:32:47Z</time></trkpt><trkpt lat="49.6382357553" lon="12.3904761951"><ele>560.59</ele><time>2014-05-03T11:32:48Z</time></trkpt><trkpt lat="49.6382544469" lon="12.3904193658"><ele>560.59</ele><time>2014-05-03T11:32:49Z</time></trkpt><trkpt lat="49.6382751502" lon="12.3903627042"><ele>560.59</ele><time>2014-05-03T11:32:50Z</time></trkpt><trkpt lat="49.6382975299" lon="12.3903030250"><ele>560.59</ele><time>2014-05-03T11:32:51Z</time></trkpt><trkpt lat="49.6383207478" lon="12.3902432621"><ele>561.07</ele><time>2014-05-03T11:32:52Z</time></trkpt><trkpt lat="49.6383432951" lon="12.3901871033"><ele>561.07</ele><time>2014-05-03T11:32:53Z</time></trkpt><trkpt lat="49.6383628249" lon="12.3901323695"><ele>561.07</ele><time>2014-05-03T11:32:54Z</time></trkpt><trkpt lat="49.6383789182" lon="12.3900805693"><ele>561.07</ele><time>2014-05-03T11:32:55Z</time></trkpt><trkpt lat="49.6383974422" lon="12.3900297750"><ele>561.07</ele><time>2014-05-03T11:32:56Z</time></trkpt><trkpt lat="49.6384166367" lon="12.3899800703"><ele>561.07</ele><time>2014-05-03T11:32:57Z</time></trkpt><trkpt lat="49.6384435426" lon="12.3899444472"><ele>561.55</ele><time>2014-05-03T11:32:58Z</time></trkpt><trkpt lat="49.6384709515" lon="12.3899097461"><ele>561.55</ele><time>2014-05-03T11:32:59Z</time></trkpt><trkpt lat="49.6384992823" lon="12.3898696806"><ele>561.55</ele><time>2014-05-03T11:33:00Z</time></trkpt><trkpt lat="49.6385280322" lon="12.3898284417"><ele>561.55</ele><time>2014-05-03T11:33:01Z</time></trkpt><trkpt lat="49.6385578718" lon="12.3897878733"><ele>562.03</ele><time>2014-05-03T11:33:02Z</time></trkpt><trkpt lat="49.6385868732" lon="12.3897431977"><ele>562.03</ele><time>2014-05-03T11:33:03Z</time></trkpt><trkpt lat="49.6386135276" lon="12.3896959238"><ele>562.03</ele><time>2014-05-03T11:33:04Z</time></trkpt><trkpt lat="49.6386406850" lon="12.3896487337"><ele>562.03</ele><time>2014-05-03T11:33:05Z</time></trkpt><trkpt lat="49.6386681776" lon="12.3896024656"><ele>562.03</ele><time>2014-05-03T11:33:06Z</time></trkpt><trkpt lat="49.6386963408" lon="12.3895602208"><ele>562.51</ele><time>2014-05-03T11:33:07Z</time></trkpt><trkpt lat="49.6387270186" lon="12.3895208258"><ele>562.51</ele><time>2014-05-03T11:33:08Z</time></trkpt><trkpt lat="49.6387598757" lon="12.3894823529"><ele>562.51</ele><time>2014-05-03T11:33:09Z</time></trkpt><trkpt lat="49.6387903020" lon="12.3894414492"><ele>562.51</ele><time>2014-05-03T11:33:10Z</time></trkpt><trkpt lat="49.6388207283" lon="12.3893988691"><ele>562.51</ele><time>2014-05-03T11:33:11Z</time></trkpt><trkpt lat="49.6388448682" lon="12.3893455602"><ele>562.51</ele><time>2014-05-03T11:33:12Z</time></trkpt><trkpt lat="49.6388640627" lon="12.3892900720"><ele>562.99</ele><time>2014-05-03T11:33:13Z</time></trkpt><trkpt lat="49.6388825029" lon="12.3892362602"><ele>562.99</ele><time>2014-05-03T11:33:14Z</time></trkpt><trkpt lat="49.6389039606" lon="12.3891839571"><ele>562.99</ele><time>2014-05-03T11:33:15Z</time></trkpt><trkpt lat="49.6389288548" lon="12.3891349230"><ele>562.99</ele><time>2014-05-03T11:33:16Z</time></trkpt><trkpt lat="49.6389519051" lon="12.3890847992"><ele>562.99</ele><time>2014-05-03T11:33:17Z</time></trkpt><trkpt lat="49.6389764640" lon="12.3890376929"><ele>562.99</ele><time>2014-05-03T11:33:18Z</time></trkpt><trkpt lat="49.6389971673" lon="12.3889841326"><ele>562.99</ele><time>2014-05-03T11:33:19Z</time></trkpt><trkpt lat="49.6390155237" lon="12.3889268842"><ele>563.47</ele><time>2014-05-03T11:33:20Z</time></trkpt><trkpt lat="49.6390338801" lon="12.3888695519"><ele>563.47</ele><time>2014-05-03T11:33:21Z</time></trkpt><trkpt lat="49.6390565112" lon="12.3888193443"><ele>563.47</ele><time>2014-05-03T11:33:22Z</time></trkpt><trkpt lat="49.6390788071" lon="12.3887709808"><ele>563.47</ele><time>2014-05-03T11:33:23Z</time></trkpt><trkpt lat="49.6390994266" lon="12.3887202702"><ele>563.47</ele><time>2014-05-03T11:33:24Z</time></trkpt><trkpt lat="49.6391126700" lon="12.3886602558"><ele>563.47</ele><time>2014-05-03T11:33:25Z</time></trkpt><trkpt lat="49.6391291823" lon="12.3886043485"><ele>563.47</ele><time>2014-05-03T11:33:26Z</time></trkpt><trkpt lat="49.6391469520" lon="12.3885469325"><ele>563.95</ele><time>2014-05-03T11:33:27Z</time></trkpt><trkpt lat="49.6391642187" lon="12.3884900194"><ele>563.95</ele><time>2014-05-03T11:33:28Z</time></trkpt><trkpt lat="49.6391847543" lon="12.3884354532"><ele>563.95</ele><time>2014-05-03T11:33:29Z</time></trkpt><trkpt lat="49.6392056253" lon="12.3883781210"><ele>563.95</ele><time>2014-05-03T11:33:30Z</time></trkpt><trkpt lat="49.6392267477" lon="12.3883208726"><ele>563.95</ele><time>2014-05-03T11:33:31Z</time></trkpt><trkpt lat="49.6392503008" lon="12.3882687371"><ele>564.43</ele><time>2014-05-03T11:33:32Z</time></trkpt><trkpt lat="49.6392730158" lon="12.3882158473"><ele>564.43</ele><time>2014-05-03T11:33:33Z</time></trkpt><trkpt lat="49.6392983291" lon="12.3881661426"><ele>564.43</ele><time>2014-05-03T11:33:34Z</time></trkpt><trkpt lat="49.6393239778" lon="12.3881160188"><ele>564.43</ele><time>2014-05-03T11:33:35Z</time></trkpt><trkpt lat="49.6393475309" lon="12.3880606983"><ele>564.91</ele><time>2014-05-03T11:33:36Z</time></trkpt><trkpt lat="49.6393740177" lon="12.3880059645"><ele>564.91</ele><time>2014-05-03T11:33:37Z</time></trkpt><trkpt lat="49.6394049469" lon="12.3879539128"><ele>564.91</ele><time>2014-05-03T11:33:38Z</time></trkpt><trkpt lat="49.6394336130" lon="12.3878999334"><ele>564.91</ele><time>2014-05-03T11:33:39Z</time></trkpt><trkpt lat="49.6394598484" lon="12.3878452834"><ele>564.91</ele><time>2014-05-03T11:33:40Z</time></trkpt><trkpt lat="49.6394853294" lon="12.3877926450"><ele>565.39</ele><time>2014-05-03T11:33:41Z</time></trkpt><trkpt lat="49.6395043563" lon="12.3877346423"><ele>565.39</ele><time>2014-05-03T11:33:42Z</time></trkpt><trkpt lat="49.6395190246" lon="12.3876677547"><ele>565.39</ele><time>2014-05-03T11:33:43Z</time></trkpt><trkpt lat="49.6395349503" lon="12.3876056448"><ele>565.39</ele><time>2014-05-03T11:33:44Z</time></trkpt><trkpt lat="49.6395538095" lon="12.3875482287"><ele>565.39</ele><time>2014-05-03T11:33:45Z</time></trkpt><trkpt lat="49.6395750158" lon="12.3874920700"><ele>565.39</ele><time>2014-05-03T11:33:46Z</time></trkpt><trkpt lat="49.6395958867" lon="12.3874357436"><ele>565.39</ele><time>2014-05-03T11:33:47Z</time></trkpt><trkpt lat="49.6396149974" lon="12.3873778246"><ele>565.39</ele><time>2014-05-03T11:33:48Z</time></trkpt><trkpt lat="49.6396359522" lon="12.3873257730"><ele>565.87</ele><time>2014-05-03T11:33:49Z</time></trkpt><trkpt lat="49.6396563202" lon="12.3872731347"><ele>565.87</ele><time>2014-05-03T11:33:50Z</time></trkpt><trkpt lat="49.6396788675" lon="12.3872215860"><ele>565.87</ele><time>2014-05-03T11:33:51Z</time></trkpt><trkpt lat="49.6397044323" lon="12.3871701211"><ele>565.87</ele><time>2014-05-03T11:33:52Z</time></trkpt><trkpt lat="49.6397293266" lon="12.3871184886"><ele>565.87</ele><time>2014-05-03T11:33:53Z</time></trkpt><trkpt lat="49.6397523768" lon="12.3870665208"><ele>565.87</ele><time>2014-05-03T11:33:54Z</time></trkpt><trkpt lat="49.6397755109" lon="12.3870146368"><ele>566.35</ele><time>2014-05-03T11:33:55Z</time></trkpt><trkpt lat="49.6398009080" lon="12.3869667761"><ele>566.35</ele><time>2014-05-03T11:33:56Z</time></trkpt><trkpt lat="49.6398250479" lon="12.3869157303"><ele>566.35</ele><time>2014-05-03T11:33:57Z</time></trkpt><trkpt lat="49.6398474276" lon="12.3868609965"><ele>566.35</ele><time>2014-05-03T11:33:58Z</time></trkpt><trkpt lat="49.6398708969" lon="12.3868069332"><ele>566.83</ele><time>2014-05-03T11:33:59Z</time></trkpt><trkpt lat="49.6398932766" lon="12.3867524508"><ele>566.83</ele><time>2014-05-03T11:34:00Z</time></trkpt><trkpt lat="49.6399145667" lon="12.3866938613"><ele>566.83</ele><time>2014-05-03T11:34:01Z</time></trkpt><trkpt lat="49.6399335098" lon="12.3866324220"><ele>566.83</ele><time>2014-05-03T11:34:02Z</time></trkpt><trkpt lat="49.6399525367" lon="12.3865678813"><ele>566.83</ele><time>2014-05-03T11:34:03Z</time></trkpt><trkpt lat="49.6399782691" lon="12.3865125608"><ele>567.32</ele><time>2014-05-03T11:34:04Z</time></trkpt><trkpt lat="49.6400054265" lon="12.3864576593"><ele>567.32</ele><time>2014-05-03T11:34:05Z</time></trkpt><trkpt lat="49.6400319133" lon="12.3864043504"><ele>567.32</ele><time>2014-05-03T11:34:06Z</time></trkpt><trkpt lat="49.6400595736" lon="12.3863548134"><ele>567.32</ele><time>2014-05-03T11:34:07Z</time></trkpt><trkpt lat="49.6400880720" lon="12.3863071203"><ele>567.32</ele><time>2014-05-03T11:34:08Z</time></trkpt><trkpt lat="49.6401158161" lon="12.3862619419"><ele>567.32</ele><time>2014-05-03T11:34:09Z</time></trkpt><trkpt lat="49.6401459910" lon="12.3862173501"><ele>567.32</ele><time>2014-05-03T11:34:10Z</time></trkpt><trkpt lat="49.6401778422" lon="12.3861733451"><ele>567.80</ele><time>2014-05-03T11:34:11Z</time></trkpt><trkpt lat="49.6402070951" lon="12.3861295078"><ele>567.80</ele><time>2014-05-03T11:34:12Z</time></trkpt><trkpt lat="49.6402335819" lon="12.3860811442"><ele>567.80</ele><time>2014-05-03T11:34:13Z</time></trkpt><trkpt lat="49.6402602363" lon="12.3860280868"><ele>567.80</ele><time>2014-05-03T11:34:14Z</time></trkpt><trkpt lat="49.6402847953" lon="12.3859722633"><ele>568.28</ele><time>2014-05-03T11:34:15Z</time></trkpt><trkpt lat="49.6403106116" lon="12.3859193735"><ele>568.28</ele><time>2014-05-03T11:34:16Z</time></trkpt><trkpt lat="49.6403362602" lon="12.3858679086"><ele>568.28</ele><time>2014-05-03T11:34:17Z</time></trkpt><trkpt lat="49.6403598133" lon="12.3858173657"><ele>568.28</ele><time>2014-05-03T11:34:18Z</time></trkpt><trkpt lat="49.6403836180" lon="12.3857676610"><ele>568.28</ele><time>2014-05-03T11:34:19Z</time></trkpt><trkpt lat="49.6404085122" lon="12.3857192975"><ele>568.76</ele><time>2014-05-03T11:34:20Z</time></trkpt><trkpt lat="49.6404326521" lon="12.3856696766"><ele>568.76</ele><time>2014-05-03T11:34:21Z</time></trkpt><trkpt lat="49.6404599771" lon="12.3856217321"><ele>568.76</ele><time>2014-05-03T11:34:22Z</time></trkpt><trkpt lat="49.6404883079" lon="12.3855734523"><ele>568.76</ele><time>2014-05-03T11:34:23Z</time></trkpt><trkpt lat="49.6405149624" lon="12.3855215684"><ele>568.76</ele><time>2014-05-03T11:34:24Z</time></trkpt><trkpt lat="49.6405402757" lon="12.3854676727"><ele>569.24</ele><time>2014-05-03T11:34:25Z</time></trkpt><trkpt lat="49.6405664273" lon="12.3854129389"><ele>569.24</ele><time>2014-05-03T11:34:26Z</time></trkpt><trkpt lat="49.6405930817" lon="12.3853583727"><ele>569.24</ele><time>2014-05-03T11:34:27Z</time></trkpt><trkpt lat="49.6406191494" lon="12.3853031360"><ele>569.24</ele><time>2014-05-03T11:34:28Z</time></trkpt><trkpt lat="49.6406483185" lon="12.3852546047"><ele>569.24</ele><time>2014-05-03T11:34:29Z</time></trkpt><trkpt lat="49.6406789124" lon="12.3852065764"><ele>569.24</ele><time>2014-05-03T11:34:30Z</time></trkpt><trkpt lat="49.6407090873" lon="12.3851610627"><ele>569.72</ele><time>2014-05-03T11:34:31Z</time></trkpt><trkpt lat="49.6407393459" lon="12.3851184826"><ele>569.72</ele><time>2014-05-03T11:34:32Z</time></trkpt><trkpt lat="49.6407669224" lon="12.3850725498"><ele>569.72</ele><time>2014-05-03T11:34:33Z</time></trkpt><trkpt lat="49.6407919843" lon="12.3850229289"><ele>569.72</ele><time>2014-05-03T11:34:34Z</time></trkpt><trkpt lat="49.6408137772" lon="12.3849674407"><ele>570.20</ele><time>2014-05-03T11:34:35Z</time></trkpt><trkpt lat="49.6408393420" lon="12.3849161435"><ele>569.72</ele><time>2014-05-03T11:34:36Z</time></trkpt><trkpt lat="49.6408662479" lon="12.3848663550"><ele>570.20</ele><time>2014-05-03T11:34:37Z</time></trkpt><trkpt lat="49.6408968419" lon="12.3848191649"><ele>570.20</ele><time>2014-05-03T11:34:38Z</time></trkpt><trkpt lat="49.6409312915" lon="12.3847777583"><ele>570.20</ele><time>2014-05-03T11:34:39Z</time></trkpt><trkpt lat="49.6409661602" lon="12.3847393692"><ele>570.68</ele><time>2014-05-03T11:34:40Z</time></trkpt><trkpt lat="49.6409987658" lon="12.3846972920"><ele>570.20</ele><time>2014-05-03T11:34:41Z</time></trkpt><trkpt lat="49.6410312038" lon="12.3846545443"><ele>570.68</ele><time>2014-05-03T11:34:42Z</time></trkpt><trkpt lat="49.6410669107" lon="12.3846159037"><ele>570.68</ele><time>2014-05-03T11:34:43Z</time></trkpt><trkpt lat="49.6411029529" lon="12.3845764250"><ele>570.68</ele><time>2014-05-03T11:34:44Z</time></trkpt><trkpt lat="49.6411355585" lon="12.3845340125"><ele>570.68</ele><time>2014-05-03T11:34:45Z</time></trkpt><trkpt lat="49.6411671583" lon="12.3844921030"><ele>570.68</ele><time>2014-05-03T11:34:46Z</time></trkpt><trkpt lat="49.6412021946" lon="12.3844540492"><ele>571.16</ele><time>2014-05-03T11:34:47Z</time></trkpt><trkpt lat="49.6412379015" lon="12.3844164982"><ele>571.16</ele><time>2014-05-03T11:34:48Z</time></trkpt><trkpt lat="49.6412738599" lon="12.3843789473"><ele>571.16</ele><time>2014-05-03T11:34:49Z</time></trkpt><trkpt lat="49.6413104888" lon="12.3843427375"><ele>571.16</ele><time>2014-05-03T11:34:50Z</time></trkpt><trkpt lat="49.6413471177" lon="12.3843037616"><ele>571.64</ele><time>2014-05-03T11:34:51Z</time></trkpt><trkpt lat="49.6413840819" lon="12.3842667136"><ele>571.64</ele><time>2014-05-03T11:34:52Z</time></trkpt><trkpt lat="49.6414195374" lon="12.3842315935"><ele>571.64</ele><time>2014-05-03T11:34:53Z</time></trkpt><trkpt lat="49.6414595190" lon="12.3842015024"><ele>571.64</ele><time>2014-05-03T11:34:54Z</time></trkpt><trkpt lat="49.6415038593" lon="12.3841741774"><ele>571.64</ele><time>2014-05-03T11:34:55Z</time></trkpt><trkpt lat="49.6415462717" lon="12.3841483612"><ele>572.12</ele><time>2014-05-03T11:34:56Z</time></trkpt><trkpt lat="49.6415824816" lon="12.3841194436"><ele>572.12</ele><time>2014-05-03T11:34:57Z</time></trkpt><trkpt lat="49.6416224632" lon="12.3840935435"><ele>572.12</ele><time>2014-05-03T11:34:58Z</time></trkpt><trkpt lat="49.6416584216" lon="12.3840595968"><ele>572.12</ele><time>2014-05-03T11:34:59Z</time></trkpt><trkpt lat="49.6416968107" lon="12.3840303440"><ele>572.12</ele><time>2014-05-03T11:35:00Z</time></trkpt><trkpt lat="49.6417389717" lon="12.3840114847"><ele>572.12</ele><time>2014-05-03T11:35:01Z</time></trkpt><trkpt lat="49.6417811327" lon="12.3839924578"><ele>572.12</ele><time>2014-05-03T11:35:02Z</time></trkpt><trkpt lat="49.6418186836" lon="12.3839735985"><ele>572.60</ele><time>2014-05-03T11:35:03Z</time></trkpt><trkpt lat="49.6418493614" lon="12.3839571700"><ele>572.60</ele><time>2014-05-03T11:35:04Z</time></trkpt><trkpt lat="49.6418834757" lon="12.3839468602"><ele>572.60</ele><time>2014-05-03T11:35:05Z</time></trkpt><trkpt lat="49.6419188473" lon="12.3839352932"><ele>572.60</ele><time>2014-05-03T11:35:06Z</time></trkpt><trkpt lat="49.6419556439" lon="12.3839253187"><ele>572.60</ele><time>2014-05-03T11:35:07Z</time></trkpt><trkpt lat="49.6419903450" lon="12.3839182779"><ele>572.60</ele><time>2014-05-03T11:35:08Z</time></trkpt><trkpt lat="49.6420238726" lon="12.3839093931"><ele>573.08</ele><time>2014-05-03T11:35:09Z</time></trkpt><trkpt lat="49.6420652792" lon="12.3839012627"><ele>572.60</ele><time>2014-05-03T11:35:10Z</time></trkpt><trkpt lat="49.6421079431" lon="12.3838939704"><ele>573.08</ele><time>2014-05-03T11:35:11Z</time></trkpt><trkpt lat="49.6421476733" lon="12.3838856723"><ele>573.08</ele><time>2014-05-03T11:35:12Z</time></trkpt><trkpt lat="49.6421875712" lon="12.3838780448"><ele>573.08</ele><time>2014-05-03T11:35:13Z</time></trkpt><trkpt lat="49.6422278881" lon="12.3838675674"><ele>573.08</ele><time>2014-05-03T11:35:14Z</time></trkpt><trkpt lat="49.6422695462" lon="12.3838633765"><ele>573.08</ele><time>2014-05-03T11:35:15Z</time></trkpt><trkpt lat="49.6423096955" lon="12.3838628735"><ele>573.08</ele><time>2014-05-03T11:35:16Z</time></trkpt><trkpt lat="49.6423538681" lon="12.3838640470"><ele>573.56</ele><time>2014-05-03T11:35:17Z</time></trkpt><trkpt lat="49.6423992142" lon="12.3838635441"><ele>573.08</ele><time>2014-05-03T11:35:18Z</time></trkpt><trkpt lat="49.6424493380" lon="12.3838627059"><ele>573.56</ele><time>2014-05-03T11:35:19Z</time></trkpt><trkpt lat="49.6425016411" lon="12.3838622030"><ele>574.04</ele><time>2014-05-03T11:35:20Z</time></trkpt><trkpt lat="49.6425508428" lon="12.3838606104"><ele>574.04</ele><time>2014-05-03T11:35:21Z</time></trkpt><trkpt lat="49.6426036488" lon="12.3838528153"><ele>574.04</ele><time>2014-05-03T11:35:22Z</time></trkpt><trkpt lat="49.6426578797" lon="12.3838430084"><ele>574.04</ele><time>2014-05-03T11:35:23Z</time></trkpt><trkpt lat="49.6427043993" lon="12.3838408291"><ele>574.04</ele><time>2014-05-03T11:35:24Z</time></trkpt><trkpt lat="49.6427485719" lon="12.3838477023"><ele>574.04</ele><time>2014-05-03T11:35:25Z</time></trkpt><trkpt lat="49.6427922416" lon="12.3838566709"><ele>574.04</ele><time>2014-05-03T11:35:26Z</time></trkpt><trkpt lat="49.6428340673" lon="12.3838619515"><ele>574.04</ele><time>2014-05-03T11:35:27Z</time></trkpt><trkpt lat="49.6428736299" lon="12.3838687409"><ele>574.04</ele><time>2014-05-03T11:35:28Z</time></trkpt><trkpt lat="49.6429117676" lon="12.3838776257"><ele>574.53</ele><time>2014-05-03T11:35:29Z</time></trkpt><trkpt lat="49.6429502405" lon="12.3838848341"><ele>574.53</ele><time>2014-05-03T11:35:30Z</time></trkpt><trkpt lat="49.6429916471" lon="12.3838893604"><ele>574.53</ele><time>2014-05-03T11:35:31Z</time></trkpt><trkpt lat="49.6430344786" lon="12.3838963173"><ele>574.53</ele><time>2014-05-03T11:35:32Z</time></trkpt><trkpt lat="49.6430747956" lon="12.3839064594"><ele>575.01</ele><time>2014-05-03T11:35:33Z</time></trkpt><trkpt lat="49.6431118436" lon="12.3839150090"><ele>575.01</ele><time>2014-05-03T11:35:34Z</time></trkpt><trkpt lat="49.6431433596" lon="12.3839180265"><ele>575.01</ele><time>2014-05-03T11:35:35Z</time></trkpt><trkpt lat="49.6431773901" lon="12.3839170206"><ele>575.01</ele><time>2014-05-03T11:35:36Z</time></trkpt><trkpt lat="49.6432164498" lon="12.3839219660"><ele>575.01</ele><time>2014-05-03T11:35:37Z</time></trkpt><trkpt lat="49.6432562638" lon="12.3839306831"><ele>575.49</ele><time>2014-05-03T11:35:38Z</time></trkpt><trkpt lat="49.6432907134" lon="12.3839368857"><ele>575.49</ele><time>2014-05-03T11:35:39Z</time></trkpt><trkpt lat="49.6433261689" lon="12.3839386459"><ele>575.49</ele><time>2014-05-03T11:35:40Z</time></trkpt><trkpt lat="49.6433608700" lon="12.3839404900"><ele>575.97</ele><time>2014-05-03T11:35:41Z</time></trkpt><trkpt lat="49.6434000134" lon="12.3839445133"><ele>575.97</ele><time>2014-05-03T11:35:42Z</time></trkpt><trkpt lat="49.6434422582" lon="12.3839501292"><ele>575.97</ele><time>2014-05-03T11:35:43Z</time></trkpt><trkpt lat="49.6434833296" lon="12.3839568347"><ele>575.97</ele><time>2014-05-03T11:35:44Z</time></trkpt><trkpt lat="49.6435201261" lon="12.3839620315"><ele>575.97</ele><time>2014-05-03T11:35:45Z</time></trkpt><trkpt lat="49.6435565036" lon="12.3839657195"><ele>576.45</ele><time>2014-05-03T11:35:46Z</time></trkpt><trkpt lat="49.6435944736" lon="12.3839677311"><ele>576.45</ele><time>2014-05-03T11:35:47Z</time></trkpt><trkpt lat="49.6436352096" lon="12.3839673121"><ele>576.45</ele><time>2014-05-03T11:35:48Z</time></trkpt><trkpt lat="49.6436767001" lon="12.3839658033"><ele>576.45</ele><time>2014-05-03T11:35:49Z</time></trkpt><trkpt lat="49.6437148377" lon="12.3839647137"><ele>576.93</ele><time>2014-05-03T11:35:50Z</time></trkpt><trkpt lat="49.6437515505" lon="12.3839611933"><ele>576.93</ele><time>2014-05-03T11:35:51Z</time></trkpt><trkpt lat="49.6437857486" lon="12.3839610256"><ele>576.93</ele><time>2014-05-03T11:35:52Z</time></trkpt><trkpt lat="49.6438205335" lon="12.3839618638"><ele>576.93</ele><time>2014-05-03T11:35:53Z</time></trkpt><trkpt lat="49.6438571624" lon="12.3839667253"><ele>576.93</ele><time>2014-05-03T11:35:54Z</time></trkpt><trkpt lat="49.6438981500" lon="12.3839741014"><ele>576.93</ele><time>2014-05-03T11:35:55Z</time></trkpt><trkpt lat="49.6439434122" lon="12.3839715868"><ele>576.93</ele><time>2014-05-03T11:35:56Z</time></trkpt><trkpt lat="49.6439865790" lon="12.3839666415"><ele>577.41</ele><time>2014-05-03T11:35:57Z</time></trkpt><trkpt lat="49.6440333501" lon="12.3839595169"><ele>576.93</ele><time>2014-05-03T11:35:58Z</time></trkpt><trkpt lat="49.6440824680" lon="12.3839517217"><ele>577.41</ele><time>2014-05-03T11:35:59Z</time></trkpt><trkpt lat="49.6441262215" lon="12.3839435074"><ele>577.41</ele><time>2014-05-03T11:36:00Z</time></trkpt><trkpt lat="49.6441752557" lon="12.3839339521"><ele>577.41</ele><time>2014-05-03T11:36:01Z</time></trkpt><trkpt lat="49.6442250442" lon="12.3839220498"><ele>577.41</ele><time>2014-05-03T11:36:02Z</time></trkpt><trkpt lat="49.6442703065" lon="12.3839054536"><ele>577.41</ele><time>2014-05-03T11:36:03Z</time></trkpt><trkpt lat="49.6443146467" lon="12.3838843312"><ele>577.89</ele><time>2014-05-03T11:36:04Z</time></trkpt><trkpt lat="49.6443608310" lon="12.3838644661"><ele>577.89</ele><time>2014-05-03T11:36:05Z</time></trkpt><trkpt lat="49.6444107033" lon="12.3838505521"><ele>577.89</ele><time>2014-05-03T11:36:06Z</time></trkpt><trkpt lat="49.6444552951" lon="12.3838394042"><ele>577.89</ele><time>2014-05-03T11:36:07Z</time></trkpt><trkpt lat="49.6444987133" lon="12.3838230595"><ele>577.89</ele><time>2014-05-03T11:36:08Z</time></trkpt><trkpt lat="49.6445427183" lon="12.3838005122"><ele>577.89</ele><time>2014-05-03T11:36:09Z</time></trkpt><trkpt lat="49.6445850469" lon="12.3837750312"><ele>578.37</ele><time>2014-05-03T11:36:10Z</time></trkpt><trkpt lat="49.6446297225" lon="12.3837518133"><ele>578.37</ele><time>2014-05-03T11:36:11Z</time></trkpt><trkpt lat="49.6446774155" lon="12.3837258294"><ele>578.37</ele><time>2014-05-03T11:36:12Z</time></trkpt><trkpt lat="49.6447218396" lon="12.3837026116"><ele>578.37</ele><time>2014-05-03T11:36:13Z</time></trkpt><trkpt lat="49.6447662637" lon="12.3836772982"><ele>578.37</ele><time>2014-05-03T11:36:14Z</time></trkpt><trkpt lat="49.6448101010" lon="12.3836485483"><ele>578.37</ele><time>2014-05-03T11:36:15Z</time></trkpt><trkpt lat="49.6448527649" lon="12.3836194631"><ele>578.85</ele><time>2014-05-03T11:36:16Z</time></trkpt><trkpt lat="49.6448912378" lon="12.3835876118"><ele>578.85</ele><time>2014-05-03T11:36:17Z</time></trkpt><trkpt lat="49.6449292079" lon="12.3835537490"><ele>578.85</ele><time>2014-05-03T11:36:18Z</time></trkpt><trkpt lat="49.6449670941" lon="12.3835224845"><ele>578.85</ele><time>2014-05-03T11:36:19Z</time></trkpt><trkpt lat="49.6450028010" lon="12.3834871128"><ele>578.85</ele><time>2014-05-03T11:36:20Z</time></trkpt><trkpt lat="49.6450386755" lon="12.3834503163"><ele>578.85</ele><time>2014-05-03T11:36:21Z</time></trkpt><trkpt lat="49.6450758912" lon="12.3834095802"><ele>578.85</ele><time>2014-05-03T11:36:22Z</time></trkpt><trkpt lat="49.6451074071" lon="12.3833659105"><ele>578.85</ele><time>2014-05-03T11:36:23Z</time></trkpt><trkpt lat="49.6451393422" lon="12.3833223246"><ele>578.85</ele><time>2014-05-03T11:36:24Z</time></trkpt><trkpt lat="49.6451737918" lon="12.3832812533"><ele>579.33</ele><time>2014-05-03T11:36:25Z</time></trkpt><trkpt lat="49.6452092472" lon="12.3832421098"><ele>579.33</ele><time>2014-05-03T11:36:26Z</time></trkpt><trkpt lat="49.6452473849" lon="12.3832012899"><ele>579.33</ele><time>2014-05-03T11:36:27Z</time></trkpt><trkpt lat="49.6452893782" lon="12.3831597995"><ele>579.33</ele><time>2014-05-03T11:36:28Z</time></trkpt><trkpt lat="49.6453325450" lon="12.3831209913"><ele>579.33</ele><time>2014-05-03T11:36:29Z</time></trkpt><trkpt lat="49.6453757118" lon="12.3830768187"><ele>579.33</ele><time>2014-05-03T11:36:30Z</time></trkpt><trkpt lat="49.6454151906" lon="12.3830280360"><ele>579.33</ele><time>2014-05-03T11:36:31Z</time></trkpt><trkpt lat="49.6454503108" lon="12.3829759844"><ele>579.81</ele><time>2014-05-03T11:36:32Z</time></trkpt><trkpt lat="49.6454840899" lon="12.3829254415"><ele>579.81</ele><time>2014-05-03T11:36:33Z</time></trkpt><trkpt lat="49.6455153544" lon="12.3828708753"><ele>579.81</ele><time>2014-05-03T11:36:34Z</time></trkpt><trkpt lat="49.6455461998" lon="12.3828168120"><ele>579.81</ele><time>2014-05-03T11:36:35Z</time></trkpt><trkpt lat="49.6455795597" lon="12.3827627487"><ele>580.29</ele><time>2014-05-03T11:36:36Z</time></trkpt><trkpt lat="49.6456142608" lon="12.3827069253"><ele>580.29</ele><time>2014-05-03T11:36:37Z</time></trkpt><trkpt lat="49.6456484590" lon="12.3826464918"><ele>580.29</ele><time>2014-05-03T11:36:38Z</time></trkpt><trkpt lat="49.6456817351" lon="12.3825875670"><ele>580.29</ele><time>2014-05-03T11:36:39Z</time></trkpt><trkpt lat="49.6457123291" lon="12.3825290613"><ele>580.29</ele><time>2014-05-03T11:36:40Z</time></trkpt><trkpt lat="49.6457409952" lon="12.3824706394"><ele>580.77</ele><time>2014-05-03T11:36:41Z</time></trkpt><trkpt lat="49.6457680687" lon="12.3824128881"><ele>580.77</ele><time>2014-05-03T11:36:42Z</time></trkpt><trkpt lat="49.6457945555" lon="12.3823563941"><ele>580.77</ele><time>2014-05-03T11:36:43Z</time></trkpt><trkpt lat="49.6458209585" lon="12.3822977208"><ele>580.77</ele><time>2014-05-03T11:36:44Z</time></trkpt><trkpt lat="49.6458476968" lon="12.3822432384"><ele>580.77</ele><time>2014-05-03T11:36:45Z</time></trkpt><trkpt lat="49.6458732616" lon="12.3821868282"><ele>580.77</ele><time>2014-05-03T11:36:46Z</time></trkpt><trkpt lat="49.6459036041" lon="12.3821323458"><ele>581.25</ele><time>2014-05-03T11:36:47Z</time></trkpt><trkpt lat="49.6459378023" lon="12.3820811324"><ele>581.25</ele><time>2014-05-03T11:36:48Z</time></trkpt><trkpt lat="49.6459688991" lon="12.3820258118"><ele>581.25</ele><time>2014-05-03T11:36:49Z</time></trkpt><trkpt lat="49.6459976491" lon="12.3819696531"><ele>581.25</ele><time>2014-05-03T11:36:50Z</time></trkpt><trkpt lat="49.6460258961" lon="12.3819146678"><ele>581.25</ele><time>2014-05-03T11:36:51Z</time></trkpt><trkpt lat="49.6460527182" lon="12.3818588443"><ele>581.73</ele><time>2014-05-03T11:36:52Z</time></trkpt><trkpt lat="49.6460823063" lon="12.3818052839"><ele>581.73</ele><time>2014-05-03T11:36:53Z</time></trkpt><trkpt lat="49.6461156663" lon="12.3817519750"><ele>581.73</ele><time>2014-05-03T11:36:54Z</time></trkpt><trkpt lat="49.6461457573" lon="12.3816935532"><ele>581.73</ele><time>2014-05-03T11:36:55Z</time></trkpt><trkpt lat="49.6461679693" lon="12.3816254083"><ele>581.73</ele><time>2014-05-03T11:36:56Z</time></trkpt><trkpt lat="49.6461885888" lon="12.3815586884"><ele>582.22</ele><time>2014-05-03T11:36:57Z</time></trkpt><trkpt lat="49.6462118905" lon="12.3814963270"><ele>582.22</ele><time>2014-05-03T11:36:58Z</time></trkpt><trkpt lat="49.6462360304" lon="12.3814352229"><ele>582.22</ele><time>2014-05-03T11:36:59Z</time></trkpt><trkpt lat="49.6462616790" lon="12.3813762981"><ele>582.22</ele><time>2014-05-03T11:37:00Z</time></trkpt><trkpt lat="49.6462878305" lon="12.3813157808"><ele>582.22</ele><time>2014-05-03T11:37:01Z</time></trkpt><trkpt lat="49.6463157423" lon="12.3812544253"><ele>582.70</ele><time>2014-05-03T11:37:02Z</time></trkpt><trkpt lat="49.6463437378" lon="12.3811952490"><ele>582.70</ele><time>2014-05-03T11:37:03Z</time></trkpt><trkpt lat="49.6463735774" lon="12.3811366595"><ele>582.70</ele><time>2014-05-03T11:37:04Z</time></trkpt><trkpt lat="49.6464050096" lon="12.3810798302"><ele>583.18</ele><time>2014-05-03T11:37:05Z</time></trkpt><trkpt lat="49.6464346815" lon="12.3810236715"><ele>583.18</ele><time>2014-05-03T11:37:06Z</time></trkpt><trkpt lat="49.6464599948" lon="12.3809652496"><ele>583.18</ele><time>2014-05-03T11:37:07Z</time></trkpt><trkpt lat="49.6464841347" lon="12.3809086718"><ele>583.18</ele><time>2014-05-03T11:37:08Z</time></trkpt><trkpt lat="49.6465079393" lon="12.3808510881"><ele>583.18</ele><time>2014-05-03T11:37:09Z</time></trkpt><trkpt lat="49.6465350129" lon="12.3807919957"><ele>583.66</ele><time>2014-05-03T11:37:10Z</time></trkpt><trkpt lat="49.6465649363" lon="12.3807326518"><ele>583.66</ele><time>2014-05-03T11:37:11Z</time></trkpt><trkpt lat="49.6465994697" lon="12.3806800973"><ele>584.14</ele><time>2014-05-03T11:37:12Z</time></trkpt><trkpt lat="49.6466298122" lon="12.3806275427"><ele>584.14</ele><time>2014-05-03T11:37:13Z</time></trkpt><trkpt lat="49.6466571372" lon="12.3805702105"><ele>584.14</ele><time>2014-05-03T11:37:14Z</time></trkpt><trkpt lat="49.6466858033" lon="12.3805121239"><ele>584.14</ele><time>2014-05-03T11:37:15Z</time></trkpt><trkpt lat="49.6467130445" lon="12.3804522771"><ele>584.14</ele><time>2014-05-03T11:37:16Z</time></trkpt><trkpt lat="49.6467417106" lon="12.3803945258"><ele>584.62</ele><time>2014-05-03T11:37:17Z</time></trkpt><trkpt lat="49.6467648447" lon="12.3803306557"><ele>584.62</ele><time>2014-05-03T11:37:18Z</time></trkpt><trkpt lat="49.6467827819" lon="12.3802636005"><ele>584.62</ele><time>2014-05-03T11:37:19Z</time></trkpt><trkpt lat="49.6467981208" lon="12.3801947851"><ele>585.10</ele><time>2014-05-03T11:37:20Z</time></trkpt><trkpt lat="49.6468166448" lon="12.3801317532"><ele>585.10</ele><time>2014-05-03T11:37:21Z</time></trkpt><trkpt lat="49.6468291339" lon="12.3800623510"><ele>585.10</ele><time>2014-05-03T11:37:22Z</time></trkpt><trkpt lat="49.6468405332" lon="12.3799898475"><ele>585.10</ele><time>2014-05-03T11:37:23Z</time></trkpt><trkpt lat="49.6468479093" lon="12.3799126502"><ele>585.10</ele><time>2014-05-03T11:37:24Z</time></trkpt><trkpt lat="49.6468539443" lon="12.3798317648"><ele>585.58</ele><time>2014-05-03T11:37:25Z</time></trkpt><trkpt lat="49.6468583029" lon="12.3797528911"><ele>585.58</ele><time>2014-05-03T11:37:26Z</time></trkpt><trkpt lat="49.6468618233" lon="12.3796758614"><ele>585.58</ele><time>2014-05-03T11:37:27Z</time></trkpt><trkpt lat="49.6468652599" lon="12.3796016816"><ele>585.58</ele><time>2014-05-03T11:37:28Z</time></trkpt><trkpt lat="49.6468671877" lon="12.3795280885"><ele>585.58</ele><time>2014-05-03T11:37:29Z</time></trkpt><trkpt lat="49.6468695346" lon="12.3794561718"><ele>585.58</ele><time>2014-05-03T11:37:30Z</time></trkpt><trkpt lat="49.6468711272" lon="12.3793835007"><ele>586.06</ele><time>2014-05-03T11:37:31Z</time></trkpt><trkpt lat="49.6468730550" lon="12.3793091532"><ele>586.06</ele><time>2014-05-03T11:37:32Z</time></trkpt><trkpt lat="49.6468681935" lon="12.3792332970"><ele>586.06</ele><time>2014-05-03T11:37:33Z</time></trkpt><trkpt lat="49.6468620747" lon="12.3791573569"><ele>586.06</ele><time>2014-05-03T11:37:34Z</time></trkpt><trkpt lat="49.6468596440" lon="12.3790804949"><ele>586.06</ele><time>2014-05-03T11:37:35Z</time></trkpt><trkpt lat="49.6468610689" lon="12.3790065665"><ele>586.54</ele><time>2014-05-03T11:37:36Z</time></trkpt><trkpt lat="49.6468588058" lon="12.3789291177"><ele>586.54</ele><time>2014-05-03T11:37:37Z</time></trkpt><trkpt lat="49.6468592249" lon="12.3788550217"><ele>586.54</ele><time>2014-05-03T11:37:38Z</time></trkpt><trkpt lat="49.6468629129" lon="12.3787812609"><ele>586.54</ele><time>2014-05-03T11:37:39Z</time></trkpt><trkpt lat="49.6468634997" lon="12.3787071649"><ele>586.54</ele><time>2014-05-03T11:37:40Z</time></trkpt><trkpt lat="49.6468656790" lon="12.3786344938"><ele>587.02</ele><time>2014-05-03T11:37:41Z</time></trkpt><trkpt lat="49.6468678582" lon="12.3785607331"><ele>587.02</ele><time>2014-05-03T11:37:42Z</time></trkpt><trkpt lat="49.6468685288" lon="12.3784847092"><ele>587.02</ele><time>2014-05-03T11:37:43Z</time></trkpt><trkpt lat="49.6468669362" lon="12.3784070089"><ele>587.50</ele><time>2014-05-03T11:37:44Z</time></trkpt><trkpt lat="49.6468638349" lon="12.3783300631"><ele>587.50</ele><time>2014-05-03T11:37:45Z</time></trkpt><trkpt lat="49.6468593925" lon="12.3782534525"><ele>587.50</ele><time>2014-05-03T11:37:46Z</time></trkpt><trkpt lat="49.6468492504" lon="12.3781729024"><ele>587.50</ele><time>2014-05-03T11:37:47Z</time></trkpt><trkpt lat="49.6468386892" lon="12.3780907597"><ele>587.98</ele><time>2014-05-03T11:37:48Z</time></trkpt><trkpt lat="49.6468331572" lon="12.3780095391"><ele>587.98</ele><time>2014-05-03T11:37:49Z</time></trkpt><trkpt lat="49.6468259487" lon="12.3779300787"><ele>587.98</ele><time>2014-05-03T11:37:50Z</time></trkpt><trkpt lat="49.6468173154" lon="12.3778447509"><ele>587.98</ele><time>2014-05-03T11:37:51Z</time></trkpt><trkpt lat="49.6468086820" lon="12.3777577467"><ele>587.98</ele><time>2014-05-03T11:37:52Z</time></trkpt><trkpt lat="49.6467982046" lon="12.3776761070"><ele>587.98</ele><time>2014-05-03T11:37:53Z</time></trkpt><trkpt lat="49.6467840392" lon="12.3775917012"><ele>588.46</ele><time>2014-05-03T11:37:54Z</time></trkpt><trkpt lat="49.6467734780" lon="12.3775035236"><ele>588.46</ele><time>2014-05-03T11:37:55Z</time></trkpt><trkpt lat="49.6467699576" lon="12.3774189502"><ele>588.46</ele><time>2014-05-03T11:37:56Z</time></trkpt><trkpt lat="49.6467670240" lon="12.3773368075"><ele>588.46</ele><time>2014-05-03T11:37:57Z</time></trkpt><trkpt lat="49.6467624139" lon="12.3772558384"><ele>588.46</ele><time>2014-05-03T11:37:58Z</time></trkpt><trkpt lat="49.6467567142" lon="12.3771765456"><ele>588.46</ele><time>2014-05-03T11:37:59Z</time></trkpt><trkpt lat="49.6467521042" lon="12.3770981748"><ele>588.46</ele><time>2014-05-03T11:38:00Z</time></trkpt><trkpt lat="49.6467495058" lon="12.3770197202"><ele>588.95</ele><time>2014-05-03T11:38:01Z</time></trkpt><trkpt lat="49.6467486676" lon="12.3769394215"><ele>588.95</ele><time>2014-05-03T11:38:02Z</time></trkpt><trkpt lat="49.6467505116" lon="12.3768610507"><ele>588.95</ele><time>2014-05-03T11:38:03Z</time></trkpt><trkpt lat="49.6467535291" lon="12.3767852783"><ele>588.95</ele><time>2014-05-03T11:38:04Z</time></trkpt><trkpt lat="49.6467574686" lon="12.3767156247"><ele>588.95</ele><time>2014-05-03T11:38:05Z</time></trkpt><trkpt lat="49.6467610728" lon="12.3766396847"><ele>588.95</ele><time>2014-05-03T11:38:06Z</time></trkpt><trkpt lat="49.6467666049" lon="12.3765593860"><ele>588.95</ele><time>2014-05-03T11:38:07Z</time></trkpt><trkpt lat="49.6467737295" lon="12.3764788359"><ele>589.43</ele><time>2014-05-03T11:38:08Z</time></trkpt><trkpt lat="49.6467811055" lon="12.3764004651"><ele>589.43</ele><time>2014-05-03T11:38:09Z</time></trkpt><trkpt lat="49.6467876434" lon="12.3763197474"><ele>589.43</ele><time>2014-05-03T11:38:10Z</time></trkpt><trkpt lat="49.6467932593" lon="12.3762438912"><ele>589.43</ele><time>2014-05-03T11:38:11Z</time></trkpt><trkpt lat="49.6468034014" lon="12.3761687055"><ele>589.43</ele><time>2014-05-03T11:38:12Z</time></trkpt><trkpt lat="49.6468165610" lon="12.3760958668"><ele>589.43</ele><time>2014-05-03T11:38:13Z</time></trkpt><trkpt lat="49.6468297206" lon="12.3760246206"><ele>589.43</ele><time>2014-05-03T11:38:14Z</time></trkpt><trkpt lat="49.6468399465" lon="12.3759508599"><ele>589.91</ele><time>2014-05-03T11:38:15Z</time></trkpt><trkpt lat="49.6468515135" lon="12.3758770991"><ele>589.91</ele><time>2014-05-03T11:38:16Z</time></trkpt><trkpt lat="49.6468686126" lon="12.3758069426"><ele>589.91</ele><time>2014-05-03T11:38:17Z</time></trkpt><trkpt lat="49.6468849573" lon="12.3757391330"><ele>589.91</ele><time>2014-05-03T11:38:18Z</time></trkpt><trkpt lat="49.6469028108" lon="12.3756735865"><ele>589.91</ele><time>2014-05-03T11:38:19Z</time></trkpt><trkpt lat="49.6469237655" lon="12.3756087106"><ele>589.91</ele><time>2014-05-03T11:38:20Z</time></trkpt><trkpt lat="49.6469436307" lon="12.3755434994"><ele>590.39</ele><time>2014-05-03T11:38:21Z</time></trkpt><trkpt lat="49.6469619032" lon="12.3754811380"><ele>590.39</ele><time>2014-05-03T11:38:22Z</time></trkpt><trkpt lat="49.6469785832" lon="12.3754232191"><ele>590.39</ele><time>2014-05-03T11:38:23Z</time></trkpt><trkpt lat="49.6469892282" lon="12.3753610253"><ele>590.39</ele><time>2014-05-03T11:38:24Z</time></trkpt><trkpt lat="49.6470066626" lon="12.3752985802"><ele>590.39</ele><time>2014-05-03T11:38:25Z</time></trkpt><trkpt lat="49.6470250189" lon="12.3752343748"><ele>590.39</ele><time>2014-05-03T11:38:26Z</time></trkpt><trkpt lat="49.6470447164" lon="12.3751688283"><ele>590.39</ele><time>2014-05-03T11:38:27Z</time></trkpt><trkpt lat="49.6470602229" lon="12.3750990909"><ele>590.87</ele><time>2014-05-03T11:38:28Z</time></trkpt><trkpt lat="49.6470813453" lon="12.3750305269"><ele>590.87</ele><time>2014-05-03T11:38:29Z</time></trkpt><trkpt lat="49.6471055690" lon="12.3749655671"><ele>590.87</ele><time>2014-05-03T11:38:30Z</time></trkpt><trkpt lat="49.6471323911" lon="12.3749022838"><ele>590.87</ele><time>2014-05-03T11:38:31Z</time></trkpt><trkpt lat="49.6471609734" lon="12.3748384975"><ele>590.87</ele><time>2014-05-03T11:38:32Z</time></trkpt><trkpt lat="49.6471897233" lon="12.3747768905"><ele>590.87</ele><time>2014-05-03T11:38:33Z</time></trkpt><trkpt lat="49.6472193953" lon="12.3747200612"><ele>591.35</ele><time>2014-05-03T11:38:34Z</time></trkpt><trkpt lat="49.6472495701" lon="12.3746651597"><ele>591.35</ele><time>2014-05-03T11:38:35Z</time></trkpt><trkpt lat="49.6472812537" lon="12.3746145330"><ele>591.35</ele><time>2014-05-03T11:38:36Z</time></trkpt><trkpt lat="49.6473145299" lon="12.3745658342"><ele>591.35</ele><time>2014-05-03T11:38:37Z</time></trkpt><trkpt lat="49.6473473869" lon="12.3745137826"><ele>591.35</ele><time>2014-05-03T11:38:38Z</time></trkpt><trkpt lat="49.6473807469" lon="12.3744600546"><ele>591.35</ele><time>2014-05-03T11:38:39Z</time></trkpt><trkpt lat="49.6474172082" lon="12.3744076677"><ele>591.35</ele><time>2014-05-03T11:38:40Z</time></trkpt><trkpt lat="49.6474549267" lon="12.3743582144"><ele>591.83</ele><time>2014-05-03T11:38:41Z</time></trkpt><trkpt lat="49.6474917233" lon="12.3743075877"><ele>591.35</ele><time>2014-05-03T11:38:42Z</time></trkpt><trkpt lat="49.6475282684" lon="12.3742569610"><ele>591.83</ele><time>2014-05-03T11:38:43Z</time></trkpt><trkpt lat="49.6475634724" lon="12.3742096871"><ele>591.83</ele><time>2014-05-03T11:38:44Z</time></trkpt><trkpt lat="49.6475982573" lon="12.3741629999"><ele>591.83</ele><time>2014-05-03T11:38:45Z</time></trkpt><trkpt lat="49.6476360597" lon="12.3741186596"><ele>591.83</ele><time>2014-05-03T11:38:46Z</time></trkpt><trkpt lat="49.6476753708" lon="12.3740745708"><ele>591.83</ele><time>2014-05-03T11:38:47Z</time></trkpt><trkpt lat="49.6477128379" lon="12.3740297277"><ele>592.31</ele><time>2014-05-03T11:38:48Z</time></trkpt><trkpt lat="49.6477490477" lon="12.3739808612"><ele>592.31</ele><time>2014-05-03T11:38:49Z</time></trkpt><trkpt lat="49.6477871854" lon="12.3739353474"><ele>592.31</ele><time>2014-05-03T11:38:50Z</time></trkpt><trkpt lat="49.6478260774" lon="12.3738894984"><ele>592.31</ele><time>2014-05-03T11:38:51Z</time></trkpt><trkpt lat="49.6478626225" lon="12.3738373630"><ele>592.31</ele><time>2014-05-03T11:38:52Z</time></trkpt><trkpt lat="49.6478998382" lon="12.3737881612"><ele>592.79</ele><time>2014-05-03T11:38:53Z</time></trkpt><trkpt lat="49.6479364671" lon="12.3737366125"><ele>592.79</ele><time>2014-05-03T11:38:54Z</time></trkpt><trkpt lat="49.6479746886" lon="12.3736843094"><ele>592.79</ele><time>2014-05-03T11:38:55Z</time></trkpt><trkpt lat="49.6480123233" lon="12.3736326769"><ele>592.79</ele><time>2014-05-03T11:38:56Z</time></trkpt><trkpt lat="49.6480465215" lon="12.3735781107"><ele>592.79</ele><time>2014-05-03T11:38:57Z</time></trkpt><trkpt lat="49.6480782889" lon="12.3735207785"><ele>592.79</ele><time>2014-05-03T11:38:58Z</time></trkpt><trkpt lat="49.6481093019" lon="12.3734627757"><ele>593.27</ele><time>2014-05-03T11:38:59Z</time></trkpt><trkpt lat="49.6481412370" lon="12.3734048568"><ele>593.27</ele><time>2014-05-03T11:39:00Z</time></trkpt><trkpt lat="49.6481746808" lon="12.3733489495"><ele>593.27</ele><time>2014-05-03T11:39:01Z</time></trkpt><trkpt lat="49.6482077055" lon="12.3732928745"><ele>593.27</ele><time>2014-05-03T11:39:02Z</time></trkpt><trkpt lat="49.6482429095" lon="12.3732393980"><ele>593.27</ele><time>2014-05-03T11:39:03Z</time></trkpt><trkpt lat="49.6482802927" lon="12.3731874302"><ele>593.27</ele><time>2014-05-03T11:39:04Z</time></trkpt><trkpt lat="49.6483166702" lon="12.3731331155"><ele>593.75</ele><time>2014-05-03T11:39:05Z</time></trkpt><trkpt lat="49.6483499464" lon="12.3730747774"><ele>593.75</ele><time>2014-05-03T11:39:06Z</time></trkpt><trkpt lat="49.6483807918" lon="12.3730121646"><ele>593.75</ele><time>2014-05-03T11:39:07Z</time></trkpt><trkpt lat="49.6484114695" lon="12.3729490489"><ele>593.75</ele><time>2014-05-03T11:39:08Z</time></trkpt><trkpt lat="49.6484398842" lon="12.3728856817"><ele>593.75</ele><time>2014-05-03T11:39:09Z</time></trkpt><trkpt lat="49.6484635212" lon="12.3728177045"><ele>593.75</ele><time>2014-05-03T11:39:10Z</time></trkpt><trkpt lat="49.6484840568" lon="12.3727458715"><ele>593.75</ele><time>2014-05-03T11:39:11Z</time></trkpt><trkpt lat="49.6485069394" lon="12.3726726975"><ele>594.23</ele><time>2014-05-03T11:39:12Z</time></trkpt><trkpt lat="49.6485304926" lon="12.3726003617"><ele>594.23</ele><time>2014-05-03T11:39:13Z</time></trkpt><trkpt lat="49.6485535428" lon="12.3725307081"><ele>594.23</ele><time>2014-05-03T11:39:14Z</time></trkpt><trkpt lat="49.6485759225" lon="12.3724605516"><ele>594.23</ele><time>2014-05-03T11:39:15Z</time></trkpt><trkpt lat="49.6485943627" lon="12.3723910656"><ele>594.23</ele><time>2014-05-03T11:39:16Z</time></trkpt><trkpt lat="49.6486115456" lon="12.3723235074"><ele>594.23</ele><time>2014-05-03T11:39:17Z</time></trkpt><trkpt lat="49.6486290637" lon="12.3722612299"><ele>594.71</ele><time>2014-05-03T11:39:18Z</time></trkpt><trkpt lat="49.6486453246" lon="12.3721996229"><ele>594.71</ele><time>2014-05-03T11:39:19Z</time></trkpt><trkpt lat="49.6486644354" lon="12.3721302208"><ele>594.71</ele><time>2014-05-03T11:39:20Z</time></trkpt><trkpt lat="49.6486757509" lon="12.3720515147"><ele>594.71</ele><time>2014-05-03T11:39:21Z</time></trkpt><trkpt lat="49.6486845519" lon="12.3719697073"><ele>594.71</ele><time>2014-05-03T11:39:22Z</time></trkpt><trkpt lat="49.6486956999" lon="12.3718935158"><ele>594.71</ele><time>2014-05-03T11:39:23Z</time></trkpt><trkpt lat="49.6487039980" lon="12.3718122113"><ele>594.71</ele><time>2014-05-03T11:39:24Z</time></trkpt><trkpt lat="49.6487128828" lon="12.3717343435"><ele>595.19</ele><time>2014-05-03T11:39:25Z</time></trkpt><trkpt lat="49.6487214323" lon="12.3716519494"><ele>595.19</ele><time>2014-05-03T11:39:26Z</time></trkpt><trkpt lat="49.6487311553" lon="12.3715735786"><ele>595.19</ele><time>2014-05-03T11:39:27Z</time></trkpt><trkpt lat="49.6487383638" lon="12.3715002369"><ele>595.19</ele><time>2014-05-03T11:39:28Z</time></trkpt><trkpt lat="49.6487465780" lon="12.3714226205"><ele>595.19</ele><time>2014-05-03T11:39:29Z</time></trkpt><trkpt lat="49.6487554628" lon="12.3713477701"><ele>595.19</ele><time>2014-05-03T11:39:30Z</time></trkpt><trkpt lat="49.6487622522" lon="12.3712750990"><ele>595.67</ele><time>2014-05-03T11:39:31Z</time></trkpt><trkpt lat="49.6487653535" lon="12.3712019250"><ele>595.67</ele><time>2014-05-03T11:39:32Z</time></trkpt><trkpt lat="49.6487647668" lon="12.3711275775"><ele>595.67</ele><time>2014-05-03T11:39:33Z</time></trkpt><trkpt lat="49.6487606596" lon="12.3710539006"><ele>595.67</ele><time>2014-05-03T11:39:34Z</time></trkpt><trkpt lat="49.6487568878" lon="12.3709777091"><ele>595.67</ele><time>2014-05-03T11:39:35Z</time></trkpt><trkpt lat="49.6487541217" lon="12.3709038645"><ele>595.67</ele><time>2014-05-03T11:39:36Z</time></trkpt><trkpt lat="49.6487526130" lon="12.3708294332"><ele>596.15</ele><time>2014-05-03T11:39:37Z</time></trkpt><trkpt lat="49.6487502661" lon="12.3707509786"><ele>596.15</ele><time>2014-05-03T11:39:38Z</time></trkpt><trkpt lat="49.6487469133" lon="12.3706731945"><ele>596.15</ele><time>2014-05-03T11:39:39Z</time></trkpt><trkpt lat="49.6487405431" lon="12.3705928959"><ele>596.15</ele><time>2014-05-03T11:39:40Z</time></trkpt><trkpt lat="49.6487305686" lon="12.3705145251"><ele>596.64</ele><time>2014-05-03T11:39:41Z</time></trkpt><trkpt lat="49.6487199236" lon="12.3704410158"><ele>596.64</ele><time>2014-05-03T11:39:42Z</time></trkpt><trkpt lat="49.6487041656" lon="12.3703652434"><ele>596.64</ele><time>2014-05-03T11:39:43Z</time></trkpt><trkpt lat="49.6486889105" lon="12.3702885490"><ele>596.64</ele><time>2014-05-03T11:39:44Z</time></trkpt><trkpt lat="49.6486706380" lon="12.3702118546"><ele>596.64</ele><time>2014-05-03T11:39:45Z</time></trkpt><trkpt lat="49.6486540418" lon="12.3701363336"><ele>596.64</ele><time>2014-05-03T11:39:46Z</time></trkpt><trkpt lat="49.6486345958" lon="12.3700603098"><ele>597.12</ele><time>2014-05-03T11:39:47Z</time></trkpt><trkpt lat="49.6486135572" lon="12.3699812684"><ele>597.12</ele><time>2014-05-03T11:39:48Z</time></trkpt><trkpt lat="49.6485874895" lon="12.3699041549"><ele>597.12</ele><time>2014-05-03T11:39:49Z</time></trkpt><trkpt lat="49.6485661995" lon="12.3698320705"><ele>597.12</ele><time>2014-05-03T11:39:50Z</time></trkpt><trkpt lat="49.6485457476" lon="12.3697554599"><ele>597.12</ele><time>2014-05-03T11:39:51Z</time></trkpt><trkpt lat="49.6485216077" lon="12.3696759995"><ele>597.12</ele><time>2014-05-03T11:39:52Z</time></trkpt><trkpt lat="49.6484918520" lon="12.3695977964"><ele>597.60</ele><time>2014-05-03T11:39:53Z</time></trkpt><trkpt lat="49.6484645270" lon="12.3695214372"><ele>597.60</ele><time>2014-05-03T11:39:54Z</time></trkpt><trkpt lat="49.6484335978" lon="12.3694489338"><ele>597.60</ele><time>2014-05-03T11:39:55Z</time></trkpt><trkpt lat="49.6484006569" lon="12.3693848960"><ele>597.60</ele><time>2014-05-03T11:39:56Z</time></trkpt><trkpt lat="49.6483677160" lon="12.3693199363"><ele>597.60</ele><time>2014-05-03T11:39:57Z</time></trkpt><trkpt lat="49.6483378764" lon="12.3692521267"><ele>598.08</ele><time>2014-05-03T11:39:58Z</time></trkpt><trkpt lat="49.6483106352" lon="12.3691834789"><ele>597.60</ele><time>2014-05-03T11:39:59Z</time></trkpt><trkpt lat="49.6482851543" lon="12.3691175133"><ele>598.08</ele><time>2014-05-03T11:40:00Z</time></trkpt><trkpt lat="49.6482558176" lon="12.3690536432"><ele>598.08</ele><time>2014-05-03T11:40:01Z</time></trkpt><trkpt lat="49.6482279059" lon="12.3689887673"><ele>598.08</ele><time>2014-05-03T11:40:02Z</time></trkpt><trkpt lat="49.6482004132" lon="12.3689239752"><ele>598.08</ele><time>2014-05-03T11:40:03Z</time></trkpt><trkpt lat="49.6481761057" lon="12.3688572552"><ele>598.56</ele><time>2014-05-03T11:40:04Z</time></trkpt><trkpt lat="49.6481536422" lon="12.3687908705"><ele>598.56</ele><time>2014-05-03T11:40:05Z</time></trkpt><trkpt lat="49.6481261496" lon="12.3687275872"><ele>598.56</ele><time>2014-05-03T11:40:06Z</time></trkpt><trkpt lat="49.6480965614" lon="12.3686674051"><ele>599.04</ele><time>2014-05-03T11:40:07Z</time></trkpt><trkpt lat="49.6480651293" lon="12.3686059657"><ele>598.56</ele><time>2014-05-03T11:40:08Z</time></trkpt><trkpt lat="49.6480340324" lon="12.3685441073"><ele>599.04</ele><time>2014-05-03T11:40:09Z</time></trkpt><trkpt lat="49.6480031032" lon="12.3684783094"><ele>599.04</ele><time>2014-05-03T11:40:10Z</time></trkpt><trkpt lat="49.6479734313" lon="12.3684130982"><ele>599.04</ele><time>2014-05-03T11:40:11Z</time></trkpt><trkpt lat="49.6479443461" lon="12.3683515750"><ele>599.04</ele><time>2014-05-03T11:40:12Z</time></trkpt><trkpt lat="49.6479144227" lon="12.3682924826"><ele>599.52</ele><time>2014-05-03T11:40:13Z</time></trkpt><trkpt lat="49.6478814818" lon="12.3682329711"><ele>599.52</ele><time>2014-05-03T11:40:14Z</time></trkpt><trkpt lat="49.6478494629" lon="12.3681733757"><ele>599.52</ele><time>2014-05-03T11:40:15Z</time></trkpt><trkpt lat="49.6478214674" lon="12.3681148700"><ele>599.52</ele><time>2014-05-03T11:40:16Z</time></trkpt><trkpt lat="49.6477957349" lon="12.3680551071"><ele>600.00</ele><time>2014-05-03T11:40:17Z</time></trkpt><trkpt lat="49.6477720980" lon="12.3679961823"><ele>600.00</ele><time>2014-05-03T11:40:18Z</time></trkpt><trkpt lat="49.6477438509" lon="12.3679403588"><ele>600.00</ele><time>2014-05-03T11:40:19Z</time></trkpt><trkpt lat="49.6477094013" lon="12.3678840324"><ele>600.00</ele><time>2014-05-03T11:40:20Z</time></trkpt><trkpt lat="49.6476731077" lon="12.3678233474"><ele>600.00</ele><time>2014-05-03T11:40:21Z</time></trkpt><trkpt lat="49.6476389095" lon="12.3677604832"><ele>600.48</ele><time>2014-05-03T11:40:22Z</time></trkpt><trkpt lat="49.6476069745" lon="12.3676972836"><ele>600.48</ele><time>2014-05-03T11:40:23Z</time></trkpt><trkpt lat="49.6475747041" lon="12.3676345032"><ele>600.48</ele><time>2014-05-03T11:40:24Z</time></trkpt><trkpt lat="49.6475420985" lon="12.3675679509"><ele>600.48</ele><time>2014-05-03T11:40:25Z</time></trkpt><trkpt lat="49.6475111693" lon="12.3675011471"><ele>600.96</ele><time>2014-05-03T11:40:26Z</time></trkpt><trkpt lat="49.6474810783" lon="12.3674475029"><ele>600.96</ele><time>2014-05-03T11:40:27Z</time></trkpt><trkpt lat="49.6474449523" lon="12.3673965409"><ele>600.96</ele><time>2014-05-03T11:40:28Z</time></trkpt><trkpt lat="49.6473950800" lon="12.3673421424"><ele>600.96</ele><time>2014-05-03T11:40:29Z</time></trkpt><trkpt lat="49.6473431122" lon="12.3672879115"><ele>601.44</ele><time>2014-05-03T11:40:30Z</time></trkpt><trkpt lat="49.6472981852" lon="12.3672293220"><ele>601.44</ele><time>2014-05-03T11:40:31Z</time></trkpt><trkpt lat="49.6472619753" lon="12.3671677150"><ele>601.44</ele><time>2014-05-03T11:40:32Z</time></trkpt><trkpt lat="49.6472313814" lon="12.3671079520"><ele>601.44</ele><time>2014-05-03T11:40:33Z</time></trkpt><trkpt lat="49.6472053975" lon="12.3670522124"><ele>601.92</ele><time>2014-05-03T11:40:34Z</time></trkpt><trkpt lat="49.6471759770" lon="12.3669911083"><ele>601.44</ele><time>2014-05-03T11:40:35Z</time></trkpt><trkpt lat="49.6471447125" lon="12.3669301718"><ele>601.92</ele><time>2014-05-03T11:40:36Z</time></trkpt><trkpt lat="49.6471144538" lon="12.3668701574"><ele>601.92</ele><time>2014-05-03T11:40:37Z</time></trkpt><trkpt lat="49.6470851172" lon="12.3668093886"><ele>601.92</ele><time>2014-05-03T11:40:38Z</time></trkpt><trkpt lat="49.6470583789" lon="12.3667466082"><ele>602.40</ele><time>2014-05-03T11:40:39Z</time></trkpt><trkpt lat="49.6470318083" lon="12.3666819837"><ele>602.40</ele><time>2014-05-03T11:40:40Z</time></trkpt><trkpt lat="49.6470033936" lon="12.3666196223"><ele>602.40</ele><time>2014-05-03T11:40:41Z</time></trkpt><trkpt lat="49.6469767392" lon="12.3665580153"><ele>602.40</ele><time>2014-05-03T11:40:42Z</time></trkpt><trkpt lat="49.6469526831" lon="12.3664980009"><ele>602.40</ele><time>2014-05-03T11:40:43Z</time></trkpt><trkpt lat="49.6469277889" lon="12.3664371483"><ele>602.40</ele><time>2014-05-03T11:40:44Z</time></trkpt><trkpt lat="49.6469006315" lon="12.3663789779"><ele>602.88</ele><time>2014-05-03T11:40:45Z</time></trkpt><trkpt lat="49.6468681935" lon="12.3663229868"><ele>602.88</ele><time>2014-05-03T11:40:46Z</time></trkpt><trkpt lat="49.6468362585" lon="12.3662628885"><ele>602.88</ele><time>2014-05-03T11:40:47Z</time></trkpt><trkpt lat="49.6468065027" lon="12.3662123457"><ele>602.88</ele><time>2014-05-03T11:40:48Z</time></trkpt><trkpt lat="49.6467769146" lon="12.3661628924"><ele>602.88</ele><time>2014-05-03T11:40:49Z</time></trkpt><trkpt lat="49.6467491705" lon="12.3661028780"><ele>603.36</ele><time>2014-05-03T11:40:50Z</time></trkpt><trkpt lat="49.6467229351" lon="12.3660400975"><ele>603.36</ele><time>2014-05-03T11:40:51Z</time></trkpt><trkpt lat="49.6466989629" lon="12.3659763113"><ele>603.36</ele><time>2014-05-03T11:40:52Z</time></trkpt><trkpt lat="49.6466775052" lon="12.3659078311"><ele>603.36</ele><time>2014-05-03T11:40:53Z</time></trkpt><trkpt lat="49.6466560476" lon="12.3658320587"><ele>603.36</ele><time>2014-05-03T11:40:54Z</time></trkpt><trkpt lat="49.6466329973" lon="12.3657572921"><ele>603.36</ele><time>2014-05-03T11:40:55Z</time></trkpt><trkpt lat="49.6466091089" lon="12.3656829447"><ele>603.85</ele><time>2014-05-03T11:40:56Z</time></trkpt><trkpt lat="49.6465868130" lon="12.3656085134"><ele>603.85</ele><time>2014-05-03T11:40:57Z</time></trkpt><trkpt lat="49.6465630922" lon="12.3655365966"><ele>603.85</ele><time>2014-05-03T11:40:58Z</time></trkpt><trkpt lat="49.6465378627" lon="12.3654676974"><ele>603.85</ele><time>2014-05-03T11:40:59Z</time></trkpt><trkpt lat="49.6465124656" lon="12.3653949425"><ele>603.85</ele><time>2014-05-03T11:41:00Z</time></trkpt><trkpt lat="49.6464909241" lon="12.3653230257"><ele>603.85</ele><time>2014-05-03T11:41:01Z</time></trkpt><trkpt lat="49.6464730706" lon="12.3652516119"><ele>604.33</ele><time>2014-05-03T11:41:02Z</time></trkpt><trkpt lat="49.6464611683" lon="12.3651820421"><ele>603.85</ele><time>2014-05-03T11:41:03Z</time></trkpt><trkpt lat="49.6464521997" lon="12.3651138134"><ele>603.85</ele><time>2014-05-03T11:41:04Z</time></trkpt><trkpt lat="49.6464390401" lon="12.3650484346"><ele>603.85</ele><time>2014-05-03T11:41:05Z</time></trkpt><trkpt lat="49.6464237850" lon="12.3649892583"><ele>603.85</ele><time>2014-05-03T11:41:06Z</time></trkpt><trkpt lat="49.6464084461" lon="12.3649341892"><ele>603.85</ele><time>2014-05-03T11:41:07Z</time></trkpt><trkpt lat="49.6463961247" lon="12.3648780305"><ele>604.33</ele><time>2014-05-03T11:41:08Z</time></trkpt><trkpt lat="49.6463843901" lon="12.3648241349"><ele>604.33</ele><time>2014-05-03T11:41:09Z</time></trkpt><trkpt lat="49.6463769302" lon="12.3647692334"><ele>604.33</ele><time>2014-05-03T11:41:10Z</time></trkpt><trkpt lat="49.6463680454" lon="12.3647175170"><ele>604.33</ele><time>2014-05-03T11:41:11Z</time></trkpt><trkpt lat="49.6463564783" lon="12.3646705784"><ele>604.33</ele><time>2014-05-03T11:41:12Z</time></trkpt><trkpt lat="49.6463474259" lon="12.3646257352"><ele>604.33</ele><time>2014-05-03T11:41:13Z</time></trkpt><trkpt lat="49.6463394631" lon="12.3645807244"><ele>604.33</ele><time>2014-05-03T11:41:14Z</time></trkpt><trkpt lat="49.6463300753" lon="12.3645385634"><ele>604.33</ele><time>2014-05-03T11:41:15Z</time></trkpt><trkpt lat="49.6463205200" lon="12.3645003419"><ele>604.33</ele><time>2014-05-03T11:41:16Z</time></trkpt><trkpt lat="49.6463144012" lon="12.3644641321"><ele>604.33</ele><time>2014-05-03T11:41:17Z</time></trkpt><trkpt lat="49.6463110484" lon="12.3644280061"><ele>604.33</ele><time>2014-05-03T11:41:18Z</time></trkpt><trkpt lat="49.6463058516" lon="12.3643898685"><ele>604.33</ele><time>2014-05-03T11:41:19Z</time></trkpt><trkpt lat="49.6462979726" lon="12.3643524852"><ele>604.33</ele><time>2014-05-03T11:41:20Z</time></trkpt><trkpt lat="49.6462940332" lon="12.3643173650"><ele>604.81</ele><time>2014-05-03T11:41:21Z</time></trkpt><trkpt lat="49.6462935302" lon="12.3642783891"><ele>604.33</ele><time>2014-05-03T11:41:22Z</time></trkpt><trkpt lat="49.6462947875" lon="12.3642340489"><ele>604.33</ele><time>2014-05-03T11:41:23Z</time></trkpt><trkpt lat="49.6462916024" lon="12.3641914688"><ele>604.33</ele><time>2014-05-03T11:41:24Z</time></trkpt><trkpt lat="49.6462812088" lon="12.3641495593"><ele>604.33</ele><time>2014-05-03T11:41:25Z</time></trkpt><trkpt lat="49.6462743357" lon="12.3641068116"><ele>603.85</ele><time>2014-05-03T11:41:26Z</time></trkpt><trkpt lat="49.6462712344" lon="12.3640596215"><ele>604.33</ele><time>2014-05-03T11:41:27Z</time></trkpt><trkpt lat="49.6462695580" lon="12.3640092462"><ele>604.33</ele><time>2014-05-03T11:41:28Z</time></trkpt><trkpt lat="49.6462737489" lon="12.3639623076"><ele>604.33</ele><time>2014-05-03T11:41:29Z</time></trkpt><trkpt lat="49.6462797001" lon="12.3639151175"><ele>604.33</ele><time>2014-05-03T11:41:30Z</time></trkpt><trkpt lat="49.6462801192" lon="12.3638688494"><ele>604.33</ele><time>2014-05-03T11:41:31Z</time></trkpt><trkpt lat="49.6462838072" lon="12.3638235033"><ele>604.33</ele><time>2014-05-03T11:41:32Z</time></trkpt><trkpt lat="49.6462877467" lon="12.3637734633"><ele>604.33</ele><time>2014-05-03T11:41:33Z</time></trkpt><trkpt lat="49.6462907642" lon="12.3637197353"><ele>604.33</ele><time>2014-05-03T11:41:34Z</time></trkpt><trkpt lat="49.6462884173" lon="12.3636600561"><ele>604.33</ele><time>2014-05-03T11:41:35Z</time></trkpt><trkpt lat="49.6462840587" lon="12.3635939229"><ele>603.85</ele><time>2014-05-03T11:41:36Z</time></trkpt><trkpt lat="49.6462803707" lon="12.3635300528"><ele>604.33</ele><time>2014-05-03T11:41:37Z</time></trkpt><trkpt lat="49.6462801192" lon="12.3634732235"><ele>603.85</ele><time>2014-05-03T11:41:38Z</time></trkpt><trkpt lat="49.6462774370" lon="12.3634186573"><ele>604.33</ele><time>2014-05-03T11:41:39Z</time></trkpt><trkpt lat="49.6462690551" lon="12.3633668572"><ele>604.33</ele><time>2014-05-03T11:41:40Z</time></trkpt><trkpt lat="49.6462611761" lon="12.3633152246"><ele>603.85</ele><time>2014-05-03T11:41:41Z</time></trkpt><trkpt lat="49.6462543868" lon="12.3632651847"><ele>603.85</ele><time>2014-05-03T11:41:42Z</time></trkpt><trkpt lat="49.6462462563" lon="12.3632169887"><ele>603.85</ele><time>2014-05-03T11:41:43Z</time></trkpt><trkpt lat="49.6462421492" lon="12.3631656915"><ele>603.85</ele><time>2014-05-03T11:41:44Z</time></trkpt><trkpt lat="49.6462432388" lon="12.3631101195"><ele>603.85</ele><time>2014-05-03T11:41:45Z</time></trkpt><trkpt lat="49.6462499443" lon="12.3630570620"><ele>603.85</ele><time>2014-05-03T11:41:46Z</time></trkpt><trkpt lat="49.6462534647" lon="12.3630081955"><ele>603.85</ele><time>2014-05-03T11:41:47Z</time></trkpt><trkpt lat="49.6462534647" lon="12.3629563116"><ele>603.85</ele><time>2014-05-03T11:41:48Z</time></trkpt><trkpt lat="49.6462518722" lon="12.3629038408"><ele>603.85</ele><time>2014-05-03T11:41:49Z</time></trkpt><trkpt lat="49.6462446637" lon="12.3628479335"><ele>603.36</ele><time>2014-05-03T11:41:50Z</time></trkpt><trkpt lat="49.6462318394" lon="12.3627934512"><ele>603.85</ele><time>2014-05-03T11:41:51Z</time></trkpt><trkpt lat="49.6462144889" lon="12.3627437465"><ele>603.36</ele><time>2014-05-03T11:41:52Z</time></trkpt><trkpt lat="49.6461974736" lon="12.3626963049"><ele>603.36</ele><time>2014-05-03T11:41:53Z</time></trkpt><trkpt lat="49.6461699810" lon="12.3626354523"><ele>603.36</ele><time>2014-05-03T11:41:54Z</time></trkpt><trkpt lat="49.6461519599" lon="12.3625866696"><ele>603.36</ele><time>2014-05-03T11:41:55Z</time></trkpt><trkpt lat="49.6461451706" lon="12.3625411559"><ele>603.36</ele><time>2014-05-03T11:41:56Z</time></trkpt><trkpt lat="49.6461413149" lon="12.3625072092"><ele>602.88</ele><time>2014-05-03T11:41:57Z</time></trkpt><trkpt lat="49.6461388841" lon="12.3624797165"><ele>602.88</ele><time>2014-05-03T11:41:58Z</time></trkpt><trkpt lat="49.6461354475" lon="12.3624502961"><ele>602.88</ele><time>2014-05-03T11:41:59Z</time></trkpt><trkpt lat="49.6461231261" lon="12.3624041118"><ele>602.88</ele><time>2014-05-03T11:42:00Z</time></trkpt><trkpt lat="49.6461077034" lon="12.3623466119"><ele>602.88</ele><time>2014-05-03T11:42:01Z</time></trkpt><trkpt lat="49.6460881736" lon="12.3622708395"><ele>602.88</ele><time>2014-05-03T11:42:02Z</time></trkpt><trkpt lat="49.6460714098" lon="12.3622073047"><ele>602.88</ele><time>2014-05-03T11:42:03Z</time></trkpt><trkpt lat="49.6460575797" lon="12.3621588573"><ele>602.40</ele><time>2014-05-03T11:42:04Z</time></trkpt><trkpt lat="49.6460409835" lon="12.3621144332"><ele>602.88</ele><time>2014-05-03T11:42:05Z</time></trkpt><trkpt lat="49.6460341103" lon="12.3620659020"><ele>602.88</ele><time>2014-05-03T11:42:06Z</time></trkpt><trkpt lat="49.6460364573" lon="12.3620080668"><ele>602.40</ele><time>2014-05-03T11:42:07Z</time></trkpt><trkpt lat="49.6460409835" lon="12.3619482201"><ele>602.40</ele><time>2014-05-03T11:42:08Z</time></trkpt><trkpt lat="49.6460445877" lon="12.3618838470"><ele>602.40</ele><time>2014-05-03T11:42:09Z</time></trkpt><trkpt lat="49.6460460965" lon="12.3618146963"><ele>602.40</ele><time>2014-05-03T11:42:10Z</time></trkpt><trkpt lat="49.6460499521" lon="12.3617500719"><ele>602.40</ele><time>2014-05-03T11:42:11Z</time></trkpt><trkpt lat="49.6460548975" lon="12.3616864532"><ele>602.40</ele><time>2014-05-03T11:42:12Z</time></trkpt><trkpt lat="49.6460581664" lon="12.3616272770"><ele>602.40</ele><time>2014-05-03T11:42:13Z</time></trkpt><trkpt lat="49.6460577473" lon="12.3615685198"><ele>601.92</ele><time>2014-05-03T11:42:14Z</time></trkpt><trkpt lat="49.6460585017" lon="12.3615042306"><ele>601.92</ele><time>2014-05-03T11:42:15Z</time></trkpt><trkpt lat="49.6460593399" lon="12.3614395224"><ele>601.92</ele><time>2014-05-03T11:42:16Z</time></trkpt><trkpt lat="49.6460605133" lon="12.3613758199"><ele>601.92</ele><time>2014-05-03T11:42:17Z</time></trkpt><trkpt lat="49.6460616030" lon="12.3613114469"><ele>601.44</ele><time>2014-05-03T11:42:18Z</time></trkpt><trkpt lat="49.6460662968" lon="12.3612509295"><ele>601.44</ele><time>2014-05-03T11:42:19Z</time></trkpt><trkpt lat="49.6460704040" lon="12.3611871433"><ele>601.44</ele><time>2014-05-03T11:42:20Z</time></trkpt><trkpt lat="49.6460740920" lon="12.3611258715"><ele>601.44</ele><time>2014-05-03T11:42:21Z</time></trkpt><trkpt lat="49.6460742597" lon="12.3610626720"><ele>601.44</ele><time>2014-05-03T11:42:22Z</time></trkpt><trkpt lat="49.6460744273" lon="12.3609967064"><ele>601.44</ele><time>2014-05-03T11:42:23Z</time></trkpt><trkpt lat="49.6460766904" lon="12.3609333392"><ele>600.96</ele><time>2014-05-03T11:42:24Z</time></trkpt><trkpt lat="49.6460767742" lon="12.3608640209"><ele>600.96</ele><time>2014-05-03T11:42:25Z</time></trkpt><trkpt lat="49.6460783668" lon="12.3607956246"><ele>600.96</ele><time>2014-05-03T11:42:26Z</time></trkpt><trkpt lat="49.6460781991" lon="12.3607265577"><ele>600.96</ele><time>2014-05-03T11:42:27Z</time></trkpt><trkpt lat="49.6460778639" lon="12.3606585804"><ele>600.96</ele><time>2014-05-03T11:42:28Z</time></trkpt><trkpt lat="49.6460738406" lon="12.3605930340"><ele>600.96</ele><time>2014-05-03T11:42:29Z</time></trkpt><trkpt lat="49.6460621059" lon="12.3605263140"><ele>600.48</ele><time>2014-05-03T11:42:30Z</time></trkpt><trkpt lat="49.6460453421" lon="12.3604538105"><ele>600.48</ele><time>2014-05-03T11:42:31Z</time></trkpt><trkpt lat="49.6460275725" lon="12.3603768647"><ele>600.48</ele><time>2014-05-03T11:42:32Z</time></trkpt><trkpt lat="49.6460134909" lon="12.3603017628"><ele>600.00</ele><time>2014-05-03T11:42:33Z</time></trkpt><trkpt lat="49.6460012533" lon="12.3602255713"><ele>600.00</ele><time>2014-05-03T11:42:34Z</time></trkpt><trkpt lat="49.6459877584" lon="12.3601477034"><ele>600.00</ele><time>2014-05-03T11:42:35Z</time></trkpt><trkpt lat="49.6459784545" lon="12.3600714281"><ele>600.00</ele><time>2014-05-03T11:42:36Z</time></trkpt><trkpt lat="49.6459688153" lon="12.3599916324"><ele>600.00</ele><time>2014-05-03T11:42:37Z</time></trkpt><trkpt lat="49.6459604334" lon="12.3599118367"><ele>600.00</ele><time>2014-05-03T11:42:38Z</time></trkpt><trkpt lat="49.6459511295" lon="12.3598351423"><ele>599.52</ele><time>2014-05-03T11:42:39Z</time></trkpt><trkpt lat="49.6459430829" lon="12.3597602081"><ele>600.00</ele><time>2014-05-03T11:42:40Z</time></trkpt><trkpt lat="49.6459374670" lon="12.3596841842"><ele>599.52</ele><time>2014-05-03T11:42:41Z</time></trkpt><trkpt lat="49.6459289175" lon="12.3596105911"><ele>599.52</ele><time>2014-05-03T11:42:42Z</time></trkpt><trkpt lat="49.6459269896" lon="12.3595400993"><ele>599.52</ele><time>2014-05-03T11:42:43Z</time></trkpt><trkpt lat="49.6459284984" lon="12.3594657518"><ele>599.04</ele><time>2014-05-03T11:42:44Z</time></trkpt><trkpt lat="49.6459313482" lon="12.3593893927"><ele>599.04</ele><time>2014-05-03T11:42:45Z</time></trkpt><trkpt lat="49.6459312644" lon="12.3593124468"><ele>599.04</ele><time>2014-05-03T11:42:46Z</time></trkpt><trkpt lat="49.6459261514" lon="12.3592300527"><ele>599.04</ele><time>2014-05-03T11:42:47Z</time></trkpt><trkpt lat="49.6459227987" lon="12.3591458984"><ele>598.56</ele><time>2014-05-03T11:42:48Z</time></trkpt><trkpt lat="49.6459216252" lon="12.3590621632"><ele>598.56</ele><time>2014-05-03T11:42:49Z</time></trkpt><trkpt lat="49.6459150035" lon="12.3589784279"><ele>598.56</ele><time>2014-05-03T11:42:50Z</time></trkpt><trkpt lat="49.6459005028" lon="12.3588961177"><ele>598.56</ele><time>2014-05-03T11:42:51Z</time></trkpt><trkpt lat="49.6458892711" lon="12.3588112928"><ele>598.08</ele><time>2014-05-03T11:42:52Z</time></trkpt><trkpt lat="49.6458848286" lon="12.3587246239"><ele>598.08</ele><time>2014-05-03T11:42:53Z</time></trkpt><trkpt lat="49.6458814759" lon="12.3586370330"><ele>598.08</ele><time>2014-05-03T11:42:54Z</time></trkpt><trkpt lat="49.6458816435" lon="12.3585519567"><ele>597.60</ele><time>2014-05-03T11:42:55Z</time></trkpt><trkpt lat="49.6458838228" lon="12.3584681377"><ele>598.08</ele><time>2014-05-03T11:42:56Z</time></trkpt><trkpt lat="49.6458862536" lon="12.3583845701"><ele>597.60</ele><time>2014-05-03T11:42:57Z</time></trkpt><trkpt lat="49.6458879299" lon="12.3583029304"><ele>597.60</ele><time>2014-05-03T11:42:58Z</time></trkpt><trkpt lat="49.6458896063" lon="12.3582213745"><ele>597.60</ele><time>2014-05-03T11:42:59Z</time></trkpt><trkpt lat="49.6458927076" lon="12.3581360467"><ele>597.12</ele><time>2014-05-03T11:43:00Z</time></trkpt><trkpt lat="49.6458944678" lon="12.3580531497"><ele>597.12</ele><time>2014-05-03T11:43:01Z</time></trkpt><trkpt lat="49.6458922885" lon="12.3579715937"><ele>597.12</ele><time>2014-05-03T11:43:02Z</time></trkpt><trkpt lat="49.6458888520" lon="12.3578887805"><ele>597.12</ele><time>2014-05-03T11:43:03Z</time></trkpt><trkpt lat="49.6458906122" lon="12.3578045424"><ele>597.12</ele><time>2014-05-03T11:43:04Z</time></trkpt><trkpt lat="49.6458952222" lon="12.3577200528"><ele>597.12</ele><time>2014-05-03T11:43:05Z</time></trkpt><trkpt lat="49.6459005028" lon="12.3576371558"><ele>596.64</ele><time>2014-05-03T11:43:06Z</time></trkpt><trkpt lat="49.6459056996" lon="12.3575566895"><ele>596.64</ele><time>2014-05-03T11:43:07Z</time></trkpt><trkpt lat="49.6459141653" lon="12.3574797437"><ele>596.64</ele><time>2014-05-03T11:43:08Z</time></trkpt><trkpt lat="49.6459219605" lon="12.3574028816"><ele>596.64</ele><time>2014-05-03T11:43:09Z</time></trkpt><trkpt lat="49.6459298395" lon="12.3573240079"><ele>596.15</ele><time>2014-05-03T11:43:10Z</time></trkpt><trkpt lat="49.6459378861" lon="12.3572406918"><ele>596.15</ele><time>2014-05-03T11:43:11Z</time></trkpt><trkpt lat="49.6459437534" lon="12.3571551964"><ele>596.15</ele><time>2014-05-03T11:43:12Z</time></trkpt><trkpt lat="49.6459472738" lon="12.3570687789"><ele>596.15</ele><time>2014-05-03T11:43:13Z</time></trkpt><trkpt lat="49.6459538955" lon="12.3569800146"><ele>595.67</ele><time>2014-05-03T11:43:14Z</time></trkpt><trkpt lat="49.6459652111" lon="12.3568938486"><ele>595.67</ele><time>2014-05-03T11:43:15Z</time></trkpt><trkpt lat="49.6459792089" lon="12.3568138853"><ele>595.67</ele><time>2014-05-03T11:43:16Z</time></trkpt><trkpt lat="49.6459865849" lon="12.3567389511"><ele>595.67</ele><time>2014-05-03T11:43:17Z</time></trkpt><trkpt lat="49.6459927876" lon="12.3566669505"><ele>595.19</ele><time>2014-05-03T11:43:18Z</time></trkpt><trkpt lat="49.6459928714" lon="12.3565873224"><ele>595.19</ele><time>2014-05-03T11:43:19Z</time></trkpt><trkpt lat="49.6459992416" lon="12.3565020785"><ele>595.19</ele><time>2014-05-03T11:43:20Z</time></trkpt><trkpt lat="49.6460041869" lon="12.3564098775"><ele>595.67</ele><time>2014-05-03T11:43:21Z</time></trkpt><trkpt lat="49.6460036840" lon="12.3563165031"><ele>595.19</ele><time>2014-05-03T11:43:22Z</time></trkpt><trkpt lat="49.6460044384" lon="12.3562272359"><ele>594.71</ele><time>2014-05-03T11:43:23Z</time></trkpt><trkpt lat="49.6460025106" lon="12.3561307602"><ele>594.71</ele><time>2014-05-03T11:43:24Z</time></trkpt><trkpt lat="49.6460007504" lon="12.3560298420"><ele>594.71</ele><time>2014-05-03T11:43:25Z</time></trkpt><trkpt lat="49.6460026782" lon="12.3559387308"><ele>594.23</ele><time>2014-05-03T11:43:26Z</time></trkpt><trkpt lat="49.6460021753" lon="12.3558490444"><ele>594.23</ele><time>2014-05-03T11:43:27Z</time></trkpt><trkpt lat="49.6460015886" lon="12.3557605315"><ele>594.23</ele><time>2014-05-03T11:43:28Z</time></trkpt><trkpt lat="49.6460045222" lon="12.3556710128"><ele>594.23</ele><time>2014-05-03T11:43:29Z</time></trkpt><trkpt lat="49.6460052766" lon="12.3555789795"><ele>593.75</ele><time>2014-05-03T11:43:30Z</time></trkpt><trkpt lat="49.6460017562" lon="12.3554769717"><ele>593.75</ele><time>2014-05-03T11:43:31Z</time></trkpt><trkpt lat="49.6459927037" lon="12.3553718626"><ele>593.75</ele><time>2014-05-03T11:43:32Z</time></trkpt><trkpt lat="49.6459815558" lon="12.3552680109"><ele>593.27</ele><time>2014-05-03T11:43:33Z</time></trkpt><trkpt lat="49.6459691506" lon="12.3551646620"><ele>593.27</ele><time>2014-05-03T11:43:34Z</time></trkpt><trkpt lat="49.6459572483" lon="12.3550673481"><ele>593.27</ele><time>2014-05-03T11:43:35Z</time></trkpt><trkpt lat="49.6459457651" lon="12.3549733870"><ele>592.79</ele><time>2014-05-03T11:43:36Z</time></trkpt><trkpt lat="49.6459304262" lon="12.3548799288"><ele>592.79</ele><time>2014-05-03T11:43:37Z</time></trkpt><trkpt lat="49.6459125727" lon="12.3547885660"><ele>592.79</ele><time>2014-05-03T11:43:38Z</time></trkpt><trkpt lat="49.6458950546" lon="12.3546992149"><ele>592.79</ele><time>2014-05-03T11:43:39Z</time></trkpt><trkpt lat="49.6458754409" lon="12.3546090256"><ele>592.79</ele><time>2014-05-03T11:43:40Z</time></trkpt><trkpt lat="49.6458542347" lon="12.3545199260"><ele>592.31</ele><time>2014-05-03T11:43:41Z</time></trkpt><trkpt lat="49.6458309330" lon="12.3544346821"><ele>592.31</ele><time>2014-05-03T11:43:42Z</time></trkpt><trkpt lat="49.6458062902" lon="12.3543487675"><ele>592.31</ele><time>2014-05-03T11:43:43Z</time></trkpt><trkpt lat="49.6457763668" lon="12.3542626016"><ele>592.31</ele><time>2014-05-03T11:43:44Z</time></trkpt><trkpt lat="49.6457497124" lon="12.3541752622"><ele>592.31</ele><time>2014-05-03T11:43:45Z</time></trkpt><trkpt lat="49.6457232255" lon="12.3540938739"><ele>592.31</ele><time>2014-05-03T11:43:46Z</time></trkpt><trkpt lat="49.6456945594" lon="12.3540177662"><ele>591.83</ele><time>2014-05-03T11:43:47Z</time></trkpt><trkpt lat="49.6456668992" lon="12.3539354559"><ele>591.35</ele><time>2014-05-03T11:43:48Z</time></trkpt><trkpt lat="49.6456389036" lon="12.3538498767"><ele>591.35</ele><time>2014-05-03T11:43:49Z</time></trkpt><trkpt lat="49.6456099022" lon="12.3537675664"><ele>591.35</ele><time>2014-05-03T11:43:50Z</time></trkpt><trkpt lat="49.6455802303" lon="12.3536873516"><ele>591.35</ele><time>2014-05-03T11:43:51Z</time></trkpt><trkpt lat="49.6455469541" lon="12.3536071368"><ele>591.35</ele><time>2014-05-03T11:43:52Z</time></trkpt><trkpt lat="49.6455114987" lon="12.3535259999"><ele>590.87</ele><time>2014-05-03T11:43:53Z</time></trkpt><trkpt lat="49.6454741154" lon="12.3534466233"><ele>590.87</ele><time>2014-05-03T11:43:54Z</time></trkpt><trkpt lat="49.6454356425" lon="12.3533692583"><ele>590.87</ele><time>2014-05-03T11:43:55Z</time></trkpt><trkpt lat="49.6453954093" lon="12.3532935698"><ele>590.87</ele><time>2014-05-03T11:43:56Z</time></trkpt><trkpt lat="49.6453545056" lon="12.3532208148"><ele>590.39</ele><time>2014-05-03T11:43:57Z</time></trkpt><trkpt lat="49.6453123447" lon="12.3531518318"><ele>590.39</ele><time>2014-05-03T11:43:58Z</time></trkpt><trkpt lat="49.6452678367" lon="12.3530883808"><ele>590.39</ele><time>2014-05-03T11:43:59Z</time></trkpt><trkpt lat="49.6452237479" lon="12.3530219961"><ele>590.39</ele><time>2014-05-03T11:44:00Z</time></trkpt><trkpt lat="49.6451813355" lon="12.3529511690"><ele>589.91</ele><time>2014-05-03T11:44:01Z</time></trkpt><trkpt lat="49.6451390069" lon="12.3528845329"><ele>589.91</ele><time>2014-05-03T11:44:02Z</time></trkpt><trkpt lat="49.6450941637" lon="12.3528209142"><ele>589.91</ele><time>2014-05-03T11:44:03Z</time></trkpt><trkpt lat="49.6450497396" lon="12.3527562059"><ele>589.91</ele><time>2014-05-03T11:44:04Z</time></trkpt><trkpt lat="49.6450059023" lon="12.3526930902"><ele>589.43</ele><time>2014-05-03T11:44:05Z</time></trkpt><trkpt lat="49.6449610591" lon="12.3526319023"><ele>589.43</ele><time>2014-05-03T11:44:06Z</time></trkpt><trkpt lat="49.6449148748" lon="12.3525679484"><ele>589.43</ele><time>2014-05-03T11:44:07Z</time></trkpt><trkpt lat="49.6448693611" lon="12.3525050841"><ele>589.43</ele><time>2014-05-03T11:44:08Z</time></trkpt><trkpt lat="49.6448240988" lon="12.3524418846"><ele>588.95</ele><time>2014-05-03T11:44:09Z</time></trkpt><trkpt lat="49.6447794233" lon="12.3523782659"><ele>588.95</ele><time>2014-05-03T11:44:10Z</time></trkpt><trkpt lat="49.6447336581" lon="12.3523148987"><ele>588.95</ele><time>2014-05-03T11:44:11Z</time></trkpt><trkpt lat="49.6446871385" lon="12.3522536270"><ele>588.46</ele><time>2014-05-03T11:44:12Z</time></trkpt><trkpt lat="49.6446396131" lon="12.3521908466"><ele>588.46</ele><time>2014-05-03T11:44:13Z</time></trkpt><trkpt lat="49.6445912495" lon="12.3521279823"><ele>588.46</ele><time>2014-05-03T11:44:14Z</time></trkpt><trkpt lat="49.6445433050" lon="12.3520652018"><ele>587.98</ele><time>2014-05-03T11:44:15Z</time></trkpt><trkpt lat="49.6444944385" lon="12.3520032596"><ele>587.98</ele><time>2014-05-03T11:44:16Z</time></trkpt><trkpt lat="49.6444451530" lon="12.3519395571"><ele>587.98</ele><time>2014-05-03T11:44:17Z</time></trkpt><trkpt lat="49.6443955321" lon="12.3518751003"><ele>587.50</ele><time>2014-05-03T11:44:18Z</time></trkpt><trkpt lat="49.6443488449" lon="12.3518090509"><ele>587.50</ele><time>2014-05-03T11:44:19Z</time></trkpt><trkpt lat="49.6443023253" lon="12.3517426662"><ele>587.02</ele><time>2014-05-03T11:44:20Z</time></trkpt><trkpt lat="49.6442543808" lon="12.3516786285"><ele>586.54</ele><time>2014-05-03T11:44:21Z</time></trkpt><trkpt lat="49.6442069393" lon="12.3516166024"><ele>587.02</ele><time>2014-05-03T11:44:22Z</time></trkpt><trkpt lat="49.6441625990" lon="12.3515551630"><ele>586.54</ele><time>2014-05-03T11:44:23Z</time></trkpt><trkpt lat="49.6441182587" lon="12.3514923826"><ele>586.54</ele><time>2014-05-03T11:44:24Z</time></trkpt><trkpt lat="49.6440729126" lon="12.3514270037"><ele>586.54</ele><time>2014-05-03T11:44:25Z</time></trkpt><trkpt lat="49.6440273151" lon="12.3513581883"><ele>586.54</ele><time>2014-05-03T11:44:26Z</time></trkpt><trkpt lat="49.6439817175" lon="12.3512929771"><ele>586.06</ele><time>2014-05-03T11:44:27Z</time></trkpt><trkpt lat="49.6439341083" lon="12.3512302805"><ele>586.06</ele><time>2014-05-03T11:44:28Z</time></trkpt><trkpt lat="49.6438847389" lon="12.3511685058"><ele>586.06</ele><time>2014-05-03T11:44:29Z</time></trkpt><trkpt lat="49.6438377164" lon="12.3511061445"><ele>586.06</ele><time>2014-05-03T11:44:30Z</time></trkpt><trkpt lat="49.6437909454" lon="12.3510421067"><ele>586.06</ele><time>2014-05-03T11:44:31Z</time></trkpt><trkpt lat="49.6437435038" lon="12.3509782366"><ele>585.58</ele><time>2014-05-03T11:44:32Z</time></trkpt><trkpt lat="49.6436974034" lon="12.3509148695"><ele>585.58</ele><time>2014-05-03T11:44:33Z</time></trkpt><trkpt lat="49.6436523087" lon="12.3508503288"><ele>585.58</ele><time>2014-05-03T11:44:34Z</time></trkpt><trkpt lat="49.6436060406" lon="12.3507885542"><ele>585.10</ele><time>2014-05-03T11:44:35Z</time></trkpt><trkpt lat="49.6435590181" lon="12.3507278692"><ele>585.10</ele><time>2014-05-03T11:44:36Z</time></trkpt><trkpt lat="49.6435126662" lon="12.3506657593"><ele>585.10</ele><time>2014-05-03T11:44:37Z</time></trkpt><trkpt lat="49.6434679907" lon="12.3506010510"><ele>585.10</ele><time>2014-05-03T11:44:38Z</time></trkpt><trkpt lat="49.6434223931" lon="12.3505313136"><ele>585.10</ele><time>2014-05-03T11:44:39Z</time></trkpt><trkpt lat="49.6433757059" lon="12.3504607379"><ele>585.10</ele><time>2014-05-03T11:44:40Z</time></trkpt><trkpt lat="49.6433310304" lon="12.3503915034"><ele>584.62</ele><time>2014-05-03T11:44:41Z</time></trkpt><trkpt lat="49.6432882827" lon="12.3503215984"><ele>584.62</ele><time>2014-05-03T11:44:42Z</time></trkpt><trkpt lat="49.6432467923" lon="12.3502514418"><ele>584.62</ele><time>2014-05-03T11:44:43Z</time></trkpt><trkpt lat="49.6432073973" lon="12.3501795251"><ele>584.62</ele><time>2014-05-03T11:44:44Z</time></trkpt><trkpt lat="49.6431685053" lon="12.3501072731"><ele>584.14</ele><time>2014-05-03T11:44:45Z</time></trkpt><trkpt lat="49.6431305353" lon="12.3500326741"><ele>584.14</ele><time>2014-05-03T11:44:46Z</time></trkpt><trkpt lat="49.6430944093" lon="12.3499545548"><ele>583.66</ele><time>2014-05-03T11:44:47Z</time></trkpt><trkpt lat="49.6430597082" lon="12.3498754296"><ele>583.66</ele><time>2014-05-03T11:44:48Z</time></trkpt><trkpt lat="49.6430270188" lon="12.3497987352"><ele>583.66</ele><time>2014-05-03T11:44:49Z</time></trkpt><trkpt lat="49.6429960057" lon="12.3497235496"><ele>583.66</ele><time>2014-05-03T11:44:50Z</time></trkpt><trkpt lat="49.6429659147" lon="12.3496447597"><ele>583.66</ele><time>2014-05-03T11:44:51Z</time></trkpt><trkpt lat="49.6429413557" lon="12.3495595995"><ele>583.66</ele><time>2014-05-03T11:44:52Z</time></trkpt><trkpt lat="49.6429188922" lon="12.3494742718"><ele>583.18</ele><time>2014-05-03T11:44:53Z</time></trkpt><trkpt lat="49.6428959258" lon="12.3493902851"><ele>583.18</ele><time>2014-05-03T11:44:54Z</time></trkpt><trkpt lat="49.6428709477" lon="12.3493069690"><ele>583.18</ele><time>2014-05-03T11:44:55Z</time></trkpt><trkpt lat="49.6428471431" lon="12.3492219765"><ele>583.18</ele><time>2014-05-03T11:44:56Z</time></trkpt><trkpt lat="49.6428243443" lon="12.3491350561"><ele>582.70</ele><time>2014-05-03T11:44:57Z</time></trkpt><trkpt lat="49.6428026352" lon="12.3490490578"><ele>582.70</ele><time>2014-05-03T11:44:58Z</time></trkpt><trkpt lat="49.6427809261" lon="12.3489659932"><ele>582.70</ele><time>2014-05-03T11:44:59Z</time></trkpt><trkpt lat="49.6427612286" lon="12.3488832638"><ele>582.70</ele><time>2014-05-03T11:45:00Z</time></trkpt><trkpt lat="49.6427364182" lon="12.3487990256"><ele>582.70</ele><time>2014-05-03T11:45:01Z</time></trkpt><trkpt lat="49.6427099314" lon="12.3487141170"><ele>582.22</ele><time>2014-05-03T11:45:02Z</time></trkpt><trkpt lat="49.6426912397" lon="12.3486225866"><ele>582.22</ele><time>2014-05-03T11:45:03Z</time></trkpt><trkpt lat="49.6426789183" lon="12.3485303856"><ele>582.22</ele><time>2014-05-03T11:45:04Z</time></trkpt><trkpt lat="49.6426669322" lon="12.3484369274"><ele>581.73</ele><time>2014-05-03T11:45:05Z</time></trkpt><trkpt lat="49.6426541079" lon="12.3483422119"><ele>581.73</ele><time>2014-05-03T11:45:06Z</time></trkpt><trkpt lat="49.6426406968" lon="12.3482470773"><ele>581.73</ele><time>2014-05-03T11:45:07Z</time></trkpt><trkpt lat="49.6426282916" lon="12.3481490090"><ele>581.73</ele><time>2014-05-03T11:45:08Z</time></trkpt><trkpt lat="49.6426187363" lon="12.3480482586"><ele>581.25</ele><time>2014-05-03T11:45:09Z</time></trkpt><trkpt lat="49.6426125336" lon="12.3479464184"><ele>580.77</ele><time>2014-05-03T11:45:10Z</time></trkpt><trkpt lat="49.6426078398" lon="12.3478434049"><ele>580.77</ele><time>2014-05-03T11:45:11Z</time></trkpt><trkpt lat="49.6426039003" lon="12.3477399722"><ele>580.77</ele><time>2014-05-03T11:45:12Z</time></trkpt><trkpt lat="49.6425983682" lon="12.3476344440"><ele>580.77</ele><time>2014-05-03T11:45:13Z</time></trkpt><trkpt lat="49.6425904054" lon="12.3475269042"><ele>580.29</ele><time>2014-05-03T11:45:14Z</time></trkpt><trkpt lat="49.6425806824" lon="12.3474196997"><ele>580.29</ele><time>2014-05-03T11:45:15Z</time></trkpt><trkpt lat="49.6425703727" lon="12.3473106511"><ele>580.29</ele><time>2014-05-03T11:45:16Z</time></trkpt><trkpt lat="49.6425620746" lon="12.3472020216"><ele>580.29</ele><time>2014-05-03T11:45:17Z</time></trkpt><trkpt lat="49.6425535250" lon="12.3470937274"><ele>579.81</ele><time>2014-05-03T11:45:18Z</time></trkpt><trkpt lat="49.6425440535" lon="12.3469869420"><ele>579.81</ele><time>2014-05-03T11:45:19Z</time></trkpt><trkpt lat="49.6425365098" lon="12.3468806595"><ele>579.81</ele><time>2014-05-03T11:45:20Z</time></trkpt><trkpt lat="49.6425293852" lon="12.3467757180"><ele>579.81</ele><time>2014-05-03T11:45:21Z</time></trkpt><trkpt lat="49.6425205842" lon="12.3466729559"><ele>579.33</ele><time>2014-05-03T11:45:22Z</time></trkpt><trkpt lat="49.6425084304" lon="12.3465682659"><ele>579.33</ele><time>2014-05-03T11:45:23Z</time></trkpt><trkpt lat="49.6424951870" lon="12.3464613967"><ele>578.85</ele><time>2014-05-03T11:45:24Z</time></trkpt><trkpt lat="49.6424839552" lon="12.3463573772"><ele>578.85</ele><time>2014-05-03T11:45:25Z</time></trkpt><trkpt lat="49.6424734779" lon="12.3462567944"><ele>578.85</ele><time>2014-05-03T11:45:26Z</time></trkpt><trkpt lat="49.6424634196" lon="12.3461534455"><ele>578.85</ele><time>2014-05-03T11:45:27Z</time></trkpt><trkpt lat="49.6424526069" lon="12.3460480012"><ele>578.37</ele><time>2014-05-03T11:45:28Z</time></trkpt><trkpt lat="49.6424420457" lon="12.3459408805"><ele>578.37</ele><time>2014-05-03T11:45:29Z</time></trkpt><trkpt lat="49.6424314845" lon="12.3458340112"><ele>578.37</ele><time>2014-05-03T11:45:30Z</time></trkpt><trkpt lat="49.6424187440" lon="12.3457273096"><ele>577.89</ele><time>2014-05-03T11:45:31Z</time></trkpt><trkpt lat="49.6424018126" lon="12.3456218652"><ele>577.89</ele><time>2014-05-03T11:45:32Z</time></trkpt><trkpt lat="49.6423822828" lon="12.3455063626"><ele>578.37</ele><time>2014-05-03T11:45:33Z</time></trkpt><trkpt lat="49.6423593163" lon="12.3453818075"><ele>578.37</ele><time>2014-05-03T11:45:34Z</time></trkpt><trkpt lat="49.6423324943" lon="12.3452595994"><ele>577.89</ele><time>2014-05-03T11:45:35Z</time></trkpt><trkpt lat="49.6423043311" lon="12.3451440968"><ele>577.41</ele><time>2014-05-03T11:45:36Z</time></trkpt><trkpt lat="49.6422731504" lon="12.3450325336"><ele>577.41</ele><time>2014-05-03T11:45:37Z</time></trkpt><trkpt lat="49.6422366891" lon="12.3449182045"><ele>576.93</ele><time>2014-05-03T11:45:38Z</time></trkpt><trkpt lat="49.6421970427" lon="12.3448089045"><ele>576.93</ele><time>2014-05-03T11:45:39Z</time></trkpt><trkpt lat="49.6421553008" lon="12.3447061423"><ele>576.45</ele><time>2014-05-03T11:45:40Z</time></trkpt><trkpt lat="49.6421140619" lon="12.3446083255"><ele>576.45</ele><time>2014-05-03T11:45:41Z</time></trkpt><trkpt lat="49.6420708951" lon="12.3445077427"><ele>576.45</ele><time>2014-05-03T11:45:42Z</time></trkpt><trkpt lat="49.6420283988" lon="12.3444076627"><ele>575.97</ele><time>2014-05-03T11:45:43Z</time></trkpt><trkpt lat="49.6419862378" lon="12.3443116061"><ele>575.97</ele><time>2014-05-03T11:45:44Z</time></trkpt><trkpt lat="49.6419320069" lon="12.3442208301"><ele>575.49</ele><time>2014-05-03T11:45:45Z</time></trkpt><trkpt lat="49.6418695617" lon="12.3441333231"><ele>575.49</ele><time>2014-05-03T11:45:46Z</time></trkpt><trkpt lat="49.6418054402" lon="12.3440492526"><ele>575.49</ele><time>2014-05-03T11:45:47Z</time></trkpt><trkpt lat="49.6417394746" lon="12.3439673614"><ele>575.01</ele><time>2014-05-03T11:45:48Z</time></trkpt><trkpt lat="49.6416735090" lon="12.3438863922"><ele>575.01</ele><time>2014-05-03T11:45:49Z</time></trkpt><trkpt lat="49.6416064538" lon="12.3438087758"><ele>574.53</ele><time>2014-05-03T11:45:50Z</time></trkpt><trkpt lat="49.6415340342" lon="12.3437328357"><ele>574.53</ele><time>2014-05-03T11:45:51Z</time></trkpt><trkpt lat="49.6414466109" lon="12.3436546326"><ele>574.53</ele><time>2014-05-03T11:45:52Z</time></trkpt><trkpt lat="49.6413539909" lon="12.3435809556"><ele>574.53</ele><time>2014-05-03T11:45:53Z</time></trkpt><trkpt lat="49.6412657294" lon="12.3435069434"><ele>574.04</ele><time>2014-05-03T11:45:54Z</time></trkpt><trkpt lat="49.6411785576" lon="12.3434379604"><ele>574.04</ele><time>2014-05-03T11:45:55Z</time></trkpt><trkpt lat="49.6410951577" lon="12.3433818854"><ele>574.04</ele><time>2014-05-03T11:45:56Z</time></trkpt><trkpt lat="49.6410139371" lon="12.3433323484"><ele>574.04</ele><time>2014-05-03T11:45:57Z</time></trkpt><trkpt lat="49.6409341414" lon="12.3432867508"><ele>573.56</ele><time>2014-05-03T11:45:58Z</time></trkpt><trkpt lat="49.6408505738" lon="12.3432479426"><ele>573.08</ele><time>2014-05-03T11:45:59Z</time></trkpt><trkpt lat="49.6407647431" lon="12.3432174325"><ele>573.08</ele><time>2014-05-03T11:46:00Z</time></trkpt><trkpt lat="49.6406764816" lon="12.3431933764"><ele>573.08</ele><time>2014-05-03T11:46:01Z</time></trkpt><trkpt lat="49.6405882202" lon="12.3431714997"><ele>572.60</ele><time>2014-05-03T11:46:02Z</time></trkpt><trkpt lat="49.6404993720" lon="12.3431507125"><ele>572.60</ele><time>2014-05-03T11:46:03Z</time></trkpt><trkpt lat="49.6404100209" lon="12.3431343678"><ele>572.60</ele><time>2014-05-03T11:46:04Z</time></trkpt><trkpt lat="49.6402302291" lon="12.3431112338"><ele>572.60</ele><time>2014-05-03T11:46:06Z</time></trkpt><trkpt lat="49.6401404589" lon="12.3430968169"><ele>572.12</ele><time>2014-05-03T11:46:07Z</time></trkpt><trkpt lat="49.6400516108" lon="12.3430816457"><ele>574.04</ele><time>2014-05-03T11:46:08Z</time></trkpt><trkpt lat="49.6399630979" lon="12.3430664744"><ele>572.12</ele><time>2014-05-03T11:46:09Z</time></trkpt><trkpt lat="49.6398757584" lon="12.3430512194"><ele>571.64</ele><time>2014-05-03T11:46:10Z</time></trkpt><trkpt lat="49.6397878323" lon="12.3430324439"><ele>571.16</ele><time>2014-05-03T11:46:11Z</time></trkpt><trkpt lat="49.6397025045" lon="12.3430127464"><ele>571.16</ele><time>2014-05-03T11:46:12Z</time></trkpt><trkpt lat="49.6396161709" lon="12.3429860920"><ele>570.68</ele><time>2014-05-03T11:46:13Z</time></trkpt><trkpt lat="49.6395312622" lon="12.3429544922"><ele>570.20</ele><time>2014-05-03T11:46:14Z</time></trkpt><trkpt lat="49.6394455992" lon="12.3429175280"><ele>570.20</ele><time>2014-05-03T11:46:15Z</time></trkpt><trkpt lat="49.6393627860" lon="12.3428773787"><ele>570.20</ele><time>2014-05-03T11:46:16Z</time></trkpt><trkpt lat="49.6392809786" lon="12.3428332899"><ele>570.20</ele><time>2014-05-03T11:46:17Z</time></trkpt><trkpt lat="49.6392025240" lon="12.3427832499"><ele>569.72</ele><time>2014-05-03T11:46:18Z</time></trkpt><trkpt lat="49.6391262487" lon="12.3427292705"><ele>569.24</ele><time>2014-05-03T11:46:19Z</time></trkpt><trkpt lat="49.6390522365" lon="12.3426728602"><ele>569.24</ele><time>2014-05-03T11:46:20Z</time></trkpt><trkpt lat="49.6389786433" lon="12.3426133487"><ele>569.24</ele><time>2014-05-03T11:46:21Z</time></trkpt><trkpt lat="49.6389084868" lon="12.3425492272"><ele>569.24</ele><time>2014-05-03T11:46:22Z</time></trkpt><trkpt lat="49.6388387494" lon="12.3424826749"><ele>568.76</ele><time>2014-05-03T11:46:23Z</time></trkpt><trkpt lat="49.6387699340" lon="12.3424119316"><ele>568.76</ele><time>2014-05-03T11:46:24Z</time></trkpt><trkpt lat="49.6387022920" lon="12.3423366621"><ele>568.28</ele><time>2014-05-03T11:46:25Z</time></trkpt><trkpt lat="49.6386353206" lon="12.3422559444"><ele>568.28</ele><time>2014-05-03T11:46:26Z</time></trkpt><trkpt lat="49.6385677624" lon="12.3421693593"><ele>568.28</ele><time>2014-05-03T11:46:27Z</time></trkpt><trkpt lat="49.6385004558" lon="12.3420791700"><ele>567.80</ele><time>2014-05-03T11:46:28Z</time></trkpt><trkpt lat="49.6384352446" lon="12.3419879749"><ele>567.80</ele><time>2014-05-03T11:46:29Z</time></trkpt><trkpt lat="49.6383722126" lon="12.3418922536"><ele>567.80</ele><time>2014-05-03T11:46:30Z</time></trkpt><trkpt lat="49.6383101866" lon="12.3417929281"><ele>567.80</ele><time>2014-05-03T11:46:31Z</time></trkpt><trkpt lat="49.6382485796" lon="12.3416939378"><ele>567.32</ele><time>2014-05-03T11:46:32Z</time></trkpt><trkpt lat="49.6381851286" lon="12.3415958695"><ele>567.32</ele><time>2014-05-03T11:46:33Z</time></trkpt><trkpt lat="49.6381209232" lon="12.3414987233"><ele>566.83</ele><time>2014-05-03T11:46:34Z</time></trkpt><trkpt lat="49.6380580589" lon="12.3414019961"><ele>566.83</ele><time>2014-05-03T11:46:35Z</time></trkpt><trkpt lat="49.6379925963" lon="12.3413072806"><ele>566.35</ele><time>2014-05-03T11:46:36Z</time></trkpt><trkpt lat="49.6379249543" lon="12.3412130680"><ele>565.87</ele><time>2014-05-03T11:46:37Z</time></trkpt><trkpt lat="49.6378568094" lon="12.3411215376"><ele>565.87</ele><time>2014-05-03T11:46:38Z</time></trkpt><trkpt lat="49.6377872396" lon="12.3410327733"><ele>565.39</ele><time>2014-05-03T11:46:39Z</time></trkpt><trkpt lat="49.6377176698" lon="12.3409459367"><ele>565.39</ele><time>2014-05-03T11:46:40Z</time></trkpt><trkpt lat="49.6376468427" lon="12.3408620339"><ele>565.39</ele><time>2014-05-03T11:46:41Z</time></trkpt><trkpt lat="49.6375726629" lon="12.3407847527"><ele>565.39</ele><time>2014-05-03T11:46:42Z</time></trkpt><trkpt lat="49.6374937054" lon="12.3407140933"><ele>565.39</ele><time>2014-05-03T11:46:43Z</time></trkpt><trkpt lat="49.6374119818" lon="12.3406482115"><ele>564.91</ele><time>2014-05-03T11:46:44Z</time></trkpt><trkpt lat="49.6373274922" lon="12.3405863531"><ele>564.91</ele><time>2014-05-03T11:46:45Z</time></trkpt><trkpt lat="49.6372413263" lon="12.3405306973"><ele>564.43</ele><time>2014-05-03T11:46:46Z</time></trkpt><trkpt lat="49.6371539030" lon="12.3404743709"><ele>564.43</ele><time>2014-05-03T11:46:47Z</time></trkpt><trkpt lat="49.6370640490" lon="12.3404244985"><ele>563.95</ele><time>2014-05-03T11:46:48Z</time></trkpt><trkpt lat="49.6369730216" lon="12.3403815832"><ele>563.95</ele><time>2014-05-03T11:46:49Z</time></trkpt><trkpt lat="49.6368822455" lon="12.3403448705"><ele>563.95</ele><time>2014-05-03T11:46:50Z</time></trkpt><trkpt lat="49.6367895417" lon="12.3403148632"><ele>563.95</ele><time>2014-05-03T11:46:51Z</time></trkpt><trkpt lat="49.6366935689" lon="12.3402901366"><ele>563.95</ele><time>2014-05-03T11:46:52Z</time></trkpt><trkpt lat="49.6365995239" lon="12.3402730376"><ele>563.47</ele><time>2014-05-03T11:46:53Z</time></trkpt><trkpt lat="49.6365043055" lon="12.3402598780"><ele>562.99</ele><time>2014-05-03T11:46:54Z</time></trkpt><trkpt lat="49.6364090871" lon="12.3402556032"><ele>562.51</ele><time>2014-05-03T11:46:55Z</time></trkpt><trkpt lat="49.6363168862" lon="12.3402581178"><ele>562.51</ele><time>2014-05-03T11:46:56Z</time></trkpt><trkpt lat="49.6362258587" lon="12.3402666673"><ele>562.51</ele><time>2014-05-03T11:46:57Z</time></trkpt><trkpt lat="49.6361280419" lon="12.3402770609"><ele>562.51</ele><time>2014-05-03T11:46:58Z</time></trkpt><trkpt lat="49.6360332426" lon="12.3403001111"><ele>562.51</ele><time>2014-05-03T11:46:59Z</time></trkpt><trkpt lat="49.6359391138" lon="12.3403329682"><ele>562.51</ele><time>2014-05-03T11:47:00Z</time></trkpt><trkpt lat="49.6358468290" lon="12.3403736204"><ele>561.55</ele><time>2014-05-03T11:47:01Z</time></trkpt><trkpt lat="49.6357537899" lon="12.3404134344"><ele>561.55</ele><time>2014-05-03T11:47:02Z</time></trkpt><trkpt lat="49.6356589068" lon="12.3404473811"><ele>561.55</ele><time>2014-05-03T11:47:03Z</time></trkpt><trkpt lat="49.6355685499" lon="12.3404915538"><ele>561.55</ele><time>2014-05-03T11:47:04Z</time></trkpt><trkpt lat="49.6354785282" lon="12.3405472934"><ele>561.07</ele><time>2014-05-03T11:47:05Z</time></trkpt><trkpt lat="49.6353919432" lon="12.3406104092"><ele>561.07</ele><time>2014-05-03T11:47:06Z</time></trkpt><trkpt lat="49.6353103872" lon="12.3406802304"><ele>560.11</ele><time>2014-05-03T11:47:07Z</time></trkpt><trkpt lat="49.6352296695" lon="12.3407488782"><ele>560.59</ele><time>2014-05-03T11:47:08Z</time></trkpt><trkpt lat="49.6351491194" lon="12.3408185318"><ele>560.11</ele><time>2014-05-03T11:47:09Z</time></trkpt><trkpt lat="49.6350707486" lon="12.3408896104"><ele>560.11</ele><time>2014-05-03T11:47:10Z</time></trkpt><trkpt lat="49.6349958982" lon="12.3409619462"><ele>559.62</ele><time>2014-05-03T11:47:11Z</time></trkpt><trkpt lat="49.6349216346" lon="12.3410323542"><ele>559.62</ele><time>2014-05-03T11:47:12Z</time></trkpt><trkpt lat="49.6348474547" lon="12.3411011696"><ele>559.14</ele><time>2014-05-03T11:47:13Z</time></trkpt><trkpt lat="49.6347731911" lon="12.3411699850"><ele>559.14</ele><time>2014-05-03T11:47:14Z</time></trkpt><trkpt lat="49.6346997656" lon="12.3412381299"><ele>558.66</ele><time>2014-05-03T11:47:15Z</time></trkpt><trkpt lat="49.6346315369" lon="12.3413086217"><ele>558.66</ele><time>2014-05-03T11:47:16Z</time></trkpt><trkpt lat="49.6345607098" lon="12.3413757607"><ele>558.66</ele><time>2014-05-03T11:47:17Z</time></trkpt><trkpt lat="49.6344877873" lon="12.3414443247"><ele>558.18</ele><time>2014-05-03T11:47:18Z</time></trkpt><trkpt lat="49.6344164573" lon="12.3415123858"><ele>558.18</ele><time>2014-05-03T11:47:19Z</time></trkpt><trkpt lat="49.6343450435" lon="12.3415784352"><ele>558.18</ele><time>2014-05-03T11:47:20Z</time></trkpt><trkpt lat="49.6342758089" lon="12.3416475859"><ele>557.70</ele><time>2014-05-03T11:47:21Z</time></trkpt><trkpt lat="49.6342080832" lon="12.3417169042"><ele>557.70</ele><time>2014-05-03T11:47:22Z</time></trkpt><trkpt lat="49.6341375075" lon="12.3417821992"><ele>557.22</ele><time>2014-05-03T11:47:23Z</time></trkpt><trkpt lat="49.6340638306" lon="12.3418446444"><ele>557.22</ele><time>2014-05-03T11:47:24Z</time></trkpt><trkpt lat="49.6339909919" lon="12.3419101909"><ele>556.74</ele><time>2014-05-03T11:47:25Z</time></trkpt><trkpt lat="49.6339176502" lon="12.3419779167"><ele>556.74</ele><time>2014-05-03T11:47:26Z</time></trkpt><trkpt lat="49.6338467393" lon="12.3420475703"><ele>556.26</ele><time>2014-05-03T11:47:27Z</time></trkpt><trkpt lat="49.6337739006" lon="12.3421169724"><ele>556.26</ele><time>2014-05-03T11:47:28Z</time></trkpt><trkpt lat="49.6337025706" lon="12.3421874642"><ele>556.26</ele><time>2014-05-03T11:47:29Z</time></trkpt><trkpt lat="49.6336309891" lon="12.3422571179"><ele>555.78</ele><time>2014-05-03T11:47:30Z</time></trkpt><trkpt lat="49.6335568093" lon="12.3423258495"><ele>555.78</ele><time>2014-05-03T11:47:31Z</time></trkpt><trkpt lat="49.6334853955" lon="12.3423963413"><ele>555.78</ele><time>2014-05-03T11:47:32Z</time></trkpt><trkpt lat="49.6334135626" lon="12.3424645700"><ele>555.30</ele><time>2014-05-03T11:47:33Z</time></trkpt><trkpt lat="49.6333429869" lon="12.3425290268"><ele>555.30</ele><time>2014-05-03T11:47:34Z</time></trkpt><trkpt lat="49.6332729980" lon="12.3425933998"><ele>555.30</ele><time>2014-05-03T11:47:35Z</time></trkpt><trkpt lat="49.6332008298" lon="12.3426551744"><ele>554.82</ele><time>2014-05-03T11:47:36Z</time></trkpt><trkpt lat="49.6331244707" lon="12.3427157756"><ele>554.82</ele><time>2014-05-03T11:47:37Z</time></trkpt><trkpt lat="49.6330445074" lon="12.3427752871"><ele>554.82</ele><time>2014-05-03T11:47:38Z</time></trkpt><trkpt lat="49.6329652146" lon="12.3428359721"><ele>554.34</ele><time>2014-05-03T11:47:39Z</time></trkpt><trkpt lat="49.6328832395" lon="12.3428917956"><ele>554.34</ele><time>2014-05-03T11:47:40Z</time></trkpt><trkpt lat="49.6328010969" lon="12.3429415841"><ele>554.34</ele><time>2014-05-03T11:47:41Z</time></trkpt><trkpt lat="49.6327163558" lon="12.3429843318"><ele>553.86</ele><time>2014-05-03T11:47:42Z</time></trkpt><trkpt lat="49.6326319501" lon="12.3430239782"><ele>553.86</ele><time>2014-05-03T11:47:43Z</time></trkpt><trkpt lat="49.6325467061" lon="12.3430610262"><ele>553.86</ele><time>2014-05-03T11:47:44Z</time></trkpt><trkpt lat="49.6324605402" lon="12.3430913687"><ele>553.38</ele><time>2014-05-03T11:47:45Z</time></trkpt><trkpt lat="49.6323713567" lon="12.3431117367"><ele>553.38</ele><time>2014-05-03T11:47:46Z</time></trkpt><trkpt lat="49.6322841011" lon="12.3431316856"><ele>553.38</ele><time>2014-05-03T11:47:47Z</time></trkpt><trkpt lat="49.6321963426" lon="12.3431419116"><ele>552.90</ele><time>2014-05-03T11:47:48Z</time></trkpt><trkpt lat="49.6321076620" lon="12.3431466054"><ele>552.90</ele><time>2014-05-03T11:47:49Z</time></trkpt><trkpt lat="49.6320178080" lon="12.3431488685"><ele>552.41</ele><time>2014-05-03T11:47:50Z</time></trkpt><trkpt lat="49.6319266967" lon="12.3431445938"><ele>552.41</ele><time>2014-05-03T11:47:51Z</time></trkpt><trkpt lat="49.6318365913" lon="12.3431370500"><ele>552.41</ele><time>2014-05-03T11:47:52Z</time></trkpt><trkpt lat="49.6317478269" lon="12.3431286681"><ele>551.93</ele><time>2014-05-03T11:47:53Z</time></trkpt><trkpt lat="49.6316573024" lon="12.3431193642"><ele>551.45</ele><time>2014-05-03T11:47:54Z</time></trkpt><trkpt lat="49.6315661073" lon="12.3431059532"><ele>551.45</ele><time>2014-05-03T11:47:55Z</time></trkpt><trkpt lat="49.6314755827" lon="12.3430910334"><ele>550.97</ele><time>2014-05-03T11:47:56Z</time></trkpt><trkpt lat="49.6313840523" lon="12.3430777062"><ele>550.97</ele><time>2014-05-03T11:47:57Z</time></trkpt><trkpt lat="49.6312903427" lon="12.3430633731"><ele>550.49</ele><time>2014-05-03T11:47:58Z</time></trkpt><trkpt lat="49.6311978064" lon="12.3430496268"><ele>550.97</ele><time>2014-05-03T11:47:59Z</time></trkpt><trkpt lat="49.6311055217" lon="12.3430372216"><ele>550.49</ele><time>2014-05-03T11:48:00Z</time></trkpt><trkpt lat="49.6310118120" lon="12.3430253193"><ele>550.01</ele><time>2014-05-03T11:48:01Z</time></trkpt><trkpt lat="49.6309174318" lon="12.3430091422"><ele>549.53</ele><time>2014-05-03T11:48:02Z</time></trkpt><trkpt lat="49.6308243088" lon="12.3429918755"><ele>549.53</ele><time>2014-05-03T11:48:03Z</time></trkpt><trkpt lat="49.6307309344" lon="12.3429765366"><ele>549.05</ele><time>2014-05-03T11:48:04Z</time></trkpt><trkpt lat="49.6306379791" lon="12.3429620359"><ele>549.05</ele><time>2014-05-03T11:48:05Z</time></trkpt><trkpt lat="49.6305439342" lon="12.3429476190"><ele>549.05</ele><time>2014-05-03T11:48:06Z</time></trkpt><trkpt lat="49.6304498054" lon="12.3429335374"><ele>548.57</ele><time>2014-05-03T11:48:07Z</time></trkpt><trkpt lat="49.6303555928" lon="12.3429186177"><ele>549.05</ele><time>2014-05-03T11:48:08Z</time></trkpt><trkpt lat="49.6302611288" lon="12.3429038655"><ele>548.09</ele><time>2014-05-03T11:48:09Z</time></trkpt><trkpt lat="49.6301672515" lon="12.3428897839"><ele>548.09</ele><time>2014-05-03T11:48:10Z</time></trkpt><trkpt lat="49.6300749667" lon="12.3428769596"><ele>547.61</ele><time>2014-05-03T11:48:11Z</time></trkpt><trkpt lat="49.6299835201" lon="12.3428631295"><ele>547.61</ele><time>2014-05-03T11:48:12Z</time></trkpt><trkpt lat="49.6298921574" lon="12.3428511433"><ele>547.13</ele><time>2014-05-03T11:48:13Z</time></trkpt><trkpt lat="49.6298002917" lon="12.3428376485"><ele>547.13</ele><time>2014-05-03T11:48:14Z</time></trkpt><trkpt lat="49.6297102701" lon="12.3428225610"><ele>546.65</ele><time>2014-05-03T11:48:15Z</time></trkpt><trkpt lat="49.6296198294" lon="12.3428073060"><ele>546.65</ele><time>2014-05-03T11:48:16Z</time></trkpt><trkpt lat="49.6295263711" lon="12.3427915480"><ele>546.17</ele><time>2014-05-03T11:48:17Z</time></trkpt><trkpt lat="49.6294325776" lon="12.3427771311"><ele>546.17</ele><time>2014-05-03T11:48:18Z</time></trkpt><trkpt lat="49.6293373592" lon="12.3427592777"><ele>545.69</ele><time>2014-05-03T11:48:19Z</time></trkpt><trkpt lat="49.6292447392" lon="12.3427387420"><ele>545.69</ele><time>2014-05-03T11:48:20Z</time></trkpt><trkpt lat="49.6291532088" lon="12.3427166138"><ele>545.69</ele><time>2014-05-03T11:48:21Z</time></trkpt><trkpt lat="49.6290613431" lon="12.3426917195"><ele>545.69</ele><time>2014-05-03T11:48:22Z</time></trkpt><trkpt lat="49.6289703995" lon="12.3426596168"><ele>545.20</ele><time>2014-05-03T11:48:23Z</time></trkpt><trkpt lat="49.6288806293" lon="12.3426214792"><ele>545.20</ele><time>2014-05-03T11:48:24Z</time></trkpt><trkpt lat="49.6287924517" lon="12.3425758816"><ele>544.72</ele><time>2014-05-03T11:48:25Z</time></trkpt><trkpt lat="49.6287063695" lon="12.3425270990"><ele>544.72</ele><time>2014-05-03T11:48:26Z</time></trkpt><trkpt lat="49.6286218800" lon="12.3424752988"><ele>544.24</ele><time>2014-05-03T11:48:27Z</time></trkpt><trkpt lat="49.6285362169" lon="12.3424148653"><ele>544.24</ele><time>2014-05-03T11:48:28Z</time></trkpt><trkpt lat="49.6284524817" lon="12.3423449602"><ele>543.76</ele><time>2014-05-03T11:48:29Z</time></trkpt><trkpt lat="49.6283710096" lon="12.3422718700"><ele>543.76</ele><time>2014-05-03T11:48:30Z</time></trkpt><trkpt lat="49.6282933094" lon="12.3421934992"><ele>543.76</ele><time>2014-05-03T11:48:31Z</time></trkpt><trkpt lat="49.6282192972" lon="12.3421069980"><ele>543.76</ele><time>2014-05-03T11:48:32Z</time></trkpt><trkpt lat="49.6281448659" lon="12.3420156352"><ele>543.28</ele><time>2014-05-03T11:48:33Z</time></trkpt><trkpt lat="49.6280714404" lon="12.3419207521"><ele>543.28</ele><time>2014-05-03T11:48:34Z</time></trkpt><trkpt lat="49.6280019544" lon="12.3418256175"><ele>543.28</ele><time>2014-05-03T11:48:35Z</time></trkpt><trkpt lat="49.6279349830" lon="12.3417267948"><ele>542.80</ele><time>2014-05-03T11:48:36Z</time></trkpt><trkpt lat="49.6278701909" lon="12.3416218534"><ele>542.80</ele><time>2014-05-03T11:48:37Z</time></trkpt><trkpt lat="49.6278084163" lon="12.3415147327"><ele>542.32</ele><time>2014-05-03T11:48:38Z</time></trkpt><trkpt lat="49.6277518384" lon="12.3413988948"><ele>542.32</ele><time>2014-05-03T11:48:39Z</time></trkpt><trkpt lat="49.6276970208" lon="12.3412772734"><ele>541.84</ele><time>2014-05-03T11:48:40Z</time></trkpt><trkpt lat="49.6276438795" lon="12.3411543109"><ele>541.84</ele><time>2014-05-03T11:48:41Z</time></trkpt><trkpt lat="49.6275930852" lon="12.3410323542"><ele>541.36</ele><time>2014-05-03T11:48:42Z</time></trkpt><trkpt lat="49.6275441349" lon="12.3409120739"><ele>541.36</ele><time>2014-05-03T11:48:43Z</time></trkpt><trkpt lat="49.6275034826" lon="12.3407861777"><ele>540.88</ele><time>2014-05-03T11:48:44Z</time></trkpt><trkpt lat="49.6274689492" lon="12.3406556714"><ele>540.88</ele><time>2014-05-03T11:48:45Z</time></trkpt><trkpt lat="49.6274376009" lon="12.3405202199"><ele>540.88</ele><time>2014-05-03T11:48:46Z</time></trkpt><trkpt lat="49.6274096891" lon="12.3403819185"><ele>540.40</ele><time>2014-05-03T11:48:47Z</time></trkpt><trkpt lat="49.6273854654" lon="12.3402421921"><ele>540.40</ele><time>2014-05-03T11:48:48Z</time></trkpt><trkpt lat="49.6273644269" lon="12.3401017115"><ele>539.92</ele><time>2014-05-03T11:48:49Z</time></trkpt><trkpt lat="49.6273474954" lon="12.3399608117"><ele>539.44</ele><time>2014-05-03T11:48:50Z</time></trkpt><trkpt lat="49.6273334138" lon="12.3398235999"><ele>539.44</ele><time>2014-05-03T11:48:51Z</time></trkpt><trkpt lat="49.6273246128" lon="12.3396870587"><ele>538.96</ele><time>2014-05-03T11:48:52Z</time></trkpt><trkpt lat="49.6273190808" lon="12.3395543732"><ele>538.96</ele><time>2014-05-03T11:48:53Z</time></trkpt><trkpt lat="49.6273164824" lon="12.3394266330"><ele>538.96</ele><time>2014-05-03T11:48:54Z</time></trkpt><trkpt lat="49.6273174882" lon="12.3393097054"><ele>538.48</ele><time>2014-05-03T11:48:55Z</time></trkpt><trkpt lat="49.6273167338" lon="12.3392116372"><ele>538.48</ele><time>2014-05-03T11:48:56Z</time></trkpt><trkpt lat="49.6273117047" lon="12.3391336855"><ele>537.99</ele><time>2014-05-03T11:48:57Z</time></trkpt><trkpt lat="49.6273086872" lon="12.3390739225"><ele>537.99</ele><time>2014-05-03T11:48:58Z</time></trkpt><trkpt lat="49.6273087710" lon="12.3390317615"><ele>537.99</ele><time>2014-05-03T11:48:59Z</time></trkpt><trkpt lat="49.6273143031" lon="12.3390040174"><ele>537.99</ele><time>2014-05-03T11:49:00Z</time></trkpt><trkpt lat="49.6273246128" lon="12.3389836494"><ele>537.99</ele><time>2014-05-03T11:49:01Z</time></trkpt><trkpt lat="49.6273280494" lon="12.3389662988"><ele>537.99</ele><time>2014-05-03T11:49:02Z</time></trkpt><trkpt lat="49.6273265406" lon="12.3389465176"><ele>537.99</ele><time>2014-05-03T11:49:03Z</time></trkpt><trkpt lat="49.6273256186" lon="12.3389208689"><ele>537.99</ele><time>2014-05-03T11:49:04Z</time></trkpt><trkpt lat="49.6273262892" lon="12.3388878442"><ele>537.99</ele><time>2014-05-03T11:49:05Z</time></trkpt><trkpt lat="49.6273225173" lon="12.3388502933"><ele>537.99</ele><time>2014-05-03T11:49:06Z</time></trkpt><trkpt lat="49.6273186617" lon="12.3388142511"><ele>537.99</ele><time>2014-05-03T11:49:07Z</time></trkpt><trkpt lat="49.6273142193" lon="12.3387787957"><ele>537.99</ele><time>2014-05-03T11:49:08Z</time></trkpt><trkpt lat="49.6273096092" lon="12.3387407418"><ele>537.99</ele><time>2014-05-03T11:49:09Z</time></trkpt><trkpt lat="49.6273126267" lon="12.3386988323"><ele>537.99</ele><time>2014-05-03T11:49:10Z</time></trkpt><trkpt lat="49.6273232717" lon="12.3386629578"><ele>537.99</ele><time>2014-05-03T11:49:11Z</time></trkpt><trkpt lat="49.6273318212" lon="12.3386255745"><ele>537.99</ele><time>2014-05-03T11:49:12Z</time></trkpt><trkpt lat="49.6273388620" lon="12.3385864310"><ele>537.51</ele><time>2014-05-03T11:49:13Z</time></trkpt><trkpt lat="49.6273485851" lon="12.3385478742"><ele>537.99</ele><time>2014-05-03T11:49:14Z</time></trkpt><trkpt lat="49.6273594815" lon="12.3385098204"><ele>537.51</ele><time>2014-05-03T11:49:15Z</time></trkpt><trkpt lat="49.6273643430" lon="12.3384675756"><ele>537.51</ele><time>2014-05-03T11:49:16Z</time></trkpt><trkpt lat="49.6273674443" lon="12.3384212237"><ele>537.51</ele><time>2014-05-03T11:49:17Z</time></trkpt><trkpt lat="49.6273696236" lon="12.3383722734"><ele>537.51</ele><time>2014-05-03T11:49:18Z</time></trkpt><trkpt lat="49.6273726411" lon="12.3383184616"><ele>537.51</ele><time>2014-05-03T11:49:19Z</time></trkpt><trkpt lat="49.6273760777" lon="12.3382586986"><ele>537.51</ele><time>2014-05-03T11:49:20Z</time></trkpt><trkpt lat="49.6273793466" lon="12.3381966725"><ele>537.51</ele><time>2014-05-03T11:49:21Z</time></trkpt><trkpt lat="49.6273839567" lon="12.3381307069"><ele>537.51</ele><time>2014-05-03T11:49:22Z</time></trkpt><trkpt lat="49.6273865551" lon="12.3380650766"><ele>537.51</ele><time>2014-05-03T11:49:23Z</time></trkpt><trkpt lat="49.6273889858" lon="12.3379966803"><ele>537.51</ele><time>2014-05-03T11:49:24Z</time></trkpt><trkpt lat="49.6273920871" lon="12.3379282840"><ele>537.51</ele><time>2014-05-03T11:49:25Z</time></trkpt><trkpt lat="49.6273959428" lon="12.3378588818"><ele>537.51</ele><time>2014-05-03T11:49:26Z</time></trkpt><trkpt lat="49.6274023131" lon="12.3377877194"><ele>537.51</ele><time>2014-05-03T11:49:27Z</time></trkpt><trkpt lat="49.6274085157" lon="12.3377159704"><ele>537.51</ele><time>2014-05-03T11:49:28Z</time></trkpt><trkpt lat="49.6274134610" lon="12.3376425449"><ele>537.51</ele><time>2014-05-03T11:49:29Z</time></trkpt><trkpt lat="49.6274182387" lon="12.3375682812"><ele>537.51</ele><time>2014-05-03T11:49:30Z</time></trkpt><trkpt lat="49.6274209209" lon="12.3374936823"><ele>537.51</ele><time>2014-05-03T11:49:31Z</time></trkpt><trkpt lat="49.6274236869" lon="12.3374164011"><ele>537.51</ele><time>2014-05-03T11:49:32Z</time></trkpt><trkpt lat="49.6274273749" lon="12.3373384494"><ele>537.51</ele><time>2014-05-03T11:49:33Z</time></trkpt><trkpt lat="49.6274324879" lon="12.3372592404"><ele>537.99</ele><time>2014-05-03T11:49:34Z</time></trkpt><trkpt lat="49.6274372656" lon="12.3371817917"><ele>537.99</ele><time>2014-05-03T11:49:35Z</time></trkpt><trkpt lat="49.6274420433" lon="12.3371025827"><ele>537.99</ele><time>2014-05-03T11:49:36Z</time></trkpt><trkpt lat="49.6274475753" lon="12.3370229546"><ele>537.99</ele><time>2014-05-03T11:49:37Z</time></trkpt><trkpt lat="49.6274529397" lon="12.3369428236"><ele>537.99</ele><time>2014-05-03T11:49:38Z</time></trkpt><trkpt lat="49.6274587233" lon="12.3368624412"><ele>537.99</ele><time>2014-05-03T11:49:39Z</time></trkpt><trkpt lat="49.6274699550" lon="12.3367821425"><ele>537.99</ele><time>2014-05-03T11:49:40Z</time></trkpt><trkpt lat="49.6274759062" lon="12.3367022630"><ele>537.99</ele><time>2014-05-03T11:49:41Z</time></trkpt><trkpt lat="49.6274805162" lon="12.3366214614"><ele>537.99</ele><time>2014-05-03T11:49:42Z</time></trkpt><trkpt lat="49.6274871379" lon="12.3365391511"><ele>537.99</ele><time>2014-05-03T11:49:43Z</time></trkpt><trkpt lat="49.6274938434" lon="12.3364562541"><ele>537.99</ele><time>2014-05-03T11:49:44Z</time></trkpt><trkpt lat="49.6274993755" lon="12.3363720998"><ele>537.99</ele><time>2014-05-03T11:49:45Z</time></trkpt><trkpt lat="49.6275028121" lon="12.3362847604"><ele>537.99</ele><time>2014-05-03T11:49:46Z</time></trkpt><trkpt lat="49.6275070030" lon="12.3361972533"><ele>537.99</ele><time>2014-05-03T11:49:47Z</time></trkpt><trkpt lat="49.6275127865" lon="12.3361107521"><ele>537.51</ele><time>2014-05-03T11:49:48Z</time></trkpt><trkpt lat="49.6275187377" lon="12.3360264301"><ele>537.99</ele><time>2014-05-03T11:49:49Z</time></trkpt><trkpt lat="49.6275241021" lon="12.3359413538"><ele>537.99</ele><time>2014-05-03T11:49:50Z</time></trkpt><trkpt lat="49.6275305562" lon="12.3358559422"><ele>537.99</ele><time>2014-05-03T11:49:51Z</time></trkpt><trkpt lat="49.6275355853" lon="12.3357701954"><ele>537.51</ele><time>2014-05-03T11:49:52Z</time></trkpt><trkpt lat="49.6275391895" lon="12.3356831074"><ele>537.51</ele><time>2014-05-03T11:49:53Z</time></trkpt><trkpt lat="49.6275432128" lon="12.3355972767"><ele>537.51</ele><time>2014-05-03T11:49:54Z</time></trkpt><trkpt lat="49.6275467332" lon="12.3355105240"><ele>537.99</ele><time>2014-05-03T11:49:55Z</time></trkpt><trkpt lat="49.6275510080" lon="12.3354229331"><ele>537.99</ele><time>2014-05-03T11:49:56Z</time></trkpt><trkpt lat="49.6275538579" lon="12.3353328276"><ele>537.99</ele><time>2014-05-03T11:49:57Z</time></trkpt><trkpt lat="49.6275570430" lon="12.3352420516"><ele>537.51</ele><time>2014-05-03T11:49:58Z</time></trkpt><trkpt lat="49.6275600605" lon="12.3351501022"><ele>537.99</ele><time>2014-05-03T11:49:59Z</time></trkpt><trkpt lat="49.6275648382" lon="12.3350585718"><ele>537.99</ele><time>2014-05-03T11:50:00Z</time></trkpt><trkpt lat="49.6275696158" lon="12.3349691369"><ele>537.99</ele><time>2014-05-03T11:50:01Z</time></trkpt><trkpt lat="49.6275759023" lon="12.3348812107"><ele>537.99</ele><time>2014-05-03T11:50:02Z</time></trkpt><trkpt lat="49.6275839489" lon="12.3347956315"><ele>537.99</ele><time>2014-05-03T11:50:03Z</time></trkpt><trkpt lat="49.6275878046" lon="12.3347103037"><ele>537.99</ele><time>2014-05-03T11:50:04Z</time></trkpt><trkpt lat="49.6275904030" lon="12.3346210364"><ele>537.99</ele><time>2014-05-03T11:50:05Z</time></trkpt><trkpt lat="49.6275950130" lon="12.3345285002"><ele>537.99</ele><time>2014-05-03T11:50:06Z</time></trkpt><trkpt lat="49.6276007127" lon="12.3344335333"><ele>537.99</ele><time>2014-05-03T11:50:07Z</time></trkpt><trkpt lat="49.6276057418" lon="12.3343369737"><ele>537.99</ele><time>2014-05-03T11:50:08Z</time></trkpt><trkpt lat="49.6276124474" lon="12.3342387378"><ele>537.99</ele><time>2014-05-03T11:50:09Z</time></trkpt><trkpt lat="49.6276185662" lon="12.3341394123"><ele>537.99</ele><time>2014-05-03T11:50:10Z</time></trkpt><trkpt lat="49.6276220866" lon="12.3340405896"><ele>537.51</ele><time>2014-05-03T11:50:11Z</time></trkpt><trkpt lat="49.6276220027" lon="12.3339467961"><ele>537.51</ele><time>2014-05-03T11:50:12Z</time></trkpt><trkpt lat="49.6276250202" lon="12.3338555172"><ele>537.51</ele><time>2014-05-03T11:50:13Z</time></trkpt><trkpt lat="49.6276375093" lon="12.3337613046"><ele>537.51</ele><time>2014-05-03T11:50:14Z</time></trkpt><trkpt lat="49.6276476514" lon="12.3336643260"><ele>537.03</ele><time>2014-05-03T11:50:15Z</time></trkpt><trkpt lat="49.6276562009" lon="12.3335629050"><ele>537.03</ele><time>2014-05-03T11:50:16Z</time></trkpt><trkpt lat="49.6276632417" lon="12.3334571254"><ele>537.03</ele><time>2014-05-03T11:50:17Z</time></trkpt><trkpt lat="49.6276720427" lon="12.3333509266"><ele>537.03</ele><time>2014-05-03T11:50:18Z</time></trkpt><trkpt lat="49.6276806761" lon="12.3332407046"><ele>536.55</ele><time>2014-05-03T11:50:19Z</time></trkpt><trkpt lat="49.6276863758" lon="12.3331305664"><ele>536.55</ele><time>2014-05-03T11:50:20Z</time></trkpt><trkpt lat="49.6276928298" lon="12.3330223560"><ele>536.07</ele><time>2014-05-03T11:50:21Z</time></trkpt><trkpt lat="49.6277009603" lon="12.3329125531"><ele>536.07</ele><time>2014-05-03T11:50:22Z</time></trkpt><trkpt lat="49.6277088393" lon="12.3327972181"><ele>536.07</ele><time>2014-05-03T11:50:23Z</time></trkpt><trkpt lat="49.6277176403" lon="12.3326792847"><ele>536.07</ele><time>2014-05-03T11:50:24Z</time></trkpt><trkpt lat="49.6277246810" lon="12.3325610999"><ele>536.07</ele><time>2014-05-03T11:50:25Z</time></trkpt><trkpt lat="49.6277297102" lon="12.3324423283"><ele>535.59</ele><time>2014-05-03T11:50:26Z</time></trkpt><trkpt lat="49.6277352422" lon="12.3323224671"><ele>535.59</ele><time>2014-05-03T11:50:27Z</time></trkpt><trkpt lat="49.6277406905" lon="12.3321995046"><ele>535.59</ele><time>2014-05-03T11:50:28Z</time></trkpt><trkpt lat="49.6277494915" lon="12.3320681602"><ele>535.59</ele><time>2014-05-03T11:50:29Z</time></trkpt><trkpt lat="49.6277572867" lon="12.3319332115"><ele>535.59</ele><time>2014-05-03T11:50:30Z</time></trkpt><trkpt lat="49.6277632378" lon="12.3318040464"><ele>535.59</ele><time>2014-05-03T11:50:31Z</time></trkpt><trkpt lat="49.6277681831" lon="12.3316707741"><ele>535.59</ele><time>2014-05-03T11:50:32Z</time></trkpt><trkpt lat="49.6277721226" lon="12.3315356579"><ele>535.59</ele><time>2014-05-03T11:50:33Z</time></trkpt><trkpt lat="49.6277749725" lon="12.3314022180"><ele>535.59</ele><time>2014-05-03T11:50:34Z</time></trkpt><trkpt lat="49.6277790796" lon="12.3312726337"><ele>535.59</ele><time>2014-05-03T11:50:35Z</time></trkpt><trkpt lat="49.6277836896" lon="12.3311492521"><ele>535.59</ele><time>2014-05-03T11:50:36Z</time></trkpt><trkpt lat="49.6277857851" lon="12.3310238589"><ele>535.59</ele><time>2014-05-03T11:50:37Z</time></trkpt><trkpt lat="49.6277862880" lon="12.3308973759"><ele>535.11</ele><time>2014-05-03T11:50:38Z</time></trkpt><trkpt lat="49.6277847793" lon="12.3307717312"><ele>535.59</ele><time>2014-05-03T11:50:39Z</time></trkpt><trkpt lat="49.6277815942" lon="12.3306501936"><ele>535.59</ele><time>2014-05-03T11:50:40Z</time></trkpt><trkpt lat="49.6277766488" lon="12.3305346072"><ele>535.59</ele><time>2014-05-03T11:50:41Z</time></trkpt><trkpt lat="49.6277672611" lon="12.3304153327"><ele>535.11</ele><time>2014-05-03T11:50:42Z</time></trkpt><trkpt lat="49.6277554426" lon="12.3302962258"><ele>534.63</ele><time>2014-05-03T11:50:43Z</time></trkpt><trkpt lat="49.6277464740" lon="12.3301763646"><ele>535.59</ele><time>2014-05-03T11:50:44Z</time></trkpt><trkpt lat="49.6277375892" lon="12.3300604429"><ele>535.59</ele><time>2014-05-03T11:50:45Z</time></trkpt><trkpt lat="49.6277261898" lon="12.3299466167"><ele>535.59</ele><time>2014-05-03T11:50:46Z</time></trkpt><trkpt lat="49.6277150419" lon="12.3298335448"><ele>535.59</ele><time>2014-05-03T11:50:47Z</time></trkpt><trkpt lat="49.6277007926" lon="12.3297266755"><ele>535.59</ele><time>2014-05-03T11:50:48Z</time></trkpt><trkpt lat="49.6276884712" lon="12.3296198901"><ele>535.59</ele><time>2014-05-03T11:50:49Z</time></trkpt><trkpt lat="49.6276796702" lon="12.3295120988"><ele>535.59</ele><time>2014-05-03T11:50:50Z</time></trkpt><trkpt lat="49.6276691090" lon="12.3294019606"><ele>536.07</ele><time>2014-05-03T11:50:51Z</time></trkpt><trkpt lat="49.6276537701" lon="12.3292893916"><ele>536.07</ele><time>2014-05-03T11:50:52Z</time></trkpt><trkpt lat="49.6276389342" lon="12.3291761521"><ele>536.07</ele><time>2014-05-03T11:50:53Z</time></trkpt><trkpt lat="49.6276264451" lon="12.3290655110"><ele>536.07</ele><time>2014-05-03T11:50:54Z</time></trkpt><trkpt lat="49.6276137047" lon="12.3289592285"><ele>536.07</ele><time>2014-05-03T11:50:55Z</time></trkpt><trkpt lat="49.6276016347" lon="12.3288532812"><ele>536.07</ele><time>2014-05-03T11:50:56Z</time></trkpt><trkpt lat="49.6275921632" lon="12.3287485912"><ele>536.55</ele><time>2014-05-03T11:50:57Z</time></trkpt><trkpt lat="49.6275802609" lon="12.3286453262"><ele>536.55</ele><time>2014-05-03T11:50:58Z</time></trkpt><trkpt lat="49.6275681071" lon="12.3285418097"><ele>536.55</ele><time>2014-05-03T11:50:59Z</time></trkpt><trkpt lat="49.6275592223" lon="12.3284387961"><ele>537.03</ele><time>2014-05-03T11:51:00Z</time></trkpt><trkpt lat="49.6275503375" lon="12.3283371236"><ele>537.03</ele><time>2014-05-03T11:51:01Z</time></trkpt><trkpt lat="49.6275402792" lon="12.3282366246"><ele>537.03</ele><time>2014-05-03T11:51:02Z</time></trkpt><trkpt lat="49.6275277063" lon="12.3281347845"><ele>537.03</ele><time>2014-05-03T11:51:03Z</time></trkpt><trkpt lat="49.6275159717" lon="12.3280318547"><ele>537.03</ele><time>2014-05-03T11:51:04Z</time></trkpt><trkpt lat="49.6275034826" lon="12.3279286735"><ele>537.51</ele><time>2014-05-03T11:51:05Z</time></trkpt><trkpt lat="49.6274912450" lon="12.3278244864"><ele>537.51</ele><time>2014-05-03T11:51:06Z</time></trkpt><trkpt lat="49.6274805162" lon="12.3277214728"><ele>537.51</ele><time>2014-05-03T11:51:07Z</time></trkpt><trkpt lat="49.6274688654" lon="12.3276186269"><ele>537.99</ele><time>2014-05-03T11:51:08Z</time></trkpt><trkpt lat="49.6274585556" lon="12.3275132664"><ele>537.99</ele><time>2014-05-03T11:51:09Z</time></trkpt><trkpt lat="49.6274483297" lon="12.3274100013"><ele>537.99</ele><time>2014-05-03T11:51:10Z</time></trkpt><trkpt lat="49.6274350863" lon="12.3273078259"><ele>537.99</ele><time>2014-05-03T11:51:11Z</time></trkpt><trkpt lat="49.6274216752" lon="12.3272068240"><ele>537.99</ele><time>2014-05-03T11:51:12Z</time></trkpt><trkpt lat="49.6274106950" lon="12.3271037266"><ele>538.48</ele><time>2014-05-03T11:51:13Z</time></trkpt><trkpt lat="49.6274001338" lon="12.3269998748"><ele>538.48</ele><time>2014-05-03T11:51:14Z</time></trkpt><trkpt lat="49.6273896564" lon="12.3268989567"><ele>538.48</ele><time>2014-05-03T11:51:15Z</time></trkpt><trkpt lat="49.6273801848" lon="12.3267992120"><ele>538.48</ele><time>2014-05-03T11:51:16Z</time></trkpt><trkpt lat="49.6273710486" lon="12.3266991321"><ele>538.48</ele><time>2014-05-03T11:51:17Z</time></trkpt><trkpt lat="49.6273604035" lon="12.3265998065"><ele>538.48</ele><time>2014-05-03T11:51:18Z</time></trkpt><trkpt lat="49.6273507643" lon="12.3265018221"><ele>538.96</ele><time>2014-05-03T11:51:19Z</time></trkpt><trkpt lat="49.6273413766" lon="12.3264023289"><ele>538.96</ele><time>2014-05-03T11:51:20Z</time></trkpt><trkpt lat="49.6273340005" lon="12.3263044283"><ele>539.44</ele><time>2014-05-03T11:51:21Z</time></trkpt><trkpt lat="49.6273262054" lon="12.3262099642"><ele>539.44</ele><time>2014-05-03T11:51:22Z</time></trkpt><trkpt lat="49.6273174882" lon="12.3261171766"><ele>539.44</ele><time>2014-05-03T11:51:23Z</time></trkpt><trkpt lat="49.6273094416" lon="12.3260267358"><ele>539.92</ele><time>2014-05-03T11:51:24Z</time></trkpt><trkpt lat="49.6273016464" lon="12.3259367142"><ele>539.92</ele><time>2014-05-03T11:51:25Z</time></trkpt><trkpt lat="49.6272935998" lon="12.3258447647"><ele>539.92</ele><time>2014-05-03T11:51:26Z</time></trkpt><trkpt lat="49.6272829548" lon="12.3257524800"><ele>539.92</ele><time>2014-05-03T11:51:27Z</time></trkpt><trkpt lat="49.6272724774" lon="12.3256610334"><ele>539.92</ele><time>2014-05-03T11:51:28Z</time></trkpt><trkpt lat="49.6272627544" lon="12.3255697545"><ele>540.40</ele><time>2014-05-03T11:51:29Z</time></trkpt><trkpt lat="49.6272551268" lon="12.3254768830"><ele>540.40</ele><time>2014-05-03T11:51:30Z</time></trkpt><trkpt lat="49.6272457391" lon="12.3253852688"><ele>540.40</ele><time>2014-05-03T11:51:31Z</time></trkpt><trkpt lat="49.6272386145" lon="12.3252949119"><ele>540.40</ele><time>2014-05-03T11:51:32Z</time></trkpt><trkpt lat="49.6272340883" lon="12.3252033815"><ele>540.40</ele><time>2014-05-03T11:51:33Z</time></trkpt><trkpt lat="49.6272312384" lon="12.3251105100"><ele>540.88</ele><time>2014-05-03T11:51:34Z</time></trkpt><trkpt lat="49.6272311546" lon="12.3250160459"><ele>540.88</ele><time>2014-05-03T11:51:35Z</time></trkpt><trkpt lat="49.6272349264" lon="12.3249245156"><ele>540.88</ele><time>2014-05-03T11:51:36Z</time></trkpt><trkpt lat="49.6272419672" lon="12.3248341586"><ele>540.88</ele><time>2014-05-03T11:51:37Z</time></trkpt><trkpt lat="49.6272505168" lon="12.3247451428"><ele>541.36</ele><time>2014-05-03T11:51:38Z</time></trkpt><trkpt lat="49.6272595692" lon="12.3246548697"><ele>540.88</ele><time>2014-05-03T11:51:39Z</time></trkpt><trkpt lat="49.6272697113" lon="12.3245655186"><ele>541.36</ele><time>2014-05-03T11:51:40Z</time></trkpt><trkpt lat="49.6272792667" lon="12.3244793527"><ele>541.84</ele><time>2014-05-03T11:51:41Z</time></trkpt><trkpt lat="49.6272902470" lon="12.3243959527"><ele>541.84</ele><time>2014-05-03T11:51:42Z</time></trkpt><trkpt lat="49.6273038257" lon="12.3243153188"><ele>541.84</ele><time>2014-05-03T11:51:43Z</time></trkpt><trkpt lat="49.6273205057" lon="12.3242348526"><ele>541.36</ele><time>2014-05-03T11:51:44Z</time></trkpt><trkpt lat="49.6273366828" lon="12.3241546378"><ele>541.36</ele><time>2014-05-03T11:51:45Z</time></trkpt><trkpt lat="49.6273563802" lon="12.3240771890"><ele>541.84</ele><time>2014-05-03T11:51:46Z</time></trkpt><trkpt lat="49.6273791790" lon="12.3240038473"><ele>541.36</ele><time>2014-05-03T11:51:47Z</time></trkpt><trkpt lat="49.6274025645" lon="12.3239323497"><ele>541.36</ele><time>2014-05-03T11:51:48Z</time></trkpt><trkpt lat="49.6274278779" lon="12.3238616902"><ele>541.84</ele><time>2014-05-03T11:51:49Z</time></trkpt><trkpt lat="49.6274547838" lon="12.3237932101"><ele>541.84</ele><time>2014-05-03T11:51:50Z</time></trkpt><trkpt lat="49.6274823602" lon="12.3237237241"><ele>541.84</ele><time>2014-05-03T11:51:51Z</time></trkpt><trkpt lat="49.6275108587" lon="12.3236559983"><ele>542.32</ele><time>2014-05-03T11:51:52Z</time></trkpt><trkpt lat="49.6275393572" lon="12.3235894460"><ele>541.84</ele><time>2014-05-03T11:51:53Z</time></trkpt><trkpt lat="49.6275700349" lon="12.3235241510"><ele>542.32</ele><time>2014-05-03T11:51:54Z</time></trkpt><trkpt lat="49.6276035625" lon="12.3234625440"><ele>542.32</ele><time>2014-05-03T11:51:55Z</time></trkpt><trkpt lat="49.6276357491" lon="12.3234048765"><ele>542.32</ele><time>2014-05-03T11:51:56Z</time></trkpt><trkpt lat="49.6276655048" lon="12.3233515676"><ele>542.32</ele><time>2014-05-03T11:51:57Z</time></trkpt><trkpt lat="49.6276941709" lon="12.3233032878"><ele>541.84</ele><time>2014-05-03T11:51:58Z</time></trkpt><trkpt lat="49.6277225018" lon="12.3232619651"><ele>541.84</ele><time>2014-05-03T11:51:59Z</time></trkpt><trkpt lat="49.6277498268" lon="12.3232247494"><ele>541.84</ele><time>2014-05-03T11:52:00Z</time></trkpt><trkpt lat="49.6277748048" lon="12.3231896292"><ele>541.84</ele><time>2014-05-03T11:52:01Z</time></trkpt><trkpt lat="49.6277976874" lon="12.3231589515"><ele>542.32</ele><time>2014-05-03T11:52:02Z</time></trkpt><trkpt lat="49.6278219949" lon="12.3231276870"><ele>542.32</ele><time>2014-05-03T11:52:03Z</time></trkpt><trkpt lat="49.6278493199" lon="12.3230974283"><ele>542.32</ele><time>2014-05-03T11:52:04Z</time></trkpt><trkpt lat="49.6278766450" lon="12.3230688460"><ele>542.32</ele><time>2014-05-03T11:52:05Z</time></trkpt><trkpt lat="49.6279062331" lon="12.3230333067"><ele>542.80</ele><time>2014-05-03T11:52:06Z</time></trkpt><trkpt lat="49.6279352345" lon="12.3229991086"><ele>542.32</ele><time>2014-05-03T11:52:07Z</time></trkpt><trkpt lat="49.6279620565" lon="12.3229703587"><ele>542.80</ele><time>2014-05-03T11:52:08Z</time></trkpt><trkpt lat="49.6279898006" lon="12.3229510803"><ele>542.80</ele><time>2014-05-03T11:52:09Z</time></trkpt><trkpt lat="49.6280131862" lon="12.3229385074"><ele>542.80</ele><time>2014-05-03T11:52:10Z</time></trkpt><trkpt lat="49.6280293632" lon="12.3229296226"><ele>542.80</ele><time>2014-05-03T11:52:11Z</time></trkpt><trkpt lat="49.6280382480" lon="12.3229228333"><ele>542.80</ele><time>2014-05-03T11:52:12Z</time></trkpt><trkpt lat="49.6280404273" lon="12.3229169659"><ele>542.80</ele><time>2014-05-03T11:52:13Z</time></trkpt><trkpt lat="49.6280390024" lon="12.3229159601"><ele>542.32</ele><time>2014-05-03T11:52:15Z</time></trkpt><trkpt lat="49.6280412655" lon="12.3229152896"><ele>542.80</ele><time>2014-05-03T11:52:16Z</time></trkpt><trkpt lat="49.6280421875" lon="12.3229162116"><ele>542.32</ele><time>2014-05-03T11:52:17Z</time></trkpt><trkpt lat="49.6280416008" lon="12.3229198996"><ele>542.80</ele><time>2014-05-03T11:52:23Z</time></trkpt><trkpt lat="49.6280427743" lon="12.3229224980"><ele>542.80</ele><time>2014-05-03T11:52:24Z</time></trkpt><trkpt lat="49.6280420199" lon="12.3229234200"><ele>542.80</ele><time>2014-05-03T11:52:25Z</time></trkpt><trkpt lat="49.6280410979" lon="12.3229234200"><ele>542.80</ele><time>2014-05-03T11:52:26Z</time></trkpt><trkpt lat="49.6280506533" lon="12.3229161277"><ele>542.32</ele><time>2014-05-03T11:52:27Z</time></trkpt><trkpt lat="49.6280606277" lon="12.3229034711"><ele>542.80</ele><time>2014-05-03T11:52:28Z</time></trkpt><trkpt lat="49.6280705184" lon="12.3228898924"><ele>542.80</ele><time>2014-05-03T11:52:29Z</time></trkpt><trkpt lat="49.6280794032" lon="12.3228785768"><ele>542.80</ele><time>2014-05-03T11:52:30Z</time></trkpt><trkpt lat="49.6280897968" lon="12.3228679318"><ele>542.80</ele><time>2014-05-03T11:52:31Z</time></trkpt><trkpt lat="49.6281010285" lon="12.3228558619"><ele>542.80</ele><time>2014-05-03T11:52:32Z</time></trkpt><trkpt lat="49.6281119250" lon="12.3228450492"><ele>542.80</ele><time>2014-05-03T11:52:33Z</time></trkpt><trkpt lat="49.6281216480" lon="12.3228339013"><ele>542.80</ele><time>2014-05-03T11:52:34Z</time></trkpt><trkpt lat="49.6281304490" lon="12.3228240106"><ele>542.80</ele><time>2014-05-03T11:52:35Z</time></trkpt><trkpt lat="49.6281379927" lon="12.3228181433"><ele>542.80</ele><time>2014-05-03T11:52:36Z</time></trkpt><trkpt lat="49.6281413455" lon="12.3228178918"><ele>542.80</ele><time>2014-05-03T11:52:37Z</time></trkpt><trkpt lat="49.6281243302" lon="12.3228071630"><ele>542.80</ele><time>2014-05-03T11:54:04Z</time></trkpt><trkpt lat="49.6281336341" lon="12.3228022177"><ele>542.80</ele><time>2014-05-03T11:54:05Z</time></trkpt><trkpt lat="49.6281479672" lon="12.3227924947"><ele>542.80</ele><time>2014-05-03T11:54:06Z</time></trkpt><trkpt lat="49.6281634737" lon="12.3227833584"><ele>542.80</ele><time>2014-05-03T11:54:07Z</time></trkpt><trkpt lat="49.6281791478" lon="12.3227731325"><ele>543.28</ele><time>2014-05-03T11:54:08Z</time></trkpt><trkpt lat="49.6281973366" lon="12.3227595538"><ele>542.80</ele><time>2014-05-03T11:54:09Z</time></trkpt><trkpt lat="49.6282195486" lon="12.3227432929"><ele>543.28</ele><time>2014-05-03T11:54:10Z</time></trkpt><trkpt lat="49.6282441914" lon="12.3227267805"><ele>542.80</ele><time>2014-05-03T11:54:11Z</time></trkpt><trkpt lat="49.6282737795" lon="12.3227126151"><ele>542.80</ele><time>2014-05-03T11:54:12Z</time></trkpt><trkpt lat="49.6283077262" lon="12.3226981983"><ele>542.80</ele><time>2014-05-03T11:54:13Z</time></trkpt><trkpt lat="49.6283467859" lon="12.3226853739"><ele>542.80</ele><time>2014-05-03T11:54:14Z</time></trkpt><trkpt lat="49.6283895336" lon="12.3226733040"><ele>542.80</ele><time>2014-05-03T11:54:15Z</time></trkpt><trkpt lat="49.6284342092" lon="12.3226562887"><ele>542.32</ele><time>2014-05-03T11:54:16Z</time></trkpt><trkpt lat="49.6284803096" lon="12.3226375971"><ele>542.80</ele><time>2014-05-03T11:54:17Z</time></trkpt><trkpt lat="49.6285293438" lon="12.3226224259"><ele>542.32</ele><time>2014-05-03T11:54:18Z</time></trkpt><trkpt lat="49.6285828203" lon="12.3226105236"><ele>542.32</ele><time>2014-05-03T11:54:19Z</time></trkpt><trkpt lat="49.6286393981" lon="12.3225971963"><ele>542.32</ele><time>2014-05-03T11:54:20Z</time></trkpt><trkpt lat="49.6286976524" lon="12.3225794267"><ele>541.84</ele><time>2014-05-03T11:54:21Z</time></trkpt><trkpt lat="49.6287591755" lon="12.3225632496"><ele>541.84</ele><time>2014-05-03T11:54:22Z</time></trkpt><trkpt lat="49.6288218722" lon="12.3225515150"><ele>541.84</ele><time>2014-05-03T11:54:23Z</time></trkpt><trkpt lat="49.6288847364" lon="12.3225384392"><ele>541.84</ele><time>2014-05-03T11:54:24Z</time></trkpt><trkpt lat="49.6289471816" lon="12.3225236032"><ele>541.84</ele><time>2014-05-03T11:54:25Z</time></trkpt><trkpt lat="49.6290083695" lon="12.3225076776"><ele>541.84</ele><time>2014-05-03T11:54:26Z</time></trkpt><trkpt lat="49.6290688869" lon="12.3224904109"><ele>541.36</ele><time>2014-05-03T11:54:27Z</time></trkpt><trkpt lat="49.6291283146" lon="12.3224715516"><ele>540.88</ele><time>2014-05-03T11:54:28Z</time></trkpt><trkpt lat="49.6291881613" lon="12.3224500939"><ele>540.88</ele><time>2014-05-03T11:54:29Z</time></trkpt><trkpt lat="49.6292488463" lon="12.3224253673"><ele>540.88</ele><time>2014-05-03T11:54:30Z</time></trkpt><trkpt lat="49.6293112915" lon="12.3224000540"><ele>540.40</ele><time>2014-05-03T11:54:31Z</time></trkpt><trkpt lat="49.6293744072" lon="12.3223726451"><ele>540.40</ele><time>2014-05-03T11:54:32Z</time></trkpt><trkpt lat="49.6294400375" lon="12.3223412130"><ele>540.40</ele><time>2014-05-03T11:54:33Z</time></trkpt><trkpt lat="49.6295068413" lon="12.3223068472"><ele>540.40</ele><time>2014-05-03T11:54:34Z</time></trkpt><trkpt lat="49.6295734774" lon="12.3222680390"><ele>540.40</ele><time>2014-05-03T11:54:35Z</time></trkpt><trkpt lat="49.6296393592" lon="12.3222221062"><ele>540.40</ele><time>2014-05-03T11:54:36Z</time></trkpt><trkpt lat="49.6297028940" lon="12.3221704736"><ele>539.92</ele><time>2014-05-03T11:54:37Z</time></trkpt><trkpt lat="49.6297619026" lon="12.3221178353"><ele>540.40</ele><time>2014-05-03T11:54:38Z</time></trkpt><trkpt lat="49.6298144571" lon="12.3220681306"><ele>539.92</ele><time>2014-05-03T11:54:39Z</time></trkpt><trkpt lat="49.6298627369" lon="12.3220195994"><ele>539.44</ele><time>2014-05-03T11:54:40Z</time></trkpt><trkpt lat="49.6299107652" lon="12.3219688889"><ele>539.44</ele><time>2014-05-03T11:54:41Z</time></trkpt><trkpt lat="49.6299585421" lon="12.3219127301"><ele>539.44</ele><time>2014-05-03T11:54:42Z</time></trkpt><trkpt lat="49.6300049778" lon="12.3218503688"><ele>538.96</ele><time>2014-05-03T11:54:43Z</time></trkpt><trkpt lat="49.6300510783" lon="12.3217852414"><ele>538.96</ele><time>2014-05-03T11:54:44Z</time></trkpt><trkpt lat="49.6300941613" lon="12.3217180185"><ele>538.96</ele><time>2014-05-03T11:54:45Z</time></trkpt><trkpt lat="49.6301312093" lon="12.3216540646"><ele>538.96</ele><time>2014-05-03T11:54:46Z</time></trkpt><trkpt lat="49.6301618870" lon="12.3215927929"><ele>538.48</ele><time>2014-05-03T11:54:47Z</time></trkpt><trkpt lat="49.6301876195" lon="12.3215320241"><ele>538.48</ele><time>2014-05-03T11:54:48Z</time></trkpt><trkpt lat="49.6302115079" lon="12.3214733507"><ele>538.48</ele><time>2014-05-03T11:54:49Z</time></trkpt><trkpt lat="49.6302366536" lon="12.3214161023"><ele>538.48</ele><time>2014-05-03T11:54:50Z</time></trkpt><trkpt lat="49.6302615479" lon="12.3213583510"><ele>538.48</ele><time>2014-05-03T11:54:51Z</time></trkpt><trkpt lat="49.6302867774" lon="12.3212987557"><ele>538.48</ele><time>2014-05-03T11:54:52Z</time></trkpt><trkpt lat="49.6303132642" lon="12.3212415073"><ele>538.48</ele><time>2014-05-03T11:54:53Z</time></trkpt><trkpt lat="49.6303375717" lon="12.3211861867"><ele>538.48</ele><time>2014-05-03T11:54:54Z</time></trkpt><trkpt lat="49.6303583588" lon="12.3211275972"><ele>538.48</ele><time>2014-05-03T11:54:55Z</time></trkpt><trkpt lat="49.6303779725" lon="12.3210652359"><ele>538.48</ele><time>2014-05-03T11:54:56Z</time></trkpt><trkpt lat="49.6303990949" lon="12.3209966719"><ele>538.48</ele><time>2014-05-03T11:54:57Z</time></trkpt><trkpt lat="49.6304201335" lon="12.3209203966"><ele>538.48</ele><time>2014-05-03T11:54:58Z</time></trkpt><trkpt lat="49.6304399986" lon="12.3208341468"><ele>538.48</ele><time>2014-05-03T11:54:59Z</time></trkpt><trkpt lat="49.6304601151" lon="12.3207418621"><ele>537.99</ele><time>2014-05-03T11:55:00Z</time></trkpt><trkpt lat="49.6304787230" lon="12.3206448834"><ele>537.99</ele><time>2014-05-03T11:55:01Z</time></trkpt><trkpt lat="49.6304959897" lon="12.3205466475"><ele>537.99</ele><time>2014-05-03T11:55:02Z</time></trkpt><trkpt lat="49.6305124182" lon="12.3204453103"><ele>537.99</ele><time>2014-05-03T11:55:03Z</time></trkpt><trkpt lat="49.6305297688" lon="12.3203395307"><ele>537.99</ele><time>2014-05-03T11:55:04Z</time></trkpt><trkpt lat="49.6305468678" lon="12.3202308174"><ele>537.51</ele><time>2014-05-03T11:55:05Z</time></trkpt><trkpt lat="49.6305654757" lon="12.3201221041"><ele>537.51</ele><time>2014-05-03T11:55:06Z</time></trkpt><trkpt lat="49.6305832453" lon="12.3200112116"><ele>537.51</ele><time>2014-05-03T11:55:07Z</time></trkpt><trkpt lat="49.6305996738" lon="12.3198993970"><ele>537.51</ele><time>2014-05-03T11:55:08Z</time></trkpt><trkpt lat="49.6306168567" lon="12.3197880853"><ele>537.51</ele><time>2014-05-03T11:55:09Z</time></trkpt><trkpt lat="49.6306350455" lon="12.3196753487"><ele>537.51</ele><time>2014-05-03T11:55:10Z</time></trkpt><trkpt lat="49.6306534018" lon="12.3195593432"><ele>537.51</ele><time>2014-05-03T11:55:11Z</time></trkpt><trkpt lat="49.6306718420" lon="12.3194407392"><ele>537.03</ele><time>2014-05-03T11:55:12Z</time></trkpt><trkpt lat="49.6306917910" lon="12.3193217162"><ele>537.03</ele><time>2014-05-03T11:55:13Z</time></trkpt><trkpt lat="49.6307122428" lon="12.3191990051"><ele>537.03</ele><time>2014-05-03T11:55:14Z</time></trkpt><trkpt lat="49.6307320241" lon="12.3190722708"><ele>536.55</ele><time>2014-05-03T11:55:15Z</time></trkpt><trkpt lat="49.6307538170" lon="12.3189454526"><ele>536.55</ele><time>2014-05-03T11:55:16Z</time></trkpt><trkpt lat="49.6307754423" lon="12.3188193049"><ele>536.55</ele><time>2014-05-03T11:55:17Z</time></trkpt><trkpt lat="49.6307970677" lon="12.3186902236"><ele>536.07</ele><time>2014-05-03T11:55:18Z</time></trkpt><trkpt lat="49.6308176033" lon="12.3185588792"><ele>536.07</ele><time>2014-05-03T11:55:19Z</time></trkpt><trkpt lat="49.6308396477" lon="12.3184265289"><ele>535.59</ele><time>2014-05-03T11:55:20Z</time></trkpt><trkpt lat="49.6308654640" lon="12.3182915803"><ele>535.59</ele><time>2014-05-03T11:55:21Z</time></trkpt><trkpt lat="49.6308994945" lon="12.3181584757"><ele>536.07</ele><time>2014-05-03T11:55:22Z</time></trkpt><trkpt lat="49.6309445892" lon="12.3180310708"><ele>535.59</ele><time>2014-05-03T11:55:23Z</time></trkpt><trkpt lat="49.6309942938" lon="12.3179077730"><ele>535.11</ele><time>2014-05-03T11:55:24Z</time></trkpt><trkpt lat="49.6310477704" lon="12.3177879117"><ele>535.59</ele><time>2014-05-03T11:55:25Z</time></trkpt><trkpt lat="49.6311059408" lon="12.3176724091"><ele>535.59</ele><time>2014-05-03T11:55:26Z</time></trkpt><trkpt lat="49.6311671287" lon="12.3175601754"><ele>535.59</ele><time>2014-05-03T11:55:27Z</time></trkpt><trkpt lat="49.6312309988" lon="12.3174536414"><ele>535.59</ele><time>2014-05-03T11:55:28Z</time></trkpt><trkpt lat="49.6312999818" lon="12.3173550703"><ele>535.59</ele><time>2014-05-03T11:55:29Z</time></trkpt><trkpt lat="49.6313730720" lon="12.3172662221"><ele>535.59</ele><time>2014-05-03T11:55:30Z</time></trkpt><trkpt lat="49.6314475872" lon="12.3171854205"><ele>535.11</ele><time>2014-05-03T11:55:31Z</time></trkpt><trkpt lat="49.6315227728" lon="12.3171128333"><ele>535.11</ele><time>2014-05-03T11:55:32Z</time></trkpt><trkpt lat="49.6315979585" lon="12.3170465324"><ele>535.11</ele><time>2014-05-03T11:55:33Z</time></trkpt><trkpt lat="49.6316724736" lon="12.3169865180"><ele>534.63</ele><time>2014-05-03T11:55:34Z</time></trkpt><trkpt lat="49.6317479946" lon="12.3169330414"><ele>534.63</ele><time>2014-05-03T11:55:35Z</time></trkpt><trkpt lat="49.6318234317" lon="12.3168842588"><ele>534.63</ele><time>2014-05-03T11:55:36Z</time></trkpt><trkpt lat="49.6319012996" lon="12.3168453667"><ele>534.15</ele><time>2014-05-03T11:55:37Z</time></trkpt><trkpt lat="49.6319764014" lon="12.3168127611"><ele>534.63</ele><time>2014-05-03T11:55:38Z</time></trkpt><trkpt lat="49.6320485696" lon="12.3167881183"><ele>534.63</ele><time>2014-05-03T11:55:39Z</time></trkpt><trkpt lat="49.6321198158" lon="12.3167700134"><ele>534.63</ele><time>2014-05-03T11:55:40Z</time></trkpt><trkpt lat="49.6321913134" lon="12.3167566024"><ele>534.63</ele><time>2014-05-03T11:55:41Z</time></trkpt><trkpt lat="49.6322623920" lon="12.3167462088"><ele>534.63</ele><time>2014-05-03T11:55:42Z</time></trkpt><trkpt lat="49.6323331352" lon="12.3167404253"><ele>534.63</ele><time>2014-05-03T11:55:43Z</time></trkpt><trkpt lat="49.6324029565" lon="12.3167424370"><ele>534.63</ele><time>2014-05-03T11:55:44Z</time></trkpt><trkpt lat="49.6324714366" lon="12.3167509865"><ele>534.15</ele><time>2014-05-03T11:55:45Z</time></trkpt><trkpt lat="49.6325412579" lon="12.3167612962"><ele>534.15</ele><time>2014-05-03T11:55:46Z</time></trkpt><trkpt lat="49.6326124202" lon="12.3167757131"><ele>534.15</ele><time>2014-05-03T11:55:47Z</time></trkpt><trkpt lat="49.6326840017" lon="12.3167948239"><ele>534.15</ele><time>2014-05-03T11:55:48Z</time></trkpt><trkpt lat="49.6327549126" lon="12.3168190476"><ele>534.15</ele><time>2014-05-03T11:55:49Z</time></trkpt><trkpt lat="49.6328223031" lon="12.3168480489"><ele>534.15</ele><time>2014-05-03T11:55:50Z</time></trkpt><trkpt lat="49.6328859217" lon="12.3168779723"><ele>534.15</ele><time>2014-05-03T11:55:51Z</time></trkpt><trkpt lat="49.6329430863" lon="12.3169072252"><ele>533.67</ele><time>2014-05-03T11:55:52Z</time></trkpt><trkpt lat="49.6329962276" lon="12.3169387411"><ele>533.67</ele><time>2014-05-03T11:55:53Z</time></trkpt><trkpt lat="49.6330471896" lon="12.3169795610"><ele>533.19</ele><time>2014-05-03T11:55:54Z</time></trkpt><trkpt lat="49.6330952179" lon="12.3170287628"><ele>532.71</ele><time>2014-05-03T11:55:55Z</time></trkpt><trkpt lat="49.6331424080" lon="12.3170713428"><ele>532.71</ele><time>2014-05-03T11:55:56Z</time></trkpt><trkpt lat="49.6331845690" lon="12.3171084747"><ele>532.71</ele><time>2014-05-03T11:55:57Z</time></trkpt><trkpt lat="49.6332203597" lon="12.3171428405"><ele>532.23</ele><time>2014-05-03T11:55:58Z</time></trkpt><trkpt lat="49.6332563180" lon="12.3171726801"><ele>532.23</ele><time>2014-05-03T11:55:59Z</time></trkpt><trkpt lat="49.6332934499" lon="12.3172056209"><ele>532.23</ele><time>2014-05-03T11:56:00Z</time></trkpt><trkpt lat="49.6333267260" lon="12.3172456026"><ele>531.75</ele><time>2014-05-03T11:56:01Z</time></trkpt><trkpt lat="49.6333581582" lon="12.3172868416"><ele>532.23</ele><time>2014-05-03T11:56:02Z</time></trkpt><trkpt lat="49.6333926078" lon="12.3173227999"><ele>532.23</ele><time>2014-05-03T11:56:03Z</time></trkpt><trkpt lat="49.6334268898" lon="12.3173497058"><ele>532.23</ele><time>2014-05-03T11:56:04Z</time></trkpt><trkpt lat="49.6334477607" lon="12.3173673078"><ele>532.23</ele><time>2014-05-03T11:56:05Z</time></trkpt><trkpt lat="49.6334574837" lon="12.3173727561"><ele>531.75</ele><time>2014-05-03T11:56:06Z</time></trkpt><trkpt lat="49.6334645245" lon="12.3173740134"><ele>531.75</ele><time>2014-05-03T11:56:07Z</time></trkpt><trkpt lat="49.6334742475" lon="12.3173828982"><ele>531.75</ele><time>2014-05-03T11:56:08Z</time></trkpt><trkpt lat="49.6334887482" lon="12.3173953034"><ele>532.23</ele><time>2014-05-03T11:56:09Z</time></trkpt><trkpt lat="49.6335092839" lon="12.3174093850"><ele>531.75</ele><time>2014-05-03T11:56:10Z</time></trkpt><trkpt lat="49.6335299034" lon="12.3174329381"><ele>531.75</ele><time>2014-05-03T11:56:11Z</time></trkpt><trkpt lat="49.6335464995" lon="12.3174618557"><ele>531.27</ele><time>2014-05-03T11:56:12Z</time></trkpt><trkpt lat="49.6335648559" lon="12.3174912762"><ele>531.27</ele><time>2014-05-03T11:56:13Z</time></trkpt><trkpt lat="49.6335900016" lon="12.3175228760"><ele>531.27</ele><time>2014-05-03T11:56:14Z</time></trkpt><trkpt lat="49.6336221043" lon="12.3175505362"><ele>531.27</ele><time>2014-05-03T11:56:15Z</time></trkpt><trkpt lat="49.6336579788" lon="12.3175746761"><ele>531.27</ele><time>2014-05-03T11:56:16Z</time></trkpt><trkpt lat="49.6336951945" lon="12.3176007438"><ele>531.27</ele><time>2014-05-03T11:56:17Z</time></trkpt><trkpt lat="49.6337329131" lon="12.3176345229"><ele>531.27</ele><time>2014-05-03T11:56:18Z</time></trkpt><trkpt lat="49.6337739006" lon="12.3176728282"><ele>531.27</ele><time>2014-05-03T11:56:19Z</time></trkpt><trkpt lat="49.6338182408" lon="12.3177112173"><ele>531.27</ele><time>2014-05-03T11:56:20Z</time></trkpt><trkpt lat="49.6338627487" lon="12.3177478462"><ele>531.27</ele><time>2014-05-03T11:56:21Z</time></trkpt><trkpt lat="49.6339050774" lon="12.3177862354"><ele>531.27</ele><time>2014-05-03T11:56:22Z</time></trkpt><trkpt lat="49.6339471545" lon="12.3178263847"><ele>530.79</ele><time>2014-05-03T11:56:23Z</time></trkpt><trkpt lat="49.6339928359" lon="12.3178623430"><ele>530.79</ele><time>2014-05-03T11:56:24Z</time></trkpt><trkpt lat="49.6340435464" lon="12.3178988043"><ele>530.79</ele><time>2014-05-03T11:56:25Z</time></trkpt><trkpt lat="49.6340983640" lon="12.3179357685"><ele>530.79</ele><time>2014-05-03T11:56:26Z</time></trkpt><trkpt lat="49.6341602225" lon="12.3179733194"><ele>530.79</ele><time>2014-05-03T11:56:27Z</time></trkpt><trkpt lat="49.6342282835" lon="12.3180103675"><ele>530.30</ele><time>2014-05-03T11:56:28Z</time></trkpt><trkpt lat="49.6343019605" lon="12.3180387821"><ele>530.30</ele><time>2014-05-03T11:56:29Z</time></trkpt><trkpt lat="49.6343824267" lon="12.3180625029"><ele>530.30</ele><time>2014-05-03T11:56:30Z</time></trkpt><trkpt lat="49.6344697662" lon="12.3180824518"><ele>530.30</ele><time>2014-05-03T11:56:31Z</time></trkpt><trkpt lat="49.6345580276" lon="12.3180981260"><ele>530.30</ele><time>2014-05-03T11:56:32Z</time></trkpt><trkpt lat="49.6346447803" lon="12.3181058373"><ele>529.82</ele><time>2014-05-03T11:56:33Z</time></trkpt><trkpt lat="49.6347300243" lon="12.3181017302"><ele>529.82</ele><time>2014-05-03T11:56:34Z</time></trkpt><trkpt lat="49.6348121669" lon="12.3180910852"><ele>529.34</ele><time>2014-05-03T11:56:35Z</time></trkpt><trkpt lat="49.6348883584" lon="12.3180788476"><ele>529.34</ele><time>2014-05-03T11:56:36Z</time></trkpt><trkpt lat="49.6349608619" lon="12.3180621676"><ele>529.34</ele><time>2014-05-03T11:56:37Z</time></trkpt><trkpt lat="49.6350283362" lon="12.3180390336"><ele>528.86</ele><time>2014-05-03T11:56:38Z</time></trkpt><trkpt lat="49.6350911167" lon="12.3180128820"><ele>529.34</ele><time>2014-05-03T11:56:39Z</time></trkpt><trkpt lat="49.6351513825" lon="12.3179826234"><ele>529.34</ele><time>2014-05-03T11:56:40Z</time></trkpt><trkpt lat="49.6352120675" lon="12.3179513589"><ele>529.34</ele><time>2014-05-03T11:56:41Z</time></trkpt><trkpt lat="49.6352747642" lon="12.3179174960"><ele>528.86</ele><time>2014-05-03T11:56:42Z</time></trkpt><trkpt lat="49.6353421547" lon="12.3178830463"><ele>528.86</ele><time>2014-05-03T11:56:43Z</time></trkpt><trkpt lat="49.6354070306" lon="12.3178418912"><ele>528.86</ele><time>2014-05-03T11:56:44Z</time></trkpt><trkpt lat="49.6354677156" lon="12.3177921865"><ele>528.86</ele><time>2014-05-03T11:56:45Z</time></trkpt><trkpt lat="49.6355287358" lon="12.3177330941"><ele>528.38</ele><time>2014-05-03T11:56:46Z</time></trkpt><trkpt lat="49.6355888341" lon="12.3176705651"><ele>528.86</ele><time>2014-05-03T11:56:47Z</time></trkpt><trkpt lat="49.6356499381" lon="12.3176057730"><ele>528.38</ele><time>2014-05-03T11:56:48Z</time></trkpt><trkpt lat="49.6357104555" lon="12.3175360356"><ele>528.38</ele><time>2014-05-03T11:56:49Z</time></trkpt><trkpt lat="49.6357670333" lon="12.3174641188"><ele>528.38</ele><time>2014-05-03T11:56:50Z</time></trkpt><trkpt lat="49.6358192526" lon="12.3173882626"><ele>527.90</ele><time>2014-05-03T11:56:51Z</time></trkpt><trkpt lat="49.6358687896" lon="12.3173096403"><ele>527.90</ele><time>2014-05-03T11:56:52Z</time></trkpt><trkpt lat="49.6359183267" lon="12.3172298446"><ele>527.90</ele><time>2014-05-03T11:56:53Z</time></trkpt><trkpt lat="49.6359685343" lon="12.3171461932"><ele>527.90</ele><time>2014-05-03T11:56:54Z</time></trkpt><trkpt lat="49.6360136289" lon="12.3170571774"><ele>527.90</ele><time>2014-05-03T11:56:55Z</time></trkpt><trkpt lat="49.6360541973" lon="12.3169651441"><ele>527.42</ele><time>2014-05-03T11:56:56Z</time></trkpt><trkpt lat="49.6360913292" lon="12.3168698419"><ele>527.42</ele><time>2014-05-03T11:56:57Z</time></trkpt><trkpt lat="49.6361246053" lon="12.3167719413"><ele>526.94</ele><time>2014-05-03T11:56:58Z</time></trkpt><trkpt lat="49.6361557022" lon="12.3166713584"><ele>526.94</ele><time>2014-05-03T11:56:59Z</time></trkpt><trkpt lat="49.6361862123" lon="12.3165714461"><ele>526.94</ele><time>2014-05-03T11:57:00Z</time></trkpt><trkpt lat="49.6362134535" lon="12.3164685164"><ele>526.46</ele><time>2014-05-03T11:57:01Z</time></trkpt><trkpt lat="49.6362375934" lon="12.3163626529"><ele>526.46</ele><time>2014-05-03T11:57:02Z</time></trkpt><trkpt lat="49.6362610627" lon="12.3162542749"><ele>526.46</ele><time>2014-05-03T11:57:03Z</time></trkpt><trkpt lat="49.6362836938" lon="12.3161426280"><ele>526.46</ele><time>2014-05-03T11:57:04Z</time></trkpt><trkpt lat="49.6363044810" lon="12.3160272092"><ele>526.46</ele><time>2014-05-03T11:57:05Z</time></trkpt><trkpt lat="49.6363251843" lon="12.3159121256"><ele>525.98</ele><time>2014-05-03T11:57:06Z</time></trkpt><trkpt lat="49.6363469772" lon="12.3157988861"><ele>525.98</ele><time>2014-05-03T11:57:07Z</time></trkpt><trkpt lat="49.6363729611" lon="12.3156889994"><ele>525.98</ele><time>2014-05-03T11:57:08Z</time></trkpt><trkpt lat="49.6364021301" lon="12.3155819625"><ele>525.50</ele><time>2014-05-03T11:57:09Z</time></trkpt><trkpt lat="49.6364349034" lon="12.3154755961"><ele>525.50</ele><time>2014-05-03T11:57:10Z</time></trkpt><trkpt lat="49.6364706103" lon="12.3153704032"><ele>525.50</ele><time>2014-05-03T11:57:11Z</time></trkpt><trkpt lat="49.6365093347" lon="12.3152675573"><ele>525.50</ele><time>2014-05-03T11:57:12Z</time></trkpt><trkpt lat="49.6365530044" lon="12.3151696566"><ele>525.50</ele><time>2014-05-03T11:57:13Z</time></trkpt><trkpt lat="49.6366008651" lon="12.3150754441"><ele>525.02</ele><time>2014-05-03T11:57:14Z</time></trkpt><trkpt lat="49.6366509050" lon="12.3149824888"><ele>525.02</ele><time>2014-05-03T11:57:15Z</time></trkpt><trkpt lat="49.6367054712" lon="12.3148891144"><ele>525.02</ele><time>2014-05-03T11:57:16Z</time></trkpt><trkpt lat="49.6367652342" lon="12.3147959076"><ele>524.54</ele><time>2014-05-03T11:57:17Z</time></trkpt><trkpt lat="49.6368277632" lon="12.3147069756"><ele>524.54</ele><time>2014-05-03T11:57:18Z</time></trkpt><trkpt lat="49.6368943155" lon="12.3146242462"><ele>524.54</ele><time>2014-05-03T11:57:19Z</time></trkpt><trkpt lat="49.6369636338" lon="12.3145482223"><ele>525.02</ele><time>2014-05-03T11:57:20Z</time></trkpt><trkpt lat="49.6370357182" lon="12.3144780658"><ele>525.02</ele><time>2014-05-03T11:57:21Z</time></trkpt><trkpt lat="49.6371114068" lon="12.3144157883"><ele>524.54</ele><time>2014-05-03T11:57:22Z</time></trkpt><trkpt lat="49.6371878497" lon="12.3143604677"><ele>524.54</ele><time>2014-05-03T11:57:23Z</time></trkpt><trkpt lat="49.6372662205" lon="12.3143101763"><ele>523.58</ele><time>2014-05-03T11:57:24Z</time></trkpt><trkpt lat="49.6373479441" lon="12.3142679315"><ele>523.58</ele><time>2014-05-03T11:57:25Z</time></trkpt><trkpt lat="49.6374303382" lon="12.3142288718"><ele>523.58</ele><time>2014-05-03T11:57:26Z</time></trkpt><trkpt lat="49.6375146601" lon="12.3141924944"><ele>523.09</ele><time>2014-05-03T11:57:27Z</time></trkpt><trkpt lat="49.6376008261" lon="12.3141619004"><ele>522.61</ele><time>2014-05-03T11:57:28Z</time></trkpt><trkpt lat="49.6376876626" lon="12.3141347431"><ele>522.13</ele><time>2014-05-03T11:57:29Z</time></trkpt><trkpt lat="49.6377729904" lon="12.3141052388"><ele>522.13</ele><time>2014-05-03T11:57:30Z</time></trkpt><trkpt lat="49.6378563903" lon="12.3140726332"><ele>522.13</ele><time>2014-05-03T11:57:31Z</time></trkpt><trkpt lat="49.6379399579" lon="12.3140344955"><ele>521.65</ele><time>2014-05-03T11:57:32Z</time></trkpt><trkpt lat="49.6380226035" lon="12.3139893170"><ele>521.65</ele><time>2014-05-03T11:57:33Z</time></trkpt><trkpt lat="49.6381003875" lon="12.3139360081"><ele>521.65</ele><time>2014-05-03T11:57:34Z</time></trkpt><trkpt lat="49.6381738968" lon="12.3138760775"><ele>521.65</ele><time>2014-05-03T11:57:35Z</time></trkpt><trkpt lat="49.6382455621" lon="12.3138127103"><ele>522.13</ele><time>2014-05-03T11:57:36Z</time></trkpt><trkpt lat="49.6383172274" lon="12.3137449007"><ele>521.65</ele><time>2014-05-03T11:57:37Z</time></trkpt><trkpt lat="49.6383870486" lon="12.3136729002"><ele>521.65</ele><time>2014-05-03T11:57:38Z</time></trkpt><trkpt lat="49.6384545229" lon="12.3135959543"><ele>521.17</ele><time>2014-05-03T11:57:39Z</time></trkpt><trkpt lat="49.6385184769" lon="12.3135121353"><ele>521.17</ele><time>2014-05-03T11:57:40Z</time></trkpt><trkpt lat="49.6385789942" lon="12.3134232033"><ele>521.17</ele><time>2014-05-03T11:57:41Z</time></trkpt><trkpt lat="49.6386396792" lon="12.3133324273"><ele>520.69</ele><time>2014-05-03T11:57:42Z</time></trkpt><trkpt lat="49.6386981010" lon="12.3132367060"><ele>520.69</ele><time>2014-05-03T11:57:43Z</time></trkpt><trkpt lat="49.6387550142" lon="12.3131391406"><ele>520.69</ele><time>2014-05-03T11:57:44Z</time></trkpt><trkpt lat="49.6388117597" lon="12.3130409885"><ele>520.21</ele><time>2014-05-03T11:57:45Z</time></trkpt><trkpt lat="49.6388698462" lon="12.3129439261"><ele>519.73</ele><time>2014-05-03T11:57:46Z</time></trkpt><trkpt lat="49.6389283519" lon="12.3128492106"><ele>519.73</ele><time>2014-05-03T11:57:47Z</time></trkpt><trkpt lat="49.6389891207" lon="12.3127549142"><ele>519.73</ele><time>2014-05-03T11:57:48Z</time></trkpt><trkpt lat="49.6390520688" lon="12.3126607854"><ele>519.25</ele><time>2014-05-03T11:57:49Z</time></trkpt><trkpt lat="49.6391161904" lon="12.3125674948"><ele>519.25</ele><time>2014-05-03T11:57:50Z</time></trkpt><trkpt lat="49.6391790546" lon="12.3124731984"><ele>519.25</ele><time>2014-05-03T11:57:51Z</time></trkpt><trkpt lat="49.6392400749" lon="12.3123785667"><ele>518.77</ele><time>2014-05-03T11:57:52Z</time></trkpt><trkpt lat="49.6393000893" lon="12.3122838512"><ele>518.77</ele><time>2014-05-03T11:57:53Z</time></trkpt><trkpt lat="49.6393602714" lon="12.3121893033"><ele>518.29</ele><time>2014-05-03T11:57:54Z</time></trkpt><trkpt lat="49.6394192800" lon="12.3120940849"><ele>518.29</ele><time>2014-05-03T11:57:55Z</time></trkpt><trkpt lat="49.6394804679" lon="12.3120001238"><ele>518.29</ele><time>2014-05-03T11:57:56Z</time></trkpt><trkpt lat="49.6395407338" lon="12.3119040672"><ele>518.29</ele><time>2014-05-03T11:57:57Z</time></trkpt><trkpt lat="49.6395999938" lon="12.3118058313"><ele>517.81</ele><time>2014-05-03T11:57:58Z</time></trkpt><trkpt lat="49.6396591701" lon="12.3117080983"><ele>517.33</ele><time>2014-05-03T11:57:59Z</time></trkpt><trkpt lat="49.6397191007" lon="12.3116078507"><ele>517.81</ele><time>2014-05-03T11:58:00Z</time></trkpt><trkpt lat="49.6397793666" lon="12.3115057591"><ele>517.33</ele><time>2014-05-03T11:58:01Z</time></trkpt><trkpt lat="49.6398377046" lon="12.3114028294"><ele>516.85</ele><time>2014-05-03T11:58:02Z</time></trkpt><trkpt lat="49.6398945339" lon="12.3112979718"><ele>516.85</ele><time>2014-05-03T11:58:03Z</time></trkpt><trkpt lat="49.6399496030" lon="12.3111905996"><ele>516.85</ele><time>2014-05-03T11:58:04Z</time></trkpt><trkpt lat="49.6399983857" lon="12.3110795394"><ele>516.85</ele><time>2014-05-03T11:58:05Z</time></trkpt><trkpt lat="49.6400430612" lon="12.3109651264"><ele>516.37</ele><time>2014-05-03T11:58:06Z</time></trkpt><trkpt lat="49.6400835458" lon="12.3108493723"><ele>516.37</ele><time>2014-05-03T11:58:07Z</time></trkpt><trkpt lat="49.6401190013" lon="12.3107291758"><ele>516.37</ele><time>2014-05-03T11:58:08Z</time></trkpt><trkpt lat="49.6401498467" lon="12.3106042016"><ele>516.37</ele><time>2014-05-03T11:58:09Z</time></trkpt><trkpt lat="49.6401743218" lon="12.3104766291"><ele>515.88</ele><time>2014-05-03T11:58:10Z</time></trkpt><trkpt lat="49.6401956119" lon="12.3103498109"><ele>515.40</ele><time>2014-05-03T11:58:11Z</time></trkpt><trkpt lat="49.6402156446" lon="12.3102235794"><ele>515.40</ele><time>2014-05-03T11:58:12Z</time></trkpt><trkpt lat="49.6402292233" lon="12.3100978509"><ele>514.92</ele><time>2014-05-03T11:58:13Z</time></trkpt><trkpt lat="49.6402406227" lon="12.3099724576"><ele>514.92</ele><time>2014-05-03T11:58:14Z</time></trkpt><trkpt lat="49.6402575541" lon="12.3098463938"><ele>514.92</ele><time>2014-05-03T11:58:15Z</time></trkpt><trkpt lat="49.6402769163" lon="12.3097189888"><ele>514.92</ele><time>2014-05-03T11:58:16Z</time></trkpt><trkpt lat="49.6402989607" lon="12.3095909972"><ele>514.44</ele><time>2014-05-03T11:58:17Z</time></trkpt><trkpt lat="49.6403251961" lon="12.3094651848"><ele>514.44</ele><time>2014-05-03T11:58:18Z</time></trkpt><trkpt lat="49.6403567120" lon="12.3093409650"><ele>514.44</ele><time>2014-05-03T11:58:19Z</time></trkpt><trkpt lat="49.6403920837" lon="12.3092191759"><ele>513.96</ele><time>2014-05-03T11:58:20Z</time></trkpt><trkpt lat="49.6404304728" lon="12.3091011588"><ele>513.96</ele><time>2014-05-03T11:58:21Z</time></trkpt><trkpt lat="49.6404732205" lon="12.3089866620"><ele>513.96</ele><time>2014-05-03T11:58:22Z</time></trkpt><trkpt lat="49.6405202430" lon="12.3088747635"><ele>513.96</ele><time>2014-05-03T11:58:23Z</time></trkpt><trkpt lat="49.6405689418" lon="12.3087661341"><ele>513.48</ele><time>2014-05-03T11:58:24Z</time></trkpt><trkpt lat="49.6406239271" lon="12.3086635396"><ele>513.48</ele><time>2014-05-03T11:58:25Z</time></trkpt><trkpt lat="49.6406842768" lon="12.3085664771"><ele>513.00</ele><time>2014-05-03T11:58:26Z</time></trkpt><trkpt lat="49.6407467220" lon="12.3084725160"><ele>513.00</ele><time>2014-05-03T11:58:27Z</time></trkpt><trkpt lat="49.6408103406" lon="12.3083835002"><ele>513.00</ele><time>2014-05-03T11:58:28Z</time></trkpt><trkpt lat="49.6408753004" lon="12.3082983401"><ele>512.52</ele><time>2014-05-03T11:58:29Z</time></trkpt><trkpt lat="49.6409416851" lon="12.3082135990"><ele>512.52</ele><time>2014-05-03T11:58:30Z</time></trkpt><trkpt lat="49.6410089079" lon="12.3081291094"><ele>512.52</ele><time>2014-05-03T11:58:31Z</time></trkpt><trkpt lat="49.6410766337" lon="12.3080448713"><ele>512.04</ele><time>2014-05-03T11:58:32Z</time></trkpt><trkpt lat="49.6411419287" lon="12.3079615552"><ele>512.04</ele><time>2014-05-03T11:58:33Z</time></trkpt><trkpt lat="49.6412054636" lon="12.3078756407"><ele>512.04</ele><time>2014-05-03T11:58:34Z</time></trkpt><trkpt lat="49.6412699204" lon="12.3077904806"><ele>511.56</ele><time>2014-05-03T11:58:35Z</time></trkpt><trkpt lat="49.6413346287" lon="12.3077077512"><ele>511.56</ele><time>2014-05-03T11:58:36Z</time></trkpt><trkpt lat="49.6414010972" lon="12.3076252732"><ele>511.56</ele><time>2014-05-03T11:58:37Z</time></trkpt><trkpt lat="49.6414689068" lon="12.3075434659"><ele>511.08</ele><time>2014-05-03T11:58:38Z</time></trkpt><trkpt lat="49.6415383089" lon="12.3074645922"><ele>511.08</ele><time>2014-05-03T11:58:39Z</time></trkpt><trkpt lat="49.6416092198" lon="12.3073899932"><ele>511.08</ele><time>2014-05-03T11:58:40Z</time></trkpt><trkpt lat="49.6416829806" lon="12.3073207587"><ele>510.60</ele><time>2014-05-03T11:58:41Z</time></trkpt><trkpt lat="49.6417585015" lon="12.3072588164"><ele>511.08</ele><time>2014-05-03T11:58:42Z</time></trkpt><trkpt lat="49.6418350283" lon="12.3072033282"><ele>511.08</ele><time>2014-05-03T11:58:43Z</time></trkpt><trkpt lat="49.6419124771" lon="12.3071530368"><ele>510.60</ele><time>2014-05-03T11:58:44Z</time></trkpt><trkpt lat="49.6419905964" lon="12.3071081098"><ele>510.12</ele><time>2014-05-03T11:58:45Z</time></trkpt><trkpt lat="49.6420677099" lon="12.3070713133"><ele>509.64</ele><time>2014-05-03T11:58:46Z</time></trkpt><trkpt lat="49.6421434823" lon="12.3070411384"><ele>509.64</ele><time>2014-05-03T11:58:47Z</time></trkpt><trkpt lat="49.6422223561" lon="12.3070209380"><ele>509.64</ele><time>2014-05-03T11:58:48Z</time></trkpt><trkpt lat="49.6423028223" lon="12.3070115503"><ele>509.16</ele><time>2014-05-03T11:58:49Z</time></trkpt><trkpt lat="49.6423820313" lon="12.3070063535"><ele>509.16</ele><time>2014-05-03T11:58:50Z</time></trkpt><trkpt lat="49.6424615756" lon="12.3070078623"><ele>509.16</ele><time>2014-05-03T11:58:51Z</time></trkpt><trkpt lat="49.6425393596" lon="12.3070161603"><ele>509.16</ele><time>2014-05-03T11:58:52Z</time></trkpt><trkpt lat="49.6426158864" lon="12.3070204351"><ele>509.16</ele><time>2014-05-03T11:58:53Z</time></trkpt><trkpt lat="49.6426929161" lon="12.3070207704"><ele>508.67</ele><time>2014-05-03T11:58:54Z</time></trkpt><trkpt lat="49.6427695267" lon="12.3070208542"><ele>508.67</ele><time>2014-05-03T11:58:55Z</time></trkpt><trkpt lat="49.6428476460" lon="12.3070232850"><ele>508.67</ele><time>2014-05-03T11:58:56Z</time></trkpt><trkpt lat="49.6429280285" lon="12.3070262186"><ele>508.67</ele><time>2014-05-03T11:58:57Z</time></trkpt><trkpt lat="49.6430074051" lon="12.3070269730"><ele>508.67</ele><time>2014-05-03T11:58:58Z</time></trkpt><trkpt lat="49.6430880390" lon="12.3070186749"><ele>508.19</ele><time>2014-05-03T11:58:59Z</time></trkpt><trkpt lat="49.6431733668" lon="12.3070007376"><ele>508.19</ele><time>2014-05-03T11:59:00Z</time></trkpt><trkpt lat="49.6432628855" lon="12.3069760110"><ele>508.19</ele><time>2014-05-03T11:59:01Z</time></trkpt><trkpt lat="49.6433527395" lon="12.3069448303"><ele>507.71</ele><time>2014-05-03T11:59:02Z</time></trkpt><trkpt lat="49.6434424259" lon="12.3069066089"><ele>507.71</ele><time>2014-05-03T11:59:03Z</time></trkpt><trkpt lat="49.6435332857" lon="12.3068600893"><ele>507.23</ele><time>2014-05-03T11:59:04Z</time></trkpt><trkpt lat="49.6436206251" lon="12.3068038467"><ele>506.75</ele><time>2014-05-03T11:59:05Z</time></trkpt><trkpt lat="49.6437051985" lon="12.3067430779"><ele>506.75</ele><time>2014-05-03T11:59:06Z</time></trkpt><trkpt lat="49.6437893528" lon="12.3066865001"><ele>506.75</ele><time>2014-05-03T11:59:07Z</time></trkpt><trkpt lat="49.6438749321" lon="12.3066356219"><ele>506.75</ele><time>2014-05-03T11:59:08Z</time></trkpt><trkpt lat="49.6439621877" lon="12.3065838218"><ele>506.75</ele><time>2014-05-03T11:59:09Z</time></trkpt><trkpt lat="49.6440465935" lon="12.3065282498"><ele>506.75</ele><time>2014-05-03T11:59:10Z</time></trkpt><trkpt lat="49.6441248804" lon="12.3064727616"><ele>506.75</ele><time>2014-05-03T11:59:11Z</time></trkpt><trkpt lat="49.6442014910" lon="12.3064197041"><ele>506.75</ele><time>2014-05-03T11:59:12Z</time></trkpt><trkpt lat="49.6442778502" lon="12.3063658085"><ele>506.75</ele><time>2014-05-03T11:59:13Z</time></trkpt><trkpt lat="49.6443505213" lon="12.3063135054"><ele>507.23</ele><time>2014-05-03T11:59:14Z</time></trkpt><trkpt lat="49.6444226056" lon="12.3062644713"><ele>507.23</ele><time>2014-05-03T11:59:15Z</time></trkpt><trkpt lat="49.6444926783" lon="12.3062186223"><ele>507.71</ele><time>2014-05-03T11:59:16Z</time></trkpt><trkpt lat="49.6445593145" lon="12.3061739467"><ele>507.23</ele><time>2014-05-03T11:59:17Z</time></trkpt><trkpt lat="49.6446228493" lon="12.3061296064"><ele>507.71</ele><time>2014-05-03T11:59:18Z</time></trkpt><trkpt lat="49.6446839534" lon="12.3060897086"><ele>507.71</ele><time>2014-05-03T11:59:19Z</time></trkpt><trkpt lat="49.6447388548" lon="12.3060505651"><ele>507.71</ele><time>2014-05-03T11:59:20Z</time></trkpt><trkpt lat="49.6447909065" lon="12.3060116731"><ele>507.71</ele><time>2014-05-03T11:59:21Z</time></trkpt><trkpt lat="49.6448396053" lon="12.3059728649"><ele>507.71</ele><time>2014-05-03T11:59:22Z</time></trkpt><trkpt lat="49.6448822692" lon="12.3059331346"><ele>507.71</ele><time>2014-05-03T11:59:23Z</time></trkpt><trkpt lat="49.6449196525" lon="12.3058879562"><ele>508.19</ele><time>2014-05-03T11:59:24Z</time></trkpt><trkpt lat="49.6449534316" lon="12.3058390897"><ele>507.71</ele><time>2014-05-03T11:59:25Z</time></trkpt><trkpt lat="49.6449848637" lon="12.3057884630"><ele>507.71</ele><time>2014-05-03T11:59:26Z</time></trkpt><trkpt lat="49.6450157091" lon="12.3057432007"><ele>508.19</ele><time>2014-05-03T11:59:27Z</time></trkpt><trkpt lat="49.6450513322" lon="12.3057155404"><ele>508.19</ele><time>2014-05-03T11:59:28Z</time></trkpt><trkpt lat="49.6450880449" lon="12.3057090864"><ele>508.19</ele><time>2014-05-03T11:59:29Z</time></trkpt><trkpt lat="49.6451208182" lon="12.3057043925"><ele>508.19</ele><time>2014-05-03T11:59:30Z</time></trkpt><trkpt lat="49.6451478079" lon="12.3056740500"><ele>508.19</ele><time>2014-05-03T11:59:31Z</time></trkpt><trkpt lat="49.6451725345" lon="12.3056307156"><ele>508.19</ele><time>2014-05-03T11:59:32Z</time></trkpt><trkpt lat="49.6451948304" lon="12.3055862915"><ele>508.67</ele><time>2014-05-03T11:59:33Z</time></trkpt><trkpt lat="49.6452157013" lon="12.3055465613"><ele>508.67</ele><time>2014-05-03T11:59:34Z</time></trkpt><trkpt lat="49.6452374943" lon="12.3055128660"><ele>508.67</ele><time>2014-05-03T11:59:35Z</time></trkpt><trkpt lat="49.6452597063" lon="12.3054782487"><ele>508.67</ele><time>2014-05-03T11:59:36Z</time></trkpt><trkpt lat="49.6452804096" lon="12.3054415360"><ele>508.67</ele><time>2014-05-03T11:59:37Z</time></trkpt><trkpt lat="49.6453001909" lon="12.3054046556"><ele>508.67</ele><time>2014-05-03T11:59:38Z</time></trkpt><trkpt lat="49.6453234088" lon="12.3053723853"><ele>508.67</ele><time>2014-05-03T11:59:39Z</time></trkpt><trkpt lat="49.6453460399" lon="12.3053457309"><ele>508.67</ele><time>2014-05-03T11:59:40Z</time></trkpt><trkpt lat="49.6453607082" lon="12.3053130414"><ele>508.67</ele><time>2014-05-03T11:59:41Z</time></trkpt><trkpt lat="49.6453743707" lon="12.3052751552"><ele>508.67</ele><time>2014-05-03T11:59:42Z</time></trkpt><trkpt lat="49.6453916375" lon="12.3052391130"><ele>508.67</ele><time>2014-05-03T11:59:43Z</time></trkpt><trkpt lat="49.6454102453" lon="12.3052048311"><ele>509.16</ele><time>2014-05-03T11:59:44Z</time></trkpt><trkpt lat="49.6454287693" lon="12.3051682860"><ele>508.67</ele><time>2014-05-03T11:59:45Z</time></trkpt><trkpt lat="49.6454458684" lon="12.3051280528"><ele>509.16</ele><time>2014-05-03T11:59:46Z</time></trkpt><trkpt lat="49.6454636380" lon="12.3050879873"><ele>509.16</ele><time>2014-05-03T11:59:47Z</time></trkpt><trkpt lat="49.6454819106" lon="12.3050493468"><ele>509.16</ele><time>2014-05-03T11:59:48Z</time></trkpt><trkpt lat="49.6454990935" lon="12.3050115444"><ele>509.16</ele><time>2014-05-03T11:59:49Z</time></trkpt><trkpt lat="49.6455136780" lon="12.3049752507"><ele>509.16</ele><time>2014-05-03T11:59:50Z</time></trkpt><trkpt lat="49.6455285978" lon="12.3049413040"><ele>509.16</ele><time>2014-05-03T11:59:51Z</time></trkpt><trkpt lat="49.6455438528" lon="12.3049061000"><ele>509.16</ele><time>2014-05-03T11:59:52Z</time></trkpt><trkpt lat="49.6455582697" lon="12.3048694711"><ele>509.16</ele><time>2014-05-03T11:59:53Z</time></trkpt><trkpt lat="49.6455732733" lon="12.3048337642"><ele>509.16</ele><time>2014-05-03T11:59:54Z</time></trkpt><trkpt lat="49.6455872711" lon="12.3047973029"><ele>509.16</ele><time>2014-05-03T11:59:55Z</time></trkpt><trkpt lat="49.6455994248" lon="12.3047620151"><ele>509.64</ele><time>2014-05-03T11:59:56Z</time></trkpt><trkpt lat="49.6456143446" lon="12.3047286551"><ele>509.16</ele><time>2014-05-03T11:59:57Z</time></trkpt><trkpt lat="49.6456306055" lon="12.3046928644"><ele>509.64</ele><time>2014-05-03T11:59:58Z</time></trkpt><trkpt lat="49.6456458606" lon="12.3046549782"><ele>509.64</ele><time>2014-05-03T11:59:59Z</time></trkpt><trkpt lat="49.6456615347" lon="12.3046155833"><ele>509.64</ele><time>2014-05-03T12:00:00Z</time></trkpt><trkpt lat="49.6456785500" lon="12.3045740929"><ele>509.64</ele><time>2014-05-03T12:00:01Z</time></trkpt><trkpt lat="49.6456953138" lon="12.3045336921"><ele>509.64</ele><time>2014-05-03T12:00:02Z</time></trkpt><trkpt lat="49.6457134187" lon="12.3044961412"><ele>509.64</ele><time>2014-05-03T12:00:03Z</time></trkpt><trkpt lat="49.6457287576" lon="12.3044572491"><ele>509.64</ele><time>2014-05-03T12:00:04Z</time></trkpt><trkpt lat="49.6457433421" lon="12.3044203687"><ele>509.64</ele><time>2014-05-03T12:00:05Z</time></trkpt><trkpt lat="49.6457598545" lon="12.3043864220"><ele>509.64</ele><time>2014-05-03T12:00:06Z</time></trkpt><trkpt lat="49.6457748581" lon="12.3043488711"><ele>509.64</ele><time>2014-05-03T12:00:07Z</time></trkpt><trkpt lat="49.6457897779" lon="12.3043099791"><ele>510.12</ele><time>2014-05-03T12:00:08Z</time></trkpt><trkpt lat="49.6458046976" lon="12.3042715061"><ele>510.12</ele><time>2014-05-03T12:00:09Z</time></trkpt><trkpt lat="49.6458203718" lon="12.3042313568"><ele>510.12</ele><time>2014-05-03T12:00:10Z</time></trkpt><trkpt lat="49.6458377223" lon="12.3041896150"><ele>510.12</ele><time>2014-05-03T12:00:11Z</time></trkpt><trkpt lat="49.6458566654" lon="12.3041481245"><ele>510.12</ele><time>2014-05-03T12:00:12Z</time></trkpt><trkpt lat="49.6458758600" lon="12.3041066341"><ele>510.12</ele><time>2014-05-03T12:00:13Z</time></trkpt><trkpt lat="49.6458945516" lon="12.3040653113"><ele>510.12</ele><time>2014-05-03T12:00:14Z</time></trkpt><trkpt lat="49.6459139138" lon="12.3040230665"><ele>510.12</ele><time>2014-05-03T12:00:15Z</time></trkpt><trkpt lat="49.6459336951" lon="12.3039779719"><ele>510.12</ele><time>2014-05-03T12:00:16Z</time></trkpt><trkpt lat="49.6459534764" lon="12.3039314523"><ele>510.12</ele><time>2014-05-03T12:00:17Z</time></trkpt><trkpt lat="49.6459751017" lon="12.3038835078"><ele>510.12</ele><time>2014-05-03T12:00:18Z</time></trkpt><trkpt lat="49.6459987387" lon="12.3038342223"><ele>510.12</ele><time>2014-05-03T12:00:19Z</time></trkpt><trkpt lat="49.6460223757" lon="12.3037856072"><ele>510.60</ele><time>2014-05-03T12:00:20Z</time></trkpt><trkpt lat="49.6460462641" lon="12.3037368245"><ele>510.60</ele><time>2014-05-03T12:00:21Z</time></trkpt><trkpt lat="49.6460704878" lon="12.3036865331"><ele>510.60</ele><time>2014-05-03T12:00:22Z</time></trkpt><trkpt lat="49.6460932866" lon="12.3036361579"><ele>510.60</ele><time>2014-05-03T12:00:23Z</time></trkpt><trkpt lat="49.6461145766" lon="12.3035870399"><ele>510.60</ele><time>2014-05-03T12:00:24Z</time></trkpt><trkpt lat="49.6461341064" lon="12.3035416938"><ele>510.60</ele><time>2014-05-03T12:00:25Z</time></trkpt><trkpt lat="49.6461538039" lon="12.3034997005"><ele>510.60</ele><time>2014-05-03T12:00:26Z</time></trkpt><trkpt lat="49.6461714059" lon="12.3034553602"><ele>511.08</ele><time>2014-05-03T12:00:27Z</time></trkpt><trkpt lat="49.6461874992" lon="12.3034102656"><ele>511.08</ele><time>2014-05-03T12:00:28Z</time></trkpt><trkpt lat="49.6462068614" lon="12.3033629078"><ele>511.08</ele><time>2014-05-03T12:00:29Z</time></trkpt><trkpt lat="49.6462269779" lon="12.3033137899"><ele>511.08</ele><time>2014-05-03T12:00:30Z</time></trkpt><trkpt lat="49.6462491062" lon="12.3032666836"><ele>511.08</ele><time>2014-05-03T12:00:31Z</time></trkpt><trkpt lat="49.6462715697" lon="12.3032204993"><ele>511.08</ele><time>2014-05-03T12:00:32Z</time></trkpt><trkpt lat="49.6462930273" lon="12.3031728063"><ele>511.08</ele><time>2014-05-03T12:00:33Z</time></trkpt><trkpt lat="49.6463126410" lon="12.3031257000"><ele>511.08</ele><time>2014-05-03T12:00:34Z</time></trkpt><trkpt lat="49.6463304944" lon="12.3030821979"><ele>511.08</ele><time>2014-05-03T12:00:35Z</time></trkpt><trkpt lat="49.6463494375" lon="12.3030437250"><ele>511.08</ele><time>2014-05-03T12:00:36Z</time></trkpt><trkpt lat="49.6463671234" lon="12.3030065931"><ele>511.08</ele><time>2014-05-03T12:00:37Z</time></trkpt><trkpt lat="49.6463841386" lon="12.3029642645"><ele>511.08</ele><time>2014-05-03T12:00:38Z</time></trkpt><trkpt lat="49.6464060154" lon="12.3029222712"><ele>511.56</ele><time>2014-05-03T12:00:39Z</time></trkpt><trkpt lat="49.6464305744" lon="12.3028787691"><ele>511.56</ele><time>2014-05-03T12:00:40Z</time></trkpt><trkpt lat="49.6464542113" lon="12.3028312437"><ele>511.56</ele><time>2014-05-03T12:00:41Z</time></trkpt><trkpt lat="49.6464783512" lon="12.3027781863"><ele>511.56</ele><time>2014-05-03T12:00:42Z</time></trkpt><trkpt lat="49.6465015691" lon="12.3027215246"><ele>511.56</ele><time>2014-05-03T12:00:43Z</time></trkpt><trkpt lat="49.6465264633" lon="12.3026615940"><ele>511.56</ele><time>2014-05-03T12:00:44Z</time></trkpt><trkpt lat="49.6465543751" lon="12.3025989812"><ele>511.56</ele><time>2014-05-03T12:00:45Z</time></trkpt><trkpt lat="49.6465831250" lon="12.3025365360"><ele>511.56</ele><time>2014-05-03T12:00:46Z</time></trkpt><trkpt lat="49.6466108691" lon="12.3024745937"><ele>511.56</ele><time>2014-05-03T12:00:47Z</time></trkpt><trkpt lat="49.6466379426" lon="12.3024124838"><ele>512.04</ele><time>2014-05-03T12:00:48Z</time></trkpt><trkpt lat="49.6466632560" lon="12.3023500387"><ele>512.04</ele><time>2014-05-03T12:00:49Z</time></trkpt><trkpt lat="49.6466868930" lon="12.3022883479"><ele>512.04</ele><time>2014-05-03T12:00:50Z</time></trkpt><trkpt lat="49.6467127092" lon="12.3022265732"><ele>512.04</ele><time>2014-05-03T12:00:51Z</time></trkpt><trkpt lat="49.6467404533" lon="12.3021652177"><ele>512.04</ele><time>2014-05-03T12:00:52Z</time></trkpt><trkpt lat="49.6467700414" lon="12.3021049518"><ele>512.52</ele><time>2014-05-03T12:00:53Z</time></trkpt><trkpt lat="49.6467992943" lon="12.3020420037"><ele>512.04</ele><time>2014-05-03T12:00:54Z</time></trkpt><trkpt lat="49.6468271222" lon="12.3019786365"><ele>512.52</ele><time>2014-05-03T12:00:55Z</time></trkpt><trkpt lat="49.6468567941" lon="12.3019183706"><ele>512.52</ele><time>2014-05-03T12:00:56Z</time></trkpt><trkpt lat="49.6468873043" lon="12.3018611223"><ele>512.52</ele><time>2014-05-03T12:00:57Z</time></trkpt><trkpt lat="49.6469173953" lon="12.3018032871"><ele>512.52</ele><time>2014-05-03T12:00:58Z</time></trkpt><trkpt lat="49.6469463967" lon="12.3017426021"><ele>512.52</ele><time>2014-05-03T12:00:59Z</time></trkpt><trkpt lat="49.6469730511" lon="12.3016819172"><ele>512.52</ele><time>2014-05-03T12:01:00Z</time></trkpt><trkpt lat="49.6470004600" lon="12.3016228247"><ele>513.00</ele><time>2014-05-03T12:01:01Z</time></trkpt><trkpt lat="49.6470320597" lon="12.3015678395"><ele>513.00</ele><time>2014-05-03T12:01:02Z</time></trkpt><trkpt lat="49.6470647492" lon="12.3015157040"><ele>513.00</ele><time>2014-05-03T12:01:03Z</time></trkpt><trkpt lat="49.6470986959" lon="12.3014655802"><ele>513.00</ele><time>2014-05-03T12:01:04Z</time></trkpt><trkpt lat="49.6471307985" lon="12.3014156241"><ele>513.48</ele><time>2014-05-03T12:01:05Z</time></trkpt><trkpt lat="49.6471645776" lon="12.3013667576"><ele>513.48</ele><time>2014-05-03T12:01:06Z</time></trkpt><trkpt lat="49.6471984405" lon="12.3013171367"><ele>513.48</ele><time>2014-05-03T12:01:07Z</time></trkpt><trkpt lat="49.6472315490" lon="12.3012678511"><ele>513.00</ele><time>2014-05-03T12:01:08Z</time></trkpt><trkpt lat="49.6472650766" lon="12.3012198228"><ele>513.48</ele><time>2014-05-03T12:01:09Z</time></trkpt><trkpt lat="49.6472999454" lon="12.3011701182"><ele>513.48</ele><time>2014-05-03T12:01:10Z</time></trkpt><trkpt lat="49.6473341435" lon="12.3011210002"><ele>513.48</ele><time>2014-05-03T12:01:11Z</time></trkpt><trkpt lat="49.6473690122" lon="12.3010728043"><ele>513.48</ele><time>2014-05-03T12:01:12Z</time></trkpt><trkpt lat="49.6474038810" lon="12.3010225967"><ele>513.48</ele><time>2014-05-03T12:01:13Z</time></trkpt><trkpt lat="49.6474382468" lon="12.3009729758"><ele>513.96</ele><time>2014-05-03T12:01:14Z</time></trkpt><trkpt lat="49.6474725287" lon="12.3009226844"><ele>513.96</ele><time>2014-05-03T12:01:15Z</time></trkpt><trkpt lat="49.6475075651" lon="12.3008732311"><ele>513.48</ele><time>2014-05-03T12:01:16Z</time></trkpt><trkpt lat="49.6475435235" lon="12.3008215148"><ele>513.48</ele><time>2014-05-03T12:01:17Z</time></trkpt><trkpt lat="49.6475792304" lon="12.3007701337"><ele>513.48</ele><time>2014-05-03T12:01:18Z</time></trkpt><trkpt lat="49.6476149373" lon="12.3007180821"><ele>513.96</ele><time>2014-05-03T12:01:19Z</time></trkpt><trkpt lat="49.6476513147" lon="12.3006662820"><ele>513.96</ele><time>2014-05-03T12:01:20Z</time></trkpt><trkpt lat="49.6476890333" lon="12.3006148171"><ele>513.96</ele><time>2014-05-03T12:01:21Z</time></trkpt><trkpt lat="49.6477269195" lon="12.3005621787"><ele>513.96</ele><time>2014-05-03T12:01:22Z</time></trkpt><trkpt lat="49.6477630455" lon="12.3005064391"><ele>513.96</ele><time>2014-05-03T12:01:23Z</time></trkpt><trkpt lat="49.6477993391" lon="12.3004500289"><ele>513.96</ele><time>2014-05-03T12:01:24Z</time></trkpt><trkpt lat="49.6478368063" lon="12.3003963009"><ele>513.48</ele><time>2014-05-03T12:01:25Z</time></trkpt><trkpt lat="49.6478758659" lon="12.3003434110"><ele>513.96</ele><time>2014-05-03T12:01:26Z</time></trkpt><trkpt lat="49.6479136683" lon="12.3002899345"><ele>513.96</ele><time>2014-05-03T12:01:27Z</time></trkpt><trkpt lat="49.6479509678" lon="12.3002383020"><ele>513.96</ele><time>2014-05-03T12:01:28Z</time></trkpt><trkpt lat="49.6479870100" lon="12.3001881782"><ele>513.48</ele><time>2014-05-03T12:01:29Z</time></trkpt><trkpt lat="49.6480211243" lon="12.3001375515"><ele>513.48</ele><time>2014-05-03T12:01:30Z</time></trkpt><trkpt lat="49.6480546519" lon="12.3000878468"><ele>513.48</ele><time>2014-05-03T12:01:31Z</time></trkpt><trkpt lat="49.6480899397" lon="12.3000385612"><ele>513.48</ele><time>2014-05-03T12:01:32Z</time></trkpt><trkpt lat="49.6481267363" lon="12.2999877669"><ele>513.96</ele><time>2014-05-03T12:01:33Z</time></trkpt><trkpt lat="49.6481659636" lon="12.2999337036"><ele>513.96</ele><time>2014-05-03T12:01:34Z</time></trkpt><trkpt lat="49.6482051071" lon="12.2998775449"><ele>513.96</ele><time>2014-05-03T12:01:35Z</time></trkpt><trkpt lat="49.6482445858" lon="12.2998222243"><ele>513.96</ele><time>2014-05-03T12:01:36Z</time></trkpt><trkpt lat="49.6482854057" lon="12.2997655626"><ele>513.96</ele><time>2014-05-03T12:01:37Z</time></trkpt><trkpt lat="49.6483247168" lon="12.2997081466"><ele>513.96</ele><time>2014-05-03T12:01:38Z</time></trkpt><trkpt lat="49.6483643632" lon="12.2996534128"><ele>513.48</ele><time>2014-05-03T12:01:39Z</time></trkpt><trkpt lat="49.6484043449" lon="12.2996014450"><ele>513.48</ele><time>2014-05-03T12:01:40Z</time></trkpt><trkpt lat="49.6484437399" lon="12.2995474655"><ele>513.48</ele><time>2014-05-03T12:01:41Z</time></trkpt><trkpt lat="49.6484831348" lon="12.2994965035"><ele>513.48</ele><time>2014-05-03T12:01:42Z</time></trkpt><trkpt lat="49.6485238709" lon="12.2994481400"><ele>513.48</ele><time>2014-05-03T12:01:43Z</time></trkpt><trkpt lat="49.6485651936" lon="12.2994006146"><ele>513.48</ele><time>2014-05-03T12:01:44Z</time></trkpt><trkpt lat="49.6486084443" lon="12.2993536759"><ele>513.00</ele><time>2014-05-03T12:01:45Z</time></trkpt><trkpt lat="49.6486532874" lon="12.2993079945"><ele>513.00</ele><time>2014-05-03T12:01:46Z</time></trkpt><trkpt lat="49.6486988850" lon="12.2992644086"><ele>513.00</ele><time>2014-05-03T12:01:47Z</time></trkpt><trkpt lat="49.6487449016" lon="12.2992229182"><ele>513.00</ele><time>2014-05-03T12:01:48Z</time></trkpt><trkpt lat="49.6487934329" lon="12.2991863731"><ele>513.00</ele><time>2014-05-03T12:01:49Z</time></trkpt><trkpt lat="49.6488422155" lon="12.2991521750"><ele>513.00</ele><time>2014-05-03T12:01:50Z</time></trkpt><trkpt lat="49.6488914173" lon="12.2991194017"><ele>513.00</ele><time>2014-05-03T12:01:51Z</time></trkpt><trkpt lat="49.6489394456" lon="12.2990906518"><ele>513.00</ele><time>2014-05-03T12:01:52Z</time></trkpt><trkpt lat="49.6489857975" lon="12.2990642488"><ele>513.00</ele><time>2014-05-03T12:01:53Z</time></trkpt><trkpt lat="49.6490308922" lon="12.2990416177"><ele>512.52</ele><time>2014-05-03T12:01:54Z</time></trkpt><trkpt lat="49.6490754839" lon="12.2990199085"><ele>512.52</ele><time>2014-05-03T12:01:55Z</time></trkpt><trkpt lat="49.6491226740" lon="12.2989969421"><ele>512.52</ele><time>2014-05-03T12:01:56Z</time></trkpt><trkpt lat="49.6491716243" lon="12.2989748977"><ele>512.52</ele><time>2014-05-03T12:01:57Z</time></trkpt><trkpt lat="49.6492214128" lon="12.2989536915"><ele>513.00</ele><time>2014-05-03T12:01:58Z</time></trkpt><trkpt lat="49.6492737159" lon="12.2989324853"><ele>512.52</ele><time>2014-05-03T12:01:59Z</time></trkpt><trkpt lat="49.6493287012" lon="12.2989096865"><ele>512.52</ele><time>2014-05-03T12:02:00Z</time></trkpt><trkpt lat="49.6493849438" lon="12.2988852952"><ele>512.52</ele><time>2014-05-03T12:02:01Z</time></trkpt><trkpt lat="49.6494417731" lon="12.2988588084"><ele>512.52</ele><time>2014-05-03T12:02:02Z</time></trkpt><trkpt lat="49.6494985186" lon="12.2988306452"><ele>512.04</ele><time>2014-05-03T12:02:03Z</time></trkpt><trkpt lat="49.6495553479" lon="12.2988032363"><ele>512.04</ele><time>2014-05-03T12:02:04Z</time></trkpt><trkpt lat="49.6496115066" lon="12.2987770848"><ele>511.56</ele><time>2014-05-03T12:02:05Z</time></trkpt><trkpt lat="49.6496654861" lon="12.2987508494"><ele>511.56</ele><time>2014-05-03T12:02:06Z</time></trkpt><trkpt lat="49.6497192979" lon="12.2987222672"><ele>512.04</ele><time>2014-05-03T12:02:07Z</time></trkpt><trkpt lat="49.6497757081" lon="12.2986925114"><ele>511.56</ele><time>2014-05-03T12:02:08Z</time></trkpt><trkpt lat="49.6498340461" lon="12.2986622527"><ele>511.56</ele><time>2014-05-03T12:02:09Z</time></trkpt><trkpt lat="49.6498928871" lon="12.2986327484"><ele>511.08</ele><time>2014-05-03T12:02:10Z</time></trkpt><trkpt lat="49.6499518957" lon="12.2986054234"><ele>511.08</ele><time>2014-05-03T12:02:11Z</time></trkpt><trkpt lat="49.6500123292" lon="12.2985762544"><ele>511.08</ele><time>2014-05-03T12:02:12Z</time></trkpt><trkpt lat="49.6500726789" lon="12.2985471692"><ele>511.08</ele><time>2014-05-03T12:02:13Z</time></trkpt><trkpt lat="49.6501326095" lon="12.2985188384"><ele>510.60</ele><time>2014-05-03T12:02:14Z</time></trkpt><trkpt lat="49.6501946356" lon="12.2984917648"><ele>510.60</ele><time>2014-05-03T12:02:15Z</time></trkpt><trkpt lat="49.6502580866" lon="12.2984634340"><ele>510.60</ele><time>2014-05-03T12:02:16Z</time></trkpt><trkpt lat="49.6503222082" lon="12.2984356061"><ele>510.60</ele><time>2014-05-03T12:02:17Z</time></trkpt><trkpt lat="49.6503875870" lon="12.2984119691"><ele>510.12</ele><time>2014-05-03T12:02:18Z</time></trkpt><trkpt lat="49.6504536364" lon="12.2983916011"><ele>510.12</ele><time>2014-05-03T12:02:19Z</time></trkpt><trkpt lat="49.6505207755" lon="12.2983719874"><ele>510.12</ele><time>2014-05-03T12:02:20Z</time></trkpt><trkpt lat="49.6505883336" lon="12.2983528767"><ele>509.64</ele><time>2014-05-03T12:02:21Z</time></trkpt><trkpt lat="49.6506557241" lon="12.2983353585"><ele>509.64</ele><time>2014-05-03T12:02:22Z</time></trkpt><trkpt lat="49.6507239528" lon="12.2983193491"><ele>509.64</ele><time>2014-05-03T12:02:23Z</time></trkpt><trkpt lat="49.6507905889" lon="12.2983063571"><ele>509.16</ele><time>2014-05-03T12:02:24Z</time></trkpt><trkpt lat="49.6508536208" lon="12.2982931975"><ele>509.16</ele><time>2014-05-03T12:02:25Z</time></trkpt><trkpt lat="49.6509141382" lon="12.2982843127"><ele>508.67</ele><time>2014-05-03T12:02:26Z</time></trkpt><trkpt lat="49.6509744879" lon="12.2982809599"><ele>508.67</ele><time>2014-05-03T12:02:27Z</time></trkpt><trkpt lat="49.6510376036" lon="12.2982743382"><ele>508.67</ele><time>2014-05-03T12:02:28Z</time></trkpt><trkpt lat="49.6511011384" lon="12.2982714884"><ele>508.67</ele><time>2014-05-03T12:02:29Z</time></trkpt><trkpt lat="49.6511646733" lon="12.2982722428"><ele>508.19</ele><time>2014-05-03T12:02:30Z</time></trkpt><trkpt lat="49.6512307227" lon="12.2982719913"><ele>508.19</ele><time>2014-05-03T12:02:31Z</time></trkpt><trkpt lat="49.6512978617" lon="12.2982694767"><ele>508.19</ele><time>2014-05-03T12:02:32Z</time></trkpt><trkpt lat="49.6513629891" lon="12.2982640285"><ele>507.71</ele><time>2014-05-03T12:02:33Z</time></trkpt><trkpt lat="49.6514282841" lon="12.2982584964"><ele>507.71</ele><time>2014-05-03T12:02:34Z</time></trkpt><trkpt lat="49.6514925733" lon="12.2982592508"><ele>507.71</ele><time>2014-05-03T12:02:35Z</time></trkpt><trkpt lat="49.6515535098" lon="12.2982653696"><ele>507.71</ele><time>2014-05-03T12:02:36Z</time></trkpt><trkpt lat="49.6516133565" lon="12.2982714046"><ele>507.71</ele><time>2014-05-03T12:02:37Z</time></trkpt><trkpt lat="49.6516754664" lon="12.2982812952"><ele>507.23</ele><time>2014-05-03T12:02:38Z</time></trkpt><trkpt lat="49.6517380793" lon="12.2982952092"><ele>507.23</ele><time>2014-05-03T12:02:39Z</time></trkpt><trkpt lat="49.6517985128" lon="12.2983110510"><ele>506.75</ele><time>2014-05-03T12:02:40Z</time></trkpt><trkpt lat="49.6518526599" lon="12.2983285692"><ele>506.75</ele><time>2014-05-03T12:02:41Z</time></trkpt><trkpt lat="49.6519078128" lon="12.2983433213"><ele>506.75</ele><time>2014-05-03T12:02:42Z</time></trkpt><trkpt lat="49.6519705933" lon="12.2983544692"><ele>506.75</ele><time>2014-05-03T12:02:43Z</time></trkpt><trkpt lat="49.6520384029" lon="12.2983689699"><ele>506.75</ele><time>2014-05-03T12:02:44Z</time></trkpt><trkpt lat="49.6521086432" lon="12.2983873263"><ele>506.27</ele><time>2014-05-03T12:02:45Z</time></trkpt><trkpt lat="49.6521786321" lon="12.2984097060"><ele>506.27</ele><time>2014-05-03T12:02:46Z</time></trkpt><trkpt lat="49.6522470284" lon="12.2984346841"><ele>506.75</ele><time>2014-05-03T12:02:47Z</time></trkpt><trkpt lat="49.6523125749" lon="12.2984580696"><ele>506.75</ele><time>2014-05-03T12:02:48Z</time></trkpt><trkpt lat="49.6523758583" lon="12.2984791081"><ele>506.27</ele><time>2014-05-03T12:02:49Z</time></trkpt><trkpt lat="49.6524393093" lon="12.2984971292"><ele>506.75</ele><time>2014-05-03T12:02:50Z</time></trkpt><trkpt lat="49.6525053587" lon="12.2985186707"><ele>506.75</ele><time>2014-05-03T12:02:51Z</time></trkpt><trkpt lat="49.6525690611" lon="12.2985480912"><ele>506.27</ele><time>2014-05-03T12:02:52Z</time></trkpt><trkpt lat="49.6526302490" lon="12.2985775955"><ele>506.27</ele><time>2014-05-03T12:02:53Z</time></trkpt><trkpt lat="49.6526928619" lon="12.2986066807"><ele>506.27</ele><time>2014-05-03T12:02:54Z</time></trkpt><trkpt lat="49.6527531277" lon="12.2986375261"><ele>506.27</ele><time>2014-05-03T12:02:55Z</time></trkpt><trkpt lat="49.6528135613" lon="12.2986670304"><ele>506.27</ele><time>2014-05-03T12:02:56Z</time></trkpt><trkpt lat="49.6528735757" lon="12.2986977082"><ele>506.75</ele><time>2014-05-03T12:02:57Z</time></trkpt><trkpt lat="49.6529353503" lon="12.2987294756"><ele>506.75</ele><time>2014-05-03T12:02:58Z</time></trkpt><trkpt lat="49.6529938560" lon="12.2987579741"><ele>506.75</ele><time>2014-05-03T12:02:59Z</time></trkpt><trkpt lat="49.6530506853" lon="12.2987865563"><ele>506.75</ele><time>2014-05-03T12:03:00Z</time></trkpt><trkpt lat="49.6531071793" lon="12.2988173179"><ele>506.27</ele><time>2014-05-03T12:03:01Z</time></trkpt><trkpt lat="49.6531638410" lon="12.2988502588"><ele>506.27</ele><time>2014-05-03T12:03:02Z</time></trkpt><trkpt lat="49.6532207541" lon="12.2988818586"><ele>506.75</ele><time>2014-05-03T12:03:03Z</time></trkpt><trkpt lat="49.6532783378" lon="12.2989139613"><ele>506.27</ele><time>2014-05-03T12:03:04Z</time></trkpt><trkpt lat="49.6533382684" lon="12.2989454772"><ele>506.27</ele><time>2014-05-03T12:03:05Z</time></trkpt><trkpt lat="49.6534003783" lon="12.2989779152"><ele>506.27</ele><time>2014-05-03T12:03:06Z</time></trkpt><trkpt lat="49.6534611471" lon="12.2990114428"><ele>506.27</ele><time>2014-05-03T12:03:07Z</time></trkpt><trkpt lat="49.6535223350" lon="12.2990473174"><ele>506.27</ele><time>2014-05-03T12:03:08Z</time></trkpt><trkpt lat="49.6535853669" lon="12.2990848683"><ele>506.27</ele><time>2014-05-03T12:03:09Z</time></trkpt><trkpt lat="49.6536513325" lon="12.2991179768"><ele>506.27</ele><time>2014-05-03T12:03:10Z</time></trkpt><trkpt lat="49.6537166275" lon="12.2991492413"><ele>506.27</ele><time>2014-05-03T12:03:11Z</time></trkpt><trkpt lat="49.6537795756" lon="12.2991846129"><ele>506.27</ele><time>2014-05-03T12:03:12Z</time></trkpt><trkpt lat="49.6538439486" lon="12.2992212418"><ele>506.27</ele><time>2014-05-03T12:03:13Z</time></trkpt><trkpt lat="49.6539089084" lon="12.2992559429"><ele>506.27</ele><time>2014-05-03T12:03:14Z</time></trkpt><trkpt lat="49.6539736167" lon="12.2992913984"><ele>505.79</ele><time>2014-05-03T12:03:15Z</time></trkpt><trkpt lat="49.6540377382" lon="12.2993271053"><ele>505.79</ele><time>2014-05-03T12:03:16Z</time></trkpt><trkpt lat="49.6541020274" lon="12.2993618064"><ele>505.79</ele><time>2014-05-03T12:03:17Z</time></trkpt><trkpt lat="49.6541654784" lon="12.2993969265"><ele>505.79</ele><time>2014-05-03T12:03:18Z</time></trkpt><trkpt lat="49.6542306058" lon="12.2994307056"><ele>505.79</ele><time>2014-05-03T12:03:19Z</time></trkpt><trkpt lat="49.6542943921" lon="12.2994664125"><ele>505.31</ele><time>2014-05-03T12:03:20Z</time></trkpt><trkpt lat="49.6543577593" lon="12.2995016165"><ele>505.31</ele><time>2014-05-03T12:03:21Z</time></trkpt><trkpt lat="49.6544202045" lon="12.2995370720"><ele>504.83</ele><time>2014-05-03T12:03:22Z</time></trkpt><trkpt lat="49.6544842422" lon="12.2995721083"><ele>504.35</ele><time>2014-05-03T12:03:23Z</time></trkpt><trkpt lat="49.6545494534" lon="12.2996073123"><ele>504.35</ele><time>2014-05-03T12:03:24Z</time></trkpt><trkpt lat="49.6546157543" lon="12.2996421810"><ele>503.87</ele><time>2014-05-03T12:03:25Z</time></trkpt><trkpt lat="49.6546813846" lon="12.2996778041"><ele>503.87</ele><time>2014-05-03T12:03:26Z</time></trkpt><trkpt lat="49.6547444165" lon="12.2997084819"><ele>503.87</ele><time>2014-05-03T12:03:27Z</time></trkpt><trkpt lat="49.6548035927" lon="12.2997395787"><ele>503.39</ele><time>2014-05-03T12:03:28Z</time></trkpt><trkpt lat="49.6548622660" lon="12.2997706756"><ele>503.39</ele><time>2014-05-03T12:03:29Z</time></trkpt><trkpt lat="49.6549204364" lon="12.2998053767"><ele>503.87</ele><time>2014-05-03T12:03:30Z</time></trkpt><trkpt lat="49.6549784392" lon="12.2998399939"><ele>503.39</ele><time>2014-05-03T12:03:31Z</time></trkpt><trkpt lat="49.6550351847" lon="12.2998718452"><ele>503.39</ele><time>2014-05-03T12:03:32Z</time></trkpt><trkpt lat="49.6550914273" lon="12.2999030259"><ele>503.39</ele><time>2014-05-03T12:03:33Z</time></trkpt><trkpt lat="49.6551476698" lon="12.2999332845"><ele>503.39</ele><time>2014-05-03T12:03:34Z</time></trkpt><trkpt lat="49.6552058402" lon="12.2999690752"><ele>503.87</ele><time>2014-05-03T12:03:35Z</time></trkpt><trkpt lat="49.6552658547" lon="12.3000081349"><ele>503.87</ele><time>2014-05-03T12:03:36Z</time></trkpt><trkpt lat="49.6553294733" lon="12.3000458535"><ele>503.39</ele><time>2014-05-03T12:03:37Z</time></trkpt><trkpt lat="49.6553957742" lon="12.3000806384"><ele>502.91</ele><time>2014-05-03T12:03:38Z</time></trkpt><trkpt lat="49.6554633323" lon="12.3001139145"><ele>502.91</ele><time>2014-05-03T12:03:39Z</time></trkpt><trkpt lat="49.6555321477" lon="12.3001473583"><ele>502.91</ele><time>2014-05-03T12:03:40Z</time></trkpt><trkpt lat="49.6556007117" lon="12.3001812212"><ele>502.91</ele><time>2014-05-03T12:03:41Z</time></trkpt><trkpt lat="49.6556690242" lon="12.3002164252"><ele>502.91</ele><time>2014-05-03T12:03:42Z</time></trkpt><trkpt lat="49.6557375882" lon="12.3002523836"><ele>502.43</ele><time>2014-05-03T12:03:43Z</time></trkpt><trkpt lat="49.6558072418" lon="12.3002908565"><ele>501.95</ele><time>2014-05-03T12:03:44Z</time></trkpt><trkpt lat="49.6558784042" lon="12.3003295809"><ele>501.95</ele><time>2014-05-03T12:03:45Z</time></trkpt><trkpt lat="49.6559524164" lon="12.3003674671"><ele>501.95</ele><time>2014-05-03T12:03:46Z</time></trkpt><trkpt lat="49.6560269315" lon="12.3004079517"><ele>501.95</ele><time>2014-05-03T12:03:47Z</time></trkpt><trkpt lat="49.6561016981" lon="12.3004501127"><ele>501.95</ele><time>2014-05-03T12:03:48Z</time></trkpt><trkpt lat="49.6561752073" lon="12.3004881665"><ele>502.43</ele><time>2014-05-03T12:03:49Z</time></trkpt><trkpt lat="49.6562487166" lon="12.3005254660"><ele>501.95</ele><time>2014-05-03T12:03:50Z</time></trkpt><trkpt lat="49.6563217230" lon="12.3005658668"><ele>501.46</ele><time>2014-05-03T12:03:51Z</time></trkpt><trkpt lat="49.6563947294" lon="12.3006061837"><ele>501.46</ele><time>2014-05-03T12:03:52Z</time></trkpt><trkpt lat="49.6564672329" lon="12.3006469198"><ele>500.98</ele><time>2014-05-03T12:03:53Z</time></trkpt><trkpt lat="49.6565385628" lon="12.3006886616"><ele>501.46</ele><time>2014-05-03T12:03:54Z</time></trkpt><trkpt lat="49.6566095576" lon="12.3007329181"><ele>500.98</ele><time>2014-05-03T12:03:55Z</time></trkpt><trkpt lat="49.6566794626" lon="12.3007813655"><ele>500.98</ele><time>2014-05-03T12:03:56Z</time></trkpt><trkpt lat="49.6567493677" lon="12.3008280527"><ele>500.50</ele><time>2014-05-03T12:03:57Z</time></trkpt><trkpt lat="49.6568208653" lon="12.3008698784"><ele>500.50</ele><time>2014-05-03T12:03:58Z</time></trkpt><trkpt lat="49.6568920277" lon="12.3009071779"><ele>500.50</ele><time>2014-05-03T12:03:59Z</time></trkpt><trkpt lat="49.6569624357" lon="12.3009447288"><ele>500.50</ele><time>2014-05-03T12:04:00Z</time></trkpt><trkpt lat="49.6570328437" lon="12.3009831179"><ele>500.50</ele><time>2014-05-03T12:04:01Z</time></trkpt><trkpt lat="49.6571033355" lon="12.3010196630"><ele>500.50</ele><time>2014-05-03T12:04:02Z</time></trkpt><trkpt lat="49.6571741626" lon="12.3010567110"><ele>500.02</ele><time>2014-05-03T12:04:03Z</time></trkpt><trkpt lat="49.6572433971" lon="12.3010954354"><ele>500.02</ele><time>2014-05-03T12:04:04Z</time></trkpt><trkpt lat="49.6573114581" lon="12.3011339083"><ele>499.54</ele><time>2014-05-03T12:04:05Z</time></trkpt><trkpt lat="49.6573799383" lon="12.3011710402"><ele>499.54</ele><time>2014-05-03T12:04:06Z</time></trkpt><trkpt lat="49.6574507654" lon="12.3012092616"><ele>499.06</ele><time>2014-05-03T12:04:07Z</time></trkpt><trkpt lat="49.6575215925" lon="12.3012497462"><ele>499.06</ele><time>2014-05-03T12:04:08Z</time></trkpt><trkpt lat="49.6575914137" lon="12.3012903146"><ele>499.06</ele><time>2014-05-03T12:04:09Z</time></trkpt><trkpt lat="49.6576600615" lon="12.3013279494"><ele>498.58</ele><time>2014-05-03T12:04:10Z</time></trkpt><trkpt lat="49.6577284578" lon="12.3013634048"><ele>498.58</ele><time>2014-05-03T12:04:11Z</time></trkpt></trkseg></trk></gpx>